Time,TemperatureF,DewpointF,PressureIn,WindDirection,WindDirectionDegrees,WindSpeedMPH,WindSpeedGustMPH,Humidity,HourlyPrecipIn,Conditions,Clouds,dailyrainin,SoftwareType,DateUTC
2013-03-15 00:00:00,57.4,49.9,30.29,North,359,4.7,18.3,76,0.00,,---,0.00,VWS V14.01,2013-03-15 04:00:00,
2013-03-15 00:01:00,57.3,50.1,30.29,NW,307,4.8,9.4,77,0.00,,---,0.00,VWS V14.01,2013-03-15 04:01:00,
2013-03-15 00:02:00,57.4,50.2,30.29,NNW,338,4.3,9.4,77,0.00,,---,0.00,VWS V14.01,2013-03-15 04:02:00,
2013-03-15 00:03:00,57.5,50.2,30.29,NNW,335,2.7,9.4,77,0.00,,---,0.00,VWS V14.01,2013-03-15 04:03:00,
2013-03-15 00:04:00,57.4,50.2,30.29,NNW,329,2.2,9.4,77,0.00,,---,0.00,VWS V14.01,2013-03-15 04:04:00,
2013-03-15 00:05:00,57.4,50.0,30.29,North,352,4.6,4.8,76,0.00,,---,0.00,VWS V14.01,2013-03-15 04:05:00,
2013-03-15 00:06:00,57.4,50.2,30.29,NNE,30,4.6,9.4,77,0.00,,---,0.00,VWS V14.01,2013-03-15 04:06:00,
2013-03-15 00:07:00,57.4,50.2,30.29,North,10,1.5,9.4,77,0.00,,---,0.00,VWS V14.01,2013-03-15 04:07:00,
2013-03-15 00:08:00,57.5,50.3,30.29,NNW,330,3.2,9.4,77,0.00,,---,0.00,VWS V14.01,2013-03-15 04:08:00,
2013-03-15 00:09:00,57.4,50.2,30.29,NE,44,0.7,9.4,77,0.00,,---,0.00,VWS V14.01,2013-03-15 04:09:00,
2013-03-15 00:10:00,57.3,49.9,30.29,North,10,5.5,7.5,76,0.00,,---,0.00,VWS V14.01,2013-03-15 04:10:00,
2013-03-15 00:11:00,57.3,50.1,30.29,NW,316,3.3,9.4,77,0.00,,---,0.00,VWS V14.01,2013-03-15 04:11:00,
2013-03-15 00:12:00,57.4,50.2,30.29,NW,308,5.8,9.4,77,0.00,,---,0.00,VWS V14.01,2013-03-15 04:12:00,
2013-03-15 00:13:00,57.4,50.2,30.29,NNE,30,1.6,9.4,77,0.00,,---,0.00,VWS V14.01,2013-03-15 04:13:00,
2013-03-15 00:14:00,57.5,50.3,30.29,NW,322,3.9,9.4,77,0.00,,---,0.00,VWS V14.01,2013-03-15 04:14:00,
2013-03-15 00:15:00,57.4,50.0,30.30,North,3,6.4,7.6,76,0.00,,---,0.00,VWS V14.01,2013-03-15 04:15:00,
2013-03-15 00:16:00,57.4,50.2,30.29,NNW,343,5.7,9.4,77,0.00,,---,0.00,VWS V14.01,2013-03-15 04:16:00,
2013-03-15 00:17:00,57.4,50.2,30.29,ENE,62,2.2,9.4,77,0.00,,---,0.00,VWS V14.01,2013-03-15 04:17:00,
2013-03-15 00:18:00,57.5,50.2,30.29,North,349,2.1,9.4,77,0.00,,---,0.00,VWS V14.01,2013-03-15 04:18:00,
2013-03-15 00:19:00,57.4,50.2,30.29,North,0,3.0,9.4,77,0.00,,---,0.00,VWS V14.01,2013-03-15 04:19:00,
2013-03-15 00:20:00,57.3,50.0,30.30,NNE,21,4.8,4.8,76,0.00,,---,0.00,VWS V14.01,2013-03-15 04:20:00,
2013-03-15 00:21:00,57.4,50.0,30.30,NW,312,7.0,7.0,76,0.00,,---,0.00,VWS V14.01,2013-03-15 04:21:00,
2013-03-15 00:22:00,57.5,50.2,30.29,North,10,1.9,9.4,77,0.00,,---,0.00,VWS V14.01,2013-03-15 04:22:00,
2013-03-15 00:23:00,57.5,50.3,30.29,NE,52,1.4,9.4,77,0.00,,---,0.00,VWS V14.01,2013-03-15 04:23:00,
2013-03-15 00:24:00,57.5,50.4,30.29,North,354,2.1,9.4,77,0.00,,---,0.00,VWS V14.01,2013-03-15 04:24:00,
2013-03-15 00:25:00,57.3,50.0,30.30,North,352,5.1,6.4,76,0.00,,---,0.00,VWS V14.01,2013-03-15 04:25:00,
2013-03-15 00:26:00,57.5,50.2,30.30,NNW,343,2.7,4.9,76,0.00,,---,0.00,VWS V14.01,2013-03-15 04:26:00,
2013-03-15 00:27:00,57.5,50.3,30.29,NNW,333,5.5,9.4,77,0.00,,---,0.00,VWS V14.01,2013-03-15 04:27:00,
2013-03-15 00:28:00,57.4,50.2,30.29,NNW,345,8.3,9.4,77,0.00,,---,0.00,VWS V14.01,2013-03-15 04:28:00,
2013-03-15 00:29:00,57.4,50.2,30.29,North,349,2.2,9.4,77,0.00,,---,0.00,VWS V14.01,2013-03-15 04:29:00,
2013-03-15 00:30:00,57.4,50.1,30.30,NNE,28,4.7,4.7,76,0.00,,---,0.00,VWS V14.01,2013-03-15 04:30:00,
2013-03-15 00:31:00,57.3,50.1,30.30,North,0,3.9,6.0,77,0.00,,---,0.00,VWS V14.01,2013-03-15 04:31:00,
2013-03-15 00:32:00,57.4,50.2,30.29,North,349,6.0,9.4,77,0.00,,---,0.00,VWS V14.01,2013-03-15 04:32:00,
2013-03-15 00:33:00,57.5,50.2,30.29,North,356,3.7,9.4,77,0.00,,---,0.00,VWS V14.01,2013-03-15 04:33:00,
2013-03-15 00:34:00,57.3,50.1,30.29,NNW,333,4.0,9.4,77,0.00,,---,0.00,VWS V14.01,2013-03-15 04:34:00,
2013-03-15 00:35:00,57.5,50.2,30.29,NNW,346,4.3,4.9,77,0.00,,---,0.00,VWS V14.01,2013-03-15 04:35:00,
2013-03-15 00:36:00,57.3,50.1,30.30,North,0,3.5,7.3,77,0.00,,---,0.00,VWS V14.01,2013-03-15 04:36:00,
2013-03-15 00:37:00,57.6,50.3,30.29,NW,322,3.2,9.4,77,0.00,,---,0.00,VWS V14.01,2013-03-15 04:37:00,
2013-03-15 00:38:00,57.6,50.3,30.29,WNW,298,2.8,9.4,76,0.00,,---,0.00,VWS V14.01,2013-03-15 04:38:00,
2013-03-15 00:39:00,57.4,50.1,30.29,North,356,2.3,9.4,76,0.00,,---,0.00,VWS V14.01,2013-03-15 04:39:00,
2013-03-15 00:40:00,57.4,50.1,30.29,WNW,290,1.7,5.4,77,0.00,,---,0.00,VWS V14.01,2013-03-15 04:40:00,
2013-03-15 00:41:00,57.4,50.1,30.29,NNW,347,7.1,7.3,77,0.00,,---,0.00,VWS V14.01,2013-03-15 04:41:00,
2013-03-15 00:42:00,57.5,50.3,30.29,NNW,338,4.1,5.6,77,0.00,,---,0.00,VWS V14.01,2013-03-15 04:42:00,
2013-03-15 00:43:00,57.5,50.1,30.30,North,359,3.1,9.4,76,0.00,,---,0.00,VWS V14.01,2013-03-15 04:43:00,
2013-03-15 00:44:00,57.5,50.1,30.29,WNW,295,4.0,9.4,76,0.00,,---,0.00,VWS V14.01,2013-03-15 04:44:00,
2013-03-15 00:45:00,57.6,50.2,30.29,NNW,338,4.1,9.4,76,0.00,,---,0.00,VWS V14.01,2013-03-15 04:45:00,
2013-03-15 00:46:00,57.6,50.1,30.29,NE,39,4.2,9.4,76,0.00,,---,0.00,VWS V14.01,2013-03-15 04:46:00,
2013-03-15 00:47:00,57.5,50.0,30.29,North,350,5.6,9.4,76,0.00,,---,0.00,VWS V14.01,2013-03-15 04:47:00,
2013-03-15 00:48:00,57.4,49.9,30.29,NNW,333,4.5,9.4,76,0.00,,---,0.00,VWS V14.01,2013-03-15 04:48:00,
2013-03-15 00:49:00,57.4,49.9,30.29,NW,325,5.0,9.4,76,0.00,,---,0.00,VWS V14.01,2013-03-15 04:49:00,
2013-03-15 00:50:00,57.6,50.0,30.29,NNE,15,4.4,9.4,76,0.00,,---,0.00,VWS V14.01,2013-03-15 04:50:00,
2013-03-15 00:51:00,57.5,49.9,30.29,NNE,17,2.8,9.4,76,0.00,,---,0.00,VWS V14.01,2013-03-15 04:51:00,
2013-03-15 00:52:00,57.6,49.9,30.29,NE,44,7.5,9.4,76,0.00,,---,0.00,VWS V14.01,2013-03-15 04:52:00,
2013-03-15 00:53:00,57.6,49.9,30.29,North,357,4.5,9.4,76,0.00,,---,0.00,VWS V14.01,2013-03-15 04:53:00,
2013-03-15 00:54:00,57.6,49.9,30.29,NNW,335,2.4,9.4,76,0.00,,---,0.00,VWS V14.01,2013-03-15 04:54:00,
2013-03-15 00:55:00,57.7,50.0,30.29,North,6,1.4,9.4,76,0.00,,---,0.00,VWS V14.01,2013-03-15 04:55:00,
2013-03-15 00:56:00,57.6,49.9,30.28,NNE,20,2.2,9.4,76,0.00,,---,0.00,VWS V14.01,2013-03-15 04:56:00,
2013-03-15 00:57:00,57.8,50.1,30.29,North,359,2.8,9.4,75,0.00,,---,0.00,VWS V14.01,2013-03-15 04:57:00,
2013-03-15 00:58:00,57.5,49.8,30.28,NW,309,5.7,9.4,75,0.00,,---,0.00,VWS V14.01,2013-03-15 04:58:00,
2013-03-15 00:59:00,57.8,50.0,30.29,NW,325,1.9,9.4,75,0.00,,---,0.00,VWS V14.01,2013-03-15 04:59:00,
2013-03-15 01:00:00,57.5,49.7,30.28,NW,309,3.6,9.4,75,0.00,,---,0.00,VWS V14.01,2013-03-15 05:00:00,
2013-03-15 01:01:00,57.5,49.6,30.28,NNE,20,5.7,9.4,75,0.00,,---,0.00,VWS V14.01,2013-03-15 05:01:00,
2013-03-15 01:02:00,57.5,49.5,30.28,NNW,347,6.7,9.4,74,0.00,,---,0.00,VWS V14.01,2013-03-15 05:02:00,
2013-03-15 01:03:00,57.4,49.4,30.28,NNE,21,3.0,9.4,75,0.00,,---,0.00,VWS V14.01,2013-03-15 05:03:00,
2013-03-15 01:04:00,57.4,49.4,30.28,NW,325,2.7,9.4,75,0.00,,---,0.00,VWS V14.01,2013-03-15 05:04:00,
2013-03-15 01:05:00,57.4,49.4,30.28,NW,326,1.9,9.4,74,0.00,,---,0.00,VWS V14.01,2013-03-15 05:05:00,
2013-03-15 01:06:00,57.4,49.3,30.28,NNW,347,2.9,9.4,74,0.00,,---,0.00,VWS V14.01,2013-03-15 05:06:00,
2013-03-15 01:07:00,57.4,49.4,30.29,North,11,2.7,9.4,74,0.00,,---,0.00,VWS V14.01,2013-03-15 05:07:00,
2013-03-15 01:08:00,57.4,49.3,30.29,North,359,4.3,9.4,74,0.00,,---,0.00,VWS V14.01,2013-03-15 05:08:00,
2013-03-15 01:09:00,57.5,49.4,30.29,North,359,5.1,9.4,74,0.00,,---,0.00,VWS V14.01,2013-03-15 05:09:00,
2013-03-15 01:10:00,57.6,49.4,30.28,NNE,18,0.7,9.4,74,0.00,,---,0.00,VWS V14.01,2013-03-15 05:10:00,
2013-03-15 01:11:00,57.5,49.3,30.28,NNW,338,3.2,9.4,74,0.00,,---,0.00,VWS V14.01,2013-03-15 05:11:00,
2013-03-15 01:12:00,57.6,49.4,30.28,NNE,25,3.4,9.4,74,0.00,,---,0.00,VWS V14.01,2013-03-15 05:12:00,
2013-03-15 01:13:00,57.4,49.2,30.28,WNW,300,3.2,9.4,74,0.00,,---,0.00,VWS V14.01,2013-03-15 05:13:00,
2013-03-15 01:14:00,57.5,49.3,30.28,NW,325,1.4,9.4,74,0.00,,---,0.00,VWS V14.01,2013-03-15 05:14:00,
2013-03-15 01:15:00,57.5,49.1,30.28,North,10,2.1,9.4,74,0.00,,---,0.00,VWS V14.01,2013-03-15 05:15:00,
2013-03-15 01:16:00,57.3,49.0,30.28,NNE,32,2.0,9.4,74,0.00,,---,0.00,VWS V14.01,2013-03-15 05:16:00,
2013-03-15 01:17:00,57.3,48.9,30.28,NNW,338,3.7,9.4,73,0.00,,---,0.00,VWS V14.01,2013-03-15 05:17:00,
2013-03-15 01:18:00,57.4,49.0,30.28,NNW,339,8.1,9.4,73,0.00,,---,0.00,VWS V14.01,2013-03-15 05:18:00,
2013-03-15 01:19:00,57.4,49.0,30.28,NNW,343,2.1,9.4,74,0.00,,---,0.00,VWS V14.01,2013-03-15 05:19:00,
2013-03-15 01:20:00,57.4,49.0,30.28,NNW,335,3.2,9.4,73,0.00,,---,0.00,VWS V14.01,2013-03-15 05:20:00,
2013-03-15 01:21:00,57.3,48.8,30.28,North,1,5.6,9.4,73,0.00,,---,0.00,VWS V14.01,2013-03-15 05:21:00,
2013-03-15 01:22:00,57.5,49.0,30.28,North,354,2.2,9.4,73,0.00,,---,0.00,VWS V14.01,2013-03-15 05:22:00,
2013-03-15 01:23:00,57.4,48.8,30.28,NNW,338,3.2,9.4,73,0.00,,---,0.00,VWS V14.01,2013-03-15 05:23:00,
2013-03-15 01:24:00,57.3,48.6,30.28,NNE,15,1.5,9.4,73,0.00,,---,0.00,VWS V14.01,2013-03-15 05:24:00,
2013-03-15 01:25:00,57.4,48.9,30.28,NW,323,3.0,9.4,73,0.00,,---,0.00,VWS V14.01,2013-03-15 05:25:00,
2013-03-15 01:26:00,57.4,48.8,30.28,NNW,340,4.9,9.4,73,0.00,,---,0.00,VWS V14.01,2013-03-15 05:26:00,
2013-03-15 01:27:00,57.3,48.5,30.28,NNW,343,4.7,9.4,72,0.00,,---,0.00,VWS V14.01,2013-03-15 05:27:00,
2013-03-15 01:28:00,57.5,48.9,30.28,North,1,4.8,9.4,73,0.00,,---,0.00,VWS V14.01,2013-03-15 05:28:00,
2013-03-15 01:29:00,57.3,48.6,30.28,North,4,1.8,9.4,73,0.00,,---,0.00,VWS V14.01,2013-03-15 05:29:00,
2013-03-15 01:30:00,57.3,48.6,30.28,NW,311,1.6,9.4,73,0.00,,---,0.00,VWS V14.01,2013-03-15 05:30:00,
2013-03-15 01:31:00,57.3,48.5,30.28,NNW,340,1.4,9.4,72,0.00,,---,0.00,VWS V14.01,2013-03-15 05:31:00,
2013-03-15 01:32:00,57.2,48.4,30.28,NNW,338,2.7,9.4,72,0.00,,---,0.00,VWS V14.01,2013-03-15 05:32:00,
2013-03-15 01:33:00,57.2,48.3,30.28,NE,53,2.2,9.4,72,0.00,,---,0.00,VWS V14.01,2013-03-15 05:33:00,
2013-03-15 01:34:00,57.2,48.2,30.28,NW,311,3.2,9.4,72,0.00,,---,0.00,VWS V14.01,2013-03-15 05:34:00,
2013-03-15 01:35:00,57.1,48.1,30.28,North,356,1.7,9.4,72,0.00,,---,0.00,VWS V14.01,2013-03-15 05:35:00,
2013-03-15 01:36:00,57.2,48.3,30.28,North,0,0.4,9.4,72,0.00,,---,0.00,VWS V14.01,2013-03-15 05:36:00,
2013-03-15 01:37:00,57.1,48.1,30.28,NNW,335,2.1,9.4,72,0.00,,---,0.00,VWS V14.01,2013-03-15 05:37:00,
2013-03-15 01:38:00,57.3,48.2,30.28,NNW,346,3.0,9.4,72,0.00,,---,0.00,VWS V14.01,2013-03-15 05:38:00,
2013-03-15 01:39:00,57.1,48.0,30.28,NNW,335,3.0,9.4,72,0.00,,---,0.00,VWS V14.01,2013-03-15 05:39:00,
2013-03-15 01:40:00,57.2,48.0,30.28,North,10,2.9,9.4,71,0.00,,---,0.00,VWS V14.01,2013-03-15 05:40:00,
2013-03-15 01:41:00,57.3,48.2,30.28,NNW,345,0.9,9.4,72,0.00,,---,0.00,VWS V14.01,2013-03-15 05:41:00,
2013-03-15 01:42:00,57.2,48.2,30.28,NNW,347,2.5,9.4,72,0.00,,---,0.00,VWS V14.01,2013-03-15 05:42:00,
2013-03-15 01:43:00,57.2,48.1,30.28,NE,42,0.0,9.4,72,0.00,,---,0.00,VWS V14.01,2013-03-15 05:43:00,
2013-03-15 01:44:00,57.1,48.0,30.28,North,354,1.4,9.4,72,0.00,,---,0.00,VWS V14.01,2013-03-15 05:44:00,
2013-03-15 01:45:00,57.1,48.0,30.28,NW,319,1.9,9.4,72,0.00,,---,0.00,VWS V14.01,2013-03-15 05:45:00,
2013-03-15 01:46:00,57.2,48.1,30.28,North,1,2.3,9.4,72,0.00,,---,0.00,VWS V14.01,2013-03-15 05:46:00,
2013-03-15 01:47:00,57.2,48.1,30.28,NW,311,1.9,9.4,72,0.00,,---,0.00,VWS V14.01,2013-03-15 05:47:00,
2013-03-15 01:48:00,57.1,47.9,30.27,NNW,335,1.6,9.4,71,0.00,,---,0.00,VWS V14.01,2013-03-15 05:48:00,
2013-03-15 01:49:00,57.1,47.9,30.28,NNE,20,4.9,9.4,71,0.00,,---,0.00,VWS V14.01,2013-03-15 05:49:00,
2013-03-15 01:50:00,57.1,47.8,30.27,NNW,330,2.2,9.4,71,0.00,,---,0.00,VWS V14.01,2013-03-15 05:50:00,
2013-03-15 01:51:00,57.0,47.8,30.27,North,4,1.4,9.4,71,0.00,,---,0.00,VWS V14.01,2013-03-15 05:51:00,
2013-03-15 01:52:00,57.1,47.7,30.27,NNE,13,4.3,9.4,71,0.00,,---,0.00,VWS V14.01,2013-03-15 05:52:00,
2013-03-15 01:53:00,57.0,47.7,30.28,NNE,25,1.9,9.4,71,0.00,,---,0.00,VWS V14.01,2013-03-15 05:53:00,
2013-03-15 01:54:00,57.0,47.7,30.28,North,353,2.1,9.4,71,0.00,,---,0.00,VWS V14.01,2013-03-15 05:54:00,
2013-03-15 01:55:00,57.0,47.6,30.28,ENE,75,3.2,9.4,71,0.00,,---,0.00,VWS V14.01,2013-03-15 05:55:00,
2013-03-15 01:56:00,57.0,47.4,30.27,NNW,346,2.4,9.4,70,0.00,,---,0.00,VWS V14.01,2013-03-15 05:56:00,
2013-03-15 01:57:00,57.0,47.3,30.27,NNW,339,1.5,9.4,70,0.00,,---,0.00,VWS V14.01,2013-03-15 05:57:00,
2013-03-15 01:58:00,57.1,47.3,30.27,ENE,60,3.0,9.4,70,0.00,,---,0.00,VWS V14.01,2013-03-15 05:58:00,
2013-03-15 01:59:00,57.0,47.3,30.27,NW,315,3.4,9.4,70,0.00,,---,0.00,VWS V14.01,2013-03-15 05:59:00,
2013-03-15 02:00:00,57.1,47.3,30.27,NNW,328,2.4,9.4,70,0.00,,---,0.00,VWS V14.01,2013-03-15 06:00:00,
2013-03-15 02:01:00,57.1,47.2,30.27,North,359,1.7,9.4,69,0.00,,---,0.00,VWS V14.01,2013-03-15 06:01:00,
2013-03-15 02:02:00,57.1,47.2,30.27,North,359,1.5,9.4,69,0.00,,---,0.00,VWS V14.01,2013-03-15 06:02:00,
2013-03-15 02:03:00,57.1,47.1,30.27,North,359,1.6,9.4,69,0.00,,---,0.00,VWS V14.01,2013-03-15 06:03:00,
2013-03-15 02:04:00,57.1,47.1,30.27,NNW,336,1.1,9.4,69,0.00,,---,0.00,VWS V14.01,2013-03-15 06:04:00,
2013-03-15 02:05:00,57.0,46.9,30.27,NW,319,1.1,9.4,69,0.00,,---,0.00,VWS V14.01,2013-03-15 06:05:00,
2013-03-15 02:06:00,57.0,46.7,30.27,North,359,3.4,9.4,68,0.00,,---,0.00,VWS V14.01,2013-03-15 06:06:00,
2013-03-15 02:07:00,57.0,46.6,30.27,NNW,347,4.2,9.4,68,0.00,,---,0.00,VWS V14.01,2013-03-15 06:07:00,
2013-03-15 02:08:00,57.1,46.8,30.27,NE,51,2.4,9.4,68,0.00,,---,0.00,VWS V14.01,2013-03-15 06:08:00,
2013-03-15 02:09:00,57.0,46.5,30.27,NNE,30,2.5,9.4,68,0.00,,---,0.00,VWS V14.01,2013-03-15 06:09:00,
2013-03-15 02:10:00,57.0,46.6,30.28,NNW,342,1.7,9.4,68,0.00,,---,0.00,VWS V14.01,2013-03-15 06:10:00,
2013-03-15 02:11:00,57.0,46.5,30.27,NNW,347,3.0,9.4,68,0.00,,---,0.00,VWS V14.01,2013-03-15 06:11:00,
2013-03-15 02:12:00,57.1,46.5,30.27,North,3,0.0,9.4,68,0.00,,---,0.00,VWS V14.01,2013-03-15 06:12:00,
2013-03-15 02:13:00,57.0,46.4,30.27,NNW,338,6.6,9.4,68,0.00,,---,0.00,VWS V14.01,2013-03-15 06:13:00,
2013-03-15 02:14:00,57.0,46.2,30.27,NNE,17,2.4,9.4,67,0.00,,---,0.00,VWS V14.01,2013-03-15 06:14:00,
2013-03-15 02:15:00,57.1,46.2,30.27,NNW,339,3.1,9.4,67,0.00,,---,0.00,VWS V14.01,2013-03-15 06:15:00,
2013-03-15 02:16:00,57.1,46.1,30.27,North,356,3.5,9.4,67,0.00,,---,0.00,VWS V14.01,2013-03-15 06:16:00,
2013-03-15 02:17:00,56.9,46.0,30.27,NNW,347,2.2,9.4,67,0.00,,---,0.00,VWS V14.01,2013-03-15 06:17:00,
2013-03-15 02:18:00,57.1,46.1,30.27,North,356,1.1,9.4,67,0.00,,---,0.00,VWS V14.01,2013-03-15 06:18:00,
2013-03-15 02:19:00,57.0,46.0,30.27,NNW,347,3.7,9.4,67,0.00,,---,0.00,VWS V14.01,2013-03-15 06:19:00,
2013-03-15 02:20:00,57.2,46.1,30.27,NW,312,1.0,9.4,66,0.00,,---,0.00,VWS V14.01,2013-03-15 06:20:00,
2013-03-15 02:21:00,57.1,45.8,30.27,North,4,4.0,9.4,66,0.00,,---,0.00,VWS V14.01,2013-03-15 06:21:00,
2013-03-15 02:22:00,57.0,45.8,30.27,North,7,3.0,9.4,66,0.00,,---,0.00,VWS V14.01,2013-03-15 06:22:00,
2013-03-15 02:23:00,57.1,45.9,30.27,North,352,2.7,9.4,66,0.00,,---,0.00,VWS V14.01,2013-03-15 06:23:00,
2013-03-15 02:24:00,57.1,45.9,30.27,NNW,335,2.7,9.4,66,0.00,,---,0.00,VWS V14.01,2013-03-15 06:24:00,
2013-03-15 02:25:00,57.2,45.8,30.27,North,356,1.1,9.4,66,0.00,,---,0.00,VWS V14.01,2013-03-15 06:25:00,
2013-03-15 02:26:00,57.2,46.0,30.27,North,350,1.6,9.4,66,0.00,,---,0.00,VWS V14.01,2013-03-15 06:26:00,
2013-03-15 02:27:00,57.1,45.7,30.27,NW,322,3.5,9.4,66,0.00,,---,0.00,VWS V14.01,2013-03-15 06:27:00,
2013-03-15 02:28:00,57.1,45.7,30.27,NE,37,1.6,9.4,66,0.00,,---,0.00,VWS V14.01,2013-03-15 06:28:00,
2013-03-15 02:29:00,57.1,45.8,30.27,North,349,1.8,9.4,66,0.00,,---,0.00,VWS V14.01,2013-03-15 06:29:00,
2013-03-15 02:30:00,57.2,45.8,30.27,West,278,2.7,9.4,66,0.00,,---,0.00,VWS V14.01,2013-03-15 06:30:00,
2013-03-15 02:31:00,57.0,45.6,30.27,NNE,14,3.4,9.4,66,0.00,,---,0.00,VWS V14.01,2013-03-15 06:31:00,
2013-03-15 02:32:00,57.1,45.7,30.27,NW,316,4.8,9.4,66,0.00,,---,0.00,VWS V14.01,2013-03-15 06:32:00,
2013-03-15 02:33:00,57.1,45.8,30.27,NNW,336,7.5,9.4,66,0.00,,---,0.00,VWS V14.01,2013-03-15 06:33:00,
2013-03-15 02:34:00,57.1,45.7,30.27,NW,312,2.7,9.4,66,0.00,,---,0.00,VWS V14.01,2013-03-15 06:34:00,
2013-03-15 02:35:00,57.1,45.7,30.27,NNW,342,3.0,9.4,66,0.00,,---,0.00,VWS V14.01,2013-03-15 06:35:00,
2013-03-15 02:36:00,57.0,45.6,30.27,North,349,3.5,9.4,66,0.00,,---,0.00,VWS V14.01,2013-03-15 06:36:00,
2013-03-15 02:37:00,57.2,45.8,30.27,North,350,3.1,9.4,66,0.00,,---,0.00,VWS V14.01,2013-03-15 06:37:00,
2013-03-15 02:38:00,57.0,45.7,30.27,NNW,342,3.3,9.4,66,0.00,,---,0.00,VWS V14.01,2013-03-15 06:38:00,
2013-03-15 02:39:00,57.0,45.7,30.27,North,356,2.4,9.4,66,0.00,,---,0.00,VWS V14.01,2013-03-15 06:39:00,
2013-03-15 02:40:00,57.1,45.8,30.27,North,350,1.8,9.4,66,0.00,,---,0.00,VWS V14.01,2013-03-15 06:40:00,
2013-03-15 02:41:00,57.1,45.8,30.27,NNW,347,3.8,9.4,66,0.00,,---,0.00,VWS V14.01,2013-03-15 06:41:00,
2013-03-15 02:42:00,57.1,45.9,30.27,NNW,343,4.0,9.4,66,0.00,,---,0.00,VWS V14.01,2013-03-15 06:42:00,
2013-03-15 02:43:00,57.0,45.7,30.27,NW,325,3.6,9.4,66,0.00,,---,0.00,VWS V14.01,2013-03-15 06:43:00,
2013-03-15 02:44:00,57.0,45.8,30.28,NW,323,3.2,9.4,66,0.00,,---,0.00,VWS V14.01,2013-03-15 06:44:00,
2013-03-15 02:45:00,57.0,45.8,30.28,North,350,2.7,9.4,66,0.00,,---,0.00,VWS V14.01,2013-03-15 06:45:00,
2013-03-15 02:46:00,57.0,45.8,30.28,NE,39,2.1,9.4,66,0.00,,---,0.00,VWS V14.01,2013-03-15 06:46:00,
2013-03-15 02:47:00,57.0,45.8,30.27,NNW,343,3.5,9.4,66,0.00,,---,0.00,VWS V14.01,2013-03-15 06:47:00,
2013-03-15 02:48:00,56.8,45.6,30.27,NNE,22,1.9,9.4,66,0.00,,---,0.00,VWS V14.01,2013-03-15 06:48:00,
2013-03-15 02:49:00,56.9,45.8,30.27,WNW,292,1.1,9.4,66,0.00,,---,0.00,VWS V14.01,2013-03-15 06:49:00,
2013-03-15 02:50:00,56.9,45.8,30.27,NNW,342,5.3,9.4,66,0.00,,---,0.00,VWS V14.01,2013-03-15 06:50:00,
2013-03-15 02:51:00,56.8,45.7,30.27,NNW,342,2.4,9.4,66,0.00,,---,0.00,VWS V14.01,2013-03-15 06:51:00,
2013-03-15 02:52:00,56.9,45.8,30.27,North,6,4.1,9.4,66,0.00,,---,0.00,VWS V14.01,2013-03-15 06:52:00,
2013-03-15 02:53:00,56.7,45.7,30.27,NNW,346,2.7,9.4,66,0.00,,---,0.00,VWS V14.01,2013-03-15 06:53:00,
2013-03-15 02:54:00,56.7,45.7,30.27,NW,325,3.4,9.4,67,0.00,,---,0.00,VWS V14.01,2013-03-15 06:54:00,
2013-03-15 02:55:00,56.7,45.8,30.27,NNW,346,1.6,9.4,67,0.00,,---,0.00,VWS V14.01,2013-03-15 06:55:00,
2013-03-15 02:56:00,56.8,45.9,30.27,NNE,32,3.8,9.4,67,0.00,,---,0.00,VWS V14.01,2013-03-15 06:56:00,
2013-03-15 02:57:00,56.6,45.7,30.27,NW,321,4.3,9.4,67,0.00,,---,0.00,VWS V14.01,2013-03-15 06:57:00,
2013-03-15 02:58:00,56.6,45.8,30.27,NE,52,3.6,9.4,67,0.00,,---,0.00,VWS V14.01,2013-03-15 06:58:00,
2013-03-15 02:59:00,56.6,45.9,30.27,NNW,343,4.8,9.4,67,0.00,,---,0.00,VWS V14.01,2013-03-15 06:59:00,
2013-03-15 03:00:00,56.7,46.0,30.27,NNW,342,6.2,9.4,67,0.00,,---,0.00,VWS V14.01,2013-03-15 07:00:00,
2013-03-15 03:01:00,56.6,45.9,30.27,NNW,347,0.9,9.4,67,0.00,,---,0.00,VWS V14.01,2013-03-15 07:01:00,
2013-03-15 03:02:00,56.6,45.9,30.27,NW,322,0.0,9.4,67,0.00,,---,0.00,VWS V14.01,2013-03-15 07:02:00,
2013-03-15 03:03:00,56.5,45.9,30.27,NNW,336,2.7,9.4,68,0.00,,---,0.00,VWS V14.01,2013-03-15 07:03:00,
2013-03-15 03:04:00,56.5,45.9,30.27,NNW,345,0.8,9.4,68,0.00,,---,0.00,VWS V14.01,2013-03-15 07:04:00,
2013-03-15 03:05:00,56.5,46.0,30.27,North,359,3.0,9.4,68,0.00,,---,0.00,VWS V14.01,2013-03-15 07:05:00,
2013-03-15 03:06:00,56.5,46.0,30.27,North,359,1.7,9.4,68,0.00,,---,0.00,VWS V14.01,2013-03-15 07:06:00,
2013-03-15 03:07:00,56.5,46.0,30.27,North,354,1.7,9.4,68,0.00,,---,0.00,VWS V14.01,2013-03-15 07:07:00,
2013-03-15 03:08:00,56.5,46.1,30.27,NNE,32,1.4,9.4,68,0.00,,---,0.00,VWS V14.01,2013-03-15 07:08:00,
2013-03-15 03:09:00,56.4,46.1,30.27,NE,48,3.9,9.4,68,0.00,,---,0.00,VWS V14.01,2013-03-15 07:09:00,
2013-03-15 03:10:00,56.5,46.2,30.27,NW,323,3.7,9.4,68,0.00,,---,0.00,VWS V14.01,2013-03-15 07:10:00,
2013-03-15 03:11:00,56.3,46.0,30.27,North,0,2.9,9.8,68,0.00,,---,0.00,VWS V14.01,2013-03-15 07:11:00,
2013-03-15 03:12:00,56.2,46.0,30.27,NW,316,2.9,9.8,68,0.00,,---,0.00,VWS V14.01,2013-03-15 07:12:00,
2013-03-15 03:13:00,56.1,46.0,30.27,WNW,301,3.5,9.8,69,0.00,,---,0.00,VWS V14.01,2013-03-15 07:13:00,
2013-03-15 03:14:00,56.2,46.0,30.27,NNW,342,1.7,9.8,69,0.00,,---,0.00,VWS V14.01,2013-03-15 07:14:00,
2013-03-15 03:15:00,56.2,46.1,30.27,North,357,2.0,9.8,69,0.00,,---,0.00,VWS V14.01,2013-03-15 07:15:00,
2013-03-15 03:16:00,56.2,46.1,30.27,North,349,5.0,9.8,69,0.00,,---,0.00,VWS V14.01,2013-03-15 07:16:00,
2013-03-15 03:17:00,56.0,45.9,30.27,East,90,1.4,9.8,69,0.00,,---,0.00,VWS V14.01,2013-03-15 07:17:00,
2013-03-15 03:18:00,56.0,45.9,30.27,NNW,340,2.0,9.8,69,0.00,,---,0.00,VWS V14.01,2013-03-15 07:18:00,
2013-03-15 03:19:00,55.9,45.8,30.27,NNE,17,2.8,9.8,69,0.00,,---,0.00,VWS V14.01,2013-03-15 07:19:00,
2013-03-15 03:20:00,56.1,46.0,30.27,NW,309,0.4,9.8,69,0.00,,---,0.00,VWS V14.01,2013-03-15 07:20:00,
2013-03-15 03:21:00,55.9,45.8,30.27,WNW,300,0.6,9.8,69,0.00,,---,0.00,VWS V14.01,2013-03-15 07:21:00,
2013-03-15 03:22:00,55.9,45.8,30.27,NNE,14,1.5,9.8,69,0.00,,---,0.00,VWS V14.01,2013-03-15 07:22:00,
2013-03-15 03:23:00,55.9,45.8,30.27,North,10,2.4,9.8,69,0.00,,---,0.00,VWS V14.01,2013-03-15 07:23:00,
2013-03-15 03:24:00,55.9,45.8,30.27,North,4,2.9,9.8,69,0.00,,---,0.00,VWS V14.01,2013-03-15 07:24:00,
2013-03-15 03:25:00,55.7,45.6,30.27,NNE,30,0.0,9.8,69,0.00,,---,0.00,VWS V14.01,2013-03-15 07:25:00,
2013-03-15 03:26:00,55.7,45.6,30.27,NNE,20,0.0,9.8,69,0.00,,---,0.00,VWS V14.01,2013-03-15 07:26:00,
2013-03-15 03:27:00,55.8,45.7,30.27,North,3,0.5,9.8,69,0.00,,---,0.00,VWS V14.01,2013-03-15 07:27:00,
2013-03-15 03:28:00,55.7,45.6,30.27,North,3,0.0,9.8,69,0.00,,---,0.00,VWS V14.01,2013-03-15 07:28:00,
2013-03-15 03:29:00,55.7,45.6,30.27,NW,314,3.6,9.8,69,0.00,,---,0.00,VWS V14.01,2013-03-15 07:29:00,
2013-03-15 03:30:00,55.7,45.6,30.27,NNW,335,0.9,9.8,69,0.00,,---,0.00,VWS V14.01,2013-03-15 07:30:00,
2013-03-15 03:31:00,55.6,45.5,30.27,NE,35,2.0,9.8,69,0.00,,---,0.00,VWS V14.01,2013-03-15 07:31:00,
2013-03-15 03:32:00,55.6,45.4,30.27,NNE,15,3.2,9.8,68,0.00,,---,0.00,VWS V14.01,2013-03-15 07:32:00,
2013-03-15 03:33:00,55.6,45.5,30.27,NW,311,0.6,9.8,69,0.00,,---,0.00,VWS V14.01,2013-03-15 07:33:00,
2013-03-15 03:34:00,55.6,45.5,30.27,NNW,336,1.5,9.8,69,0.00,,---,0.00,VWS V14.01,2013-03-15 07:34:00,
2013-03-15 03:35:00,55.7,45.5,30.27,NNW,340,2.8,9.8,69,0.00,,---,0.00,VWS V14.01,2013-03-15 07:35:00,
2013-03-15 03:36:00,55.6,45.5,30.27,NE,51,3.0,9.8,69,0.00,,---,0.00,VWS V14.01,2013-03-15 07:36:00,
2013-03-15 03:37:00,55.6,45.4,30.27,NNW,343,0.4,9.8,68,0.00,,---,0.00,VWS V14.01,2013-03-15 07:37:00,
2013-03-15 03:38:00,55.6,45.5,30.27,WNW,284,2.2,9.8,69,0.00,,---,0.00,VWS V14.01,2013-03-15 07:38:00,
2013-03-15 03:39:00,55.7,45.5,30.27,North,4,0.2,9.8,69,0.00,,---,0.00,VWS V14.01,2013-03-15 07:39:00,
2013-03-15 03:40:00,55.5,45.4,30.27,NW,318,1.2,9.8,69,0.00,,---,0.00,VWS V14.01,2013-03-15 07:40:00,
2013-03-15 03:41:00,55.6,45.5,30.27,NNE,30,2.1,9.8,69,0.00,,---,0.00,VWS V14.01,2013-03-15 07:41:00,
2013-03-15 03:42:00,55.6,45.5,30.27,NW,323,1.9,9.8,69,0.00,,---,0.00,VWS V14.01,2013-03-15 07:42:00,
2013-03-15 03:43:00,55.5,45.4,30.27,East,93,0.9,9.8,69,0.00,,---,0.00,VWS V14.01,2013-03-15 07:43:00,
2013-03-15 03:44:00,55.6,45.5,30.26,NNW,329,1.4,9.8,69,0.00,,---,0.00,VWS V14.01,2013-03-15 07:44:00,
2013-03-15 03:45:00,55.4,45.3,30.27,North,353,2.3,9.8,69,0.00,,---,0.00,VWS V14.01,2013-03-15 07:45:00,
2013-03-15 03:46:00,55.5,45.4,30.26,ESE,108,1.4,9.8,69,0.00,,---,0.00,VWS V14.01,2013-03-15 07:46:00,
2013-03-15 03:47:00,55.5,45.4,30.26,NNW,332,2.7,9.8,69,0.00,,---,0.00,VWS V14.01,2013-03-15 07:47:00,
2013-03-15 03:48:00,55.4,45.3,30.26,NNW,333,1.9,9.8,69,0.00,,---,0.00,VWS V14.01,2013-03-15 07:48:00,
2013-03-15 03:49:00,55.4,45.3,30.26,North,352,1.2,9.8,69,0.00,,---,0.00,VWS V14.01,2013-03-15 07:49:00,
2013-03-15 03:50:00,55.4,45.3,30.26,NNW,346,1.9,9.8,69,0.00,,---,0.00,VWS V14.01,2013-03-15 07:50:00,
2013-03-15 03:51:00,55.4,45.3,30.26,North,8,0.0,9.8,69,0.00,,---,0.00,VWS V14.01,2013-03-15 07:51:00,
2013-03-15 03:52:00,55.3,45.2,30.27,NW,316,0.6,9.8,69,0.00,,---,0.00,VWS V14.01,2013-03-15 07:52:00,
2013-03-15 03:53:00,55.4,45.3,30.27,NNW,336,1.4,9.8,69,0.00,,---,0.00,VWS V14.01,2013-03-15 07:53:00,
2013-03-15 03:54:00,55.3,45.2,30.27,NNE,15,1.2,9.8,69,0.00,,---,0.00,VWS V14.01,2013-03-15 07:54:00,
2013-03-15 03:55:00,55.3,45.2,30.27,North,350,1.2,9.8,69,0.00,,---,0.00,VWS V14.01,2013-03-15 07:55:00,
2013-03-15 03:56:00,55.3,45.2,30.27,NNW,332,0.8,9.8,69,0.00,,---,0.00,VWS V14.01,2013-03-15 07:56:00,
2013-03-15 03:57:00,55.3,45.2,30.27,North,3,0.0,9.8,69,0.00,,---,0.00,VWS V14.01,2013-03-15 07:57:00,
2013-03-15 03:58:00,55.2,45.1,30.26,NNE,18,0.8,9.8,69,0.00,,---,0.00,VWS V14.01,2013-03-15 07:58:00,
2013-03-15 03:59:00,55.4,45.3,30.27,NNE,25,1.1,9.8,69,0.00,,---,0.00,VWS V14.01,2013-03-15 07:59:00,
2013-03-15 04:00:00,55.1,45.0,30.27,NNE,32,0.0,9.8,69,0.00,,---,0.00,VWS V14.01,2013-03-15 08:00:00,
2013-03-15 04:01:00,55.3,45.2,30.27,NW,326,2.7,9.8,69,0.00,,---,0.00,VWS V14.01,2013-03-15 08:01:00,
2013-03-15 04:02:00,55.2,45.1,30.27,North,350,0.0,9.8,69,0.00,,---,0.00,VWS V14.01,2013-03-15 08:02:00,
2013-03-15 04:03:00,55.2,45.1,30.27,ENE,75,0.9,9.8,69,0.00,,---,0.00,VWS V14.01,2013-03-15 08:03:00,
2013-03-15 04:04:00,55.1,45.0,30.27,NW,316,0.0,9.8,69,0.00,,---,0.00,VWS V14.01,2013-03-15 08:04:00,
2013-03-15 04:05:00,55.1,45.0,30.27,NW,308,1.2,9.8,69,0.00,,---,0.00,VWS V14.01,2013-03-15 08:05:00,
2013-03-15 04:06:00,55.1,45.1,30.27,NW,312,1.7,9.8,69,0.00,,---,0.00,VWS V14.01,2013-03-15 08:06:00,
2013-03-15 04:07:00,55.0,45.0,30.27,NW,319,0.0,9.8,69,0.00,,---,0.00,VWS V14.01,2013-03-15 08:07:00,
2013-03-15 04:08:00,54.9,44.9,30.27,North,3,3.9,9.8,69,0.00,,---,0.00,VWS V14.01,2013-03-15 08:08:00,
2013-03-15 04:09:00,54.9,44.9,30.27,NNW,340,2.4,9.8,69,0.00,,---,0.00,VWS V14.01,2013-03-15 08:09:00,
2013-03-15 04:10:00,54.9,44.9,30.27,NNE,31,1.1,9.8,69,0.00,,---,0.00,VWS V14.01,2013-03-15 08:10:00,
2013-03-15 04:11:00,55.0,45.0,30.27,NNW,342,0.7,9.8,69,0.00,,---,0.00,VWS V14.01,2013-03-15 08:11:00,
2013-03-15 04:12:00,54.9,44.9,30.28,NNE,21,1.7,9.8,69,0.00,,---,0.00,VWS V14.01,2013-03-15 08:12:00,
2013-03-15 04:13:00,54.9,44.9,30.28,NW,309,1.1,9.8,69,0.00,,---,0.00,VWS V14.01,2013-03-15 08:13:00,
2013-03-15 04:14:00,54.9,44.9,30.28,North,3,0.5,9.8,69,0.00,,---,0.00,VWS V14.01,2013-03-15 08:14:00,
2013-03-15 04:15:00,54.8,44.8,30.27,North,1,2.0,9.8,69,0.00,,---,0.00,VWS V14.01,2013-03-15 08:15:00,
2013-03-15 04:16:00,54.9,44.9,30.27,North,353,1.4,9.8,69,0.00,,---,0.00,VWS V14.01,2013-03-15 08:16:00,
2013-03-15 04:17:00,54.9,44.9,30.27,NW,321,2.5,9.8,69,0.00,,---,0.00,VWS V14.01,2013-03-15 08:17:00,
2013-03-15 04:18:00,54.8,44.8,30.27,NNW,333,1.7,9.8,69,0.00,,---,0.00,VWS V14.01,2013-03-15 08:18:00,
2013-03-15 04:19:00,54.9,44.9,30.27,North,11,1.6,9.8,69,0.00,,---,0.00,VWS V14.01,2013-03-15 08:19:00,
2013-03-15 04:20:00,54.9,44.9,30.27,North,354,0.8,9.8,69,0.00,,---,0.00,VWS V14.01,2013-03-15 08:20:00,
2013-03-15 04:21:00,54.8,44.8,30.28,NNE,30,0.5,9.8,69,0.00,,---,0.00,VWS V14.01,2013-03-15 08:21:00,
2013-03-15 04:22:00,54.8,44.8,30.28,NE,55,2.9,9.8,69,0.00,,---,0.00,VWS V14.01,2013-03-15 08:22:00,
2013-03-15 04:23:00,54.8,44.8,30.28,NNW,330,2.4,9.8,69,0.00,,---,0.00,VWS V14.01,2013-03-15 08:23:00,
2013-03-15 04:24:00,54.8,44.8,30.28,NNW,342,4.0,9.8,69,0.00,,---,0.00,VWS V14.01,2013-03-15 08:24:00,
2013-03-15 04:25:00,54.9,44.9,30.28,WNW,297,3.1,9.8,69,0.00,,---,0.00,VWS V14.01,2013-03-15 08:25:00,
2013-03-15 04:26:00,54.9,44.9,30.28,NNW,338,0.0,9.8,69,0.00,,---,0.00,VWS V14.01,2013-03-15 08:26:00,
2013-03-15 04:27:00,54.8,44.8,30.28,NE,49,1.6,9.8,69,0.00,,---,0.00,VWS V14.01,2013-03-15 08:27:00,
2013-03-15 04:28:00,54.9,45.0,30.28,NNW,347,1.1,9.8,69,0.00,,---,0.00,VWS V14.01,2013-03-15 08:28:00,
2013-03-15 04:29:00,54.8,44.9,30.28,North,352,0.0,9.8,69,0.00,,---,0.00,VWS V14.01,2013-03-15 08:29:00,
2013-03-15 04:30:00,54.9,45.0,30.28,NE,41,4.0,9.8,69,0.00,,---,0.00,VWS V14.01,2013-03-15 08:30:00,
2013-03-15 04:31:00,54.9,45.0,30.28,NE,34,0.3,9.8,69,0.00,,---,0.00,VWS V14.01,2013-03-15 08:31:00,
2013-03-15 04:32:00,54.8,44.9,30.28,NE,41,1.0,9.8,69,0.00,,---,0.00,VWS V14.01,2013-03-15 08:32:00,
2013-03-15 04:33:00,54.9,45.0,30.28,NE,42,0.0,9.8,69,0.00,,---,0.00,VWS V14.01,2013-03-15 08:33:00,
2013-03-15 04:34:00,54.8,45.0,30.28,NW,321,1.1,9.8,69,0.00,,---,0.00,VWS V14.01,2013-03-15 08:34:00,
2013-03-15 04:35:00,54.8,45.0,30.28,NNE,15,1.4,9.8,69,0.00,,---,0.00,VWS V14.01,2013-03-15 08:35:00,
2013-03-15 04:36:00,54.9,45.1,30.28,North,10,3.2,9.8,70,0.00,,---,0.00,VWS V14.01,2013-03-15 08:36:00,
2013-03-15 04:37:00,54.8,45.0,30.28,NE,37,0.3,9.8,69,0.00,,---,0.00,VWS V14.01,2013-03-15 08:37:00,
2013-03-15 04:38:00,54.8,45.0,30.28,NNW,338,2.6,9.8,70,0.00,,---,0.00,VWS V14.01,2013-03-15 08:38:00,
2013-03-15 04:39:00,54.7,44.9,30.28,NE,39,0.9,9.8,70,0.00,,---,0.00,VWS V14.01,2013-03-15 08:39:00,
2013-03-15 04:40:00,54.7,44.9,30.28,North,0,3.8,9.8,70,0.00,,---,0.00,VWS V14.01,2013-03-15 08:40:00,
2013-03-15 04:41:00,54.7,45.0,30.28,North,7,0.0,9.8,70,0.00,,---,0.00,VWS V14.01,2013-03-15 08:41:00,
2013-03-15 04:42:00,54.6,44.9,30.28,North,359,3.9,9.8,70,0.00,,---,0.00,VWS V14.01,2013-03-15 08:42:00,
2013-03-15 04:43:00,54.6,44.9,30.28,WNW,283,1.7,9.8,70,0.00,,---,0.00,VWS V14.01,2013-03-15 08:43:00,
2013-03-15 04:44:00,54.8,45.1,30.28,ENE,63,1.6,9.8,70,0.00,,---,0.00,VWS V14.01,2013-03-15 08:44:00,
2013-03-15 04:45:00,54.6,45.0,30.28,NE,38,1.1,9.8,70,0.00,,---,0.00,VWS V14.01,2013-03-15 08:45:00,
2013-03-15 04:46:00,54.5,44.9,30.28,NE,42,2.7,9.8,70,0.00,,---,0.00,VWS V14.01,2013-03-15 08:46:00,
2013-03-15 04:47:00,54.6,45.0,30.28,North,8,1.7,9.8,70,0.00,,---,0.00,VWS V14.01,2013-03-15 08:47:00,
2013-03-15 04:48:00,54.6,45.0,30.28,ENE,62,1.1,9.8,70,0.00,,---,0.00,VWS V14.01,2013-03-15 08:48:00,
2013-03-15 04:49:00,54.6,45.0,30.28,NW,315,2.1,9.8,70,0.00,,---,0.00,VWS V14.01,2013-03-15 08:49:00,
2013-03-15 04:50:00,54.5,44.9,30.28,NNE,13,0.0,9.8,70,0.00,,---,0.00,VWS V14.01,2013-03-15 08:50:00,
2013-03-15 04:51:00,54.5,45.0,30.28,NNE,22,1.7,9.8,70,0.00,,---,0.00,VWS V14.01,2013-03-15 08:51:00,
2013-03-15 04:52:00,54.5,45.0,30.28,NNE,15,2.4,9.8,70,0.00,,---,0.00,VWS V14.01,2013-03-15 08:52:00,
2013-03-15 04:53:00,54.5,45.0,30.28,North,350,1.1,9.8,70,0.00,,---,0.00,VWS V14.01,2013-03-15 08:53:00,
2013-03-15 04:54:00,54.6,45.2,30.28,North,10,1.2,9.8,70,0.00,,---,0.00,VWS V14.01,2013-03-15 08:54:00,
2013-03-15 04:55:00,54.5,45.1,30.28,ENE,59,0.0,9.8,70,0.00,,---,0.00,VWS V14.01,2013-03-15 08:55:00,
2013-03-15 04:56:00,54.5,45.1,30.28,North,350,0.6,9.8,70,0.00,,---,0.00,VWS V14.01,2013-03-15 08:56:00,
2013-03-15 04:57:00,54.4,45.1,30.28,NW,305,1.6,9.8,71,0.00,,---,0.00,VWS V14.01,2013-03-15 08:57:00,
2013-03-15 04:58:00,54.4,45.1,30.28,NNW,342,1.6,9.8,71,0.00,,---,0.00,VWS V14.01,2013-03-15 08:58:00,
2013-03-15 04:59:00,54.3,45.0,30.28,NNE,22,0.0,9.8,71,0.00,,---,0.00,VWS V14.01,2013-03-15 08:59:00,
2013-03-15 05:00:00,54.4,45.2,30.28,NW,311,2.4,9.8,71,0.00,,---,0.00,VWS V14.01,2013-03-15 09:00:00,
2013-03-15 05:01:00,54.3,45.2,30.28,North,349,1.1,9.8,71,0.00,,---,0.00,VWS V14.01,2013-03-15 09:01:00,
2013-03-15 05:02:00,54.2,45.0,30.28,NNW,332,1.7,9.8,71,0.00,,---,0.00,VWS V14.01,2013-03-15 09:02:00,
2013-03-15 05:03:00,54.2,45.1,30.29,North,0,1.6,9.8,71,0.00,,---,0.00,VWS V14.01,2013-03-15 09:03:00,
2013-03-15 05:04:00,54.2,45.1,30.29,NNW,336,2.7,9.8,71,0.00,,---,0.00,VWS V14.01,2013-03-15 09:04:00,
2013-03-15 05:05:00,54.2,45.1,30.28,WNW,297,1.2,9.8,71,0.00,,---,0.00,VWS V14.01,2013-03-15 09:05:00,
2013-03-15 05:06:00,54.3,45.2,30.29,West,277,0.0,9.8,71,0.00,,---,0.00,VWS V14.01,2013-03-15 09:06:00,
2013-03-15 05:07:00,54.2,45.2,30.29,NNW,332,1.9,9.8,71,0.00,,---,0.00,VWS V14.01,2013-03-15 09:07:00,
2013-03-15 05:08:00,54.0,45.0,30.29,North,1,2.1,9.8,72,0.00,,---,0.00,VWS V14.01,2013-03-15 09:08:00,
2013-03-15 05:09:00,54.1,45.1,30.29,North,352,3.9,9.8,72,0.00,,---,0.00,VWS V14.01,2013-03-15 09:09:00,
2013-03-15 05:10:00,54.0,45.1,30.29,NNW,339,2.9,9.8,72,0.00,,---,0.00,VWS V14.01,2013-03-15 09:10:00,
2013-03-15 05:11:00,54.1,45.2,30.29,NNE,27,1.1,9.8,72,0.00,,---,0.00,VWS V14.01,2013-03-15 09:11:00,
2013-03-15 05:12:00,54.0,45.2,30.29,NE,35,1.2,9.8,72,0.00,,---,0.00,VWS V14.01,2013-03-15 09:12:00,
2013-03-15 05:13:00,54.0,45.2,30.29,North,356,2.3,9.8,72,0.00,,---,0.00,VWS V14.01,2013-03-15 09:13:00,
2013-03-15 05:14:00,54.0,45.2,30.29,NW,323,1.9,9.8,72,0.00,,---,0.00,VWS V14.01,2013-03-15 09:14:00,
2013-03-15 05:15:00,53.9,45.1,30.29,NNW,330,1.7,9.8,72,0.00,,---,0.00,VWS V14.01,2013-03-15 09:15:00,
2013-03-15 05:16:00,53.9,45.2,30.29,North,8,4.8,9.8,72,0.00,,---,0.00,VWS V14.01,2013-03-15 09:16:00,
2013-03-15 05:17:00,53.9,45.3,30.29,WNW,301,2.8,9.8,72,0.00,,---,0.00,VWS V14.01,2013-03-15 09:17:00,
2013-03-15 05:18:00,53.9,45.2,30.29,ESE,117,0.5,9.8,72,0.00,,---,0.00,VWS V14.01,2013-03-15 09:18:00,
2013-03-15 05:19:00,54.0,45.4,30.29,NNW,347,2.1,9.8,72,0.00,,---,0.00,VWS V14.01,2013-03-15 09:19:00,
2013-03-15 05:20:00,53.9,45.3,30.29,NNE,27,0.8,9.8,72,0.00,,---,0.00,VWS V14.01,2013-03-15 09:20:00,
2013-03-15 05:21:00,53.7,45.0,30.29,NNE,25,1.0,9.8,72,0.00,,---,0.00,VWS V14.01,2013-03-15 09:21:00,
2013-03-15 05:22:00,53.7,45.0,30.29,NNW,338,4.5,9.8,72,0.00,,---,0.00,VWS V14.01,2013-03-15 09:22:00,
2013-03-15 05:23:00,53.9,45.3,30.29,NW,315,1.1,9.8,72,0.00,,---,0.00,VWS V14.01,2013-03-15 09:23:00,
2013-03-15 05:24:00,53.9,45.3,30.30,NNW,333,0.3,9.8,72,0.00,,---,0.00,VWS V14.01,2013-03-15 09:24:00,
2013-03-15 05:25:00,53.8,45.2,30.30,NNE,30,4.1,9.8,73,0.00,,---,0.00,VWS V14.01,2013-03-15 09:25:00,
2013-03-15 05:26:00,53.9,45.4,30.29,NW,325,2.9,9.8,73,0.00,,---,0.00,VWS V14.01,2013-03-15 09:26:00,
2013-03-15 05:27:00,53.8,45.3,30.29,NNE,15,0.9,9.8,73,0.00,,---,0.00,VWS V14.01,2013-03-15 09:27:00,
2013-03-15 05:28:00,53.7,45.2,30.29,NNE,14,2.2,9.8,73,0.00,,---,0.00,VWS V14.01,2013-03-15 09:28:00,
2013-03-15 05:29:00,53.6,45.1,30.29,North,353,3.9,9.8,73,0.00,,---,0.00,VWS V14.01,2013-03-15 09:29:00,
2013-03-15 05:30:00,53.7,45.2,30.29,NE,38,0.0,9.8,73,0.00,,---,0.00,VWS V14.01,2013-03-15 09:30:00,
2013-03-15 05:31:00,53.6,45.2,30.29,NNW,333,1.9,9.8,73,0.00,,---,0.00,VWS V14.01,2013-03-15 09:31:00,
2013-03-15 05:32:00,53.7,45.3,30.29,NW,315,3.0,9.8,73,0.00,,---,0.00,VWS V14.01,2013-03-15 09:32:00,
2013-03-15 05:33:00,53.6,45.2,30.29,NW,312,1.6,9.8,73,0.00,,---,0.00,VWS V14.01,2013-03-15 09:33:00,
2013-03-15 05:34:00,53.5,45.1,30.29,North,359,5.2,9.8,73,0.00,,---,0.00,VWS V14.01,2013-03-15 09:34:00,
2013-03-15 05:35:00,53.5,45.1,30.30,NW,305,4.3,9.8,73,0.00,,---,0.00,VWS V14.01,2013-03-15 09:35:00,
2013-03-15 05:36:00,53.5,45.1,30.29,NNW,332,2.0,9.8,73,0.00,,---,0.00,VWS V14.01,2013-03-15 09:36:00,
2013-03-15 05:37:00,53.6,45.2,30.30,NNW,347,2.7,9.8,73,0.00,,---,0.00,VWS V14.01,2013-03-15 09:37:00,
2013-03-15 05:38:00,53.7,45.3,30.30,NNW,342,3.4,9.8,73,0.00,,---,0.00,VWS V14.01,2013-03-15 09:38:00,
2013-03-15 05:39:00,53.5,45.1,30.30,NNW,330,1.7,9.8,73,0.00,,---,0.00,VWS V14.01,2013-03-15 09:39:00,
2013-03-15 05:40:00,53.5,45.1,30.30,North,357,2.1,9.8,73,0.00,,---,0.00,VWS V14.01,2013-03-15 09:40:00,
2013-03-15 05:41:00,53.6,45.2,30.30,West,281,0.8,9.8,73,0.00,,---,0.00,VWS V14.01,2013-03-15 09:41:00,
2013-03-15 05:42:00,53.5,45.1,30.30,North,8,0.9,9.8,73,0.00,,---,0.00,VWS V14.01,2013-03-15 09:42:00,
2013-03-15 05:43:00,53.6,45.2,30.30,NNE,25,1.3,9.8,73,0.00,,---,0.00,VWS V14.01,2013-03-15 09:43:00,
2013-03-15 05:44:00,53.6,45.2,30.30,North,352,4.5,9.8,73,0.00,,---,0.00,VWS V14.01,2013-03-15 09:44:00,
2013-03-15 05:45:00,53.6,45.2,30.30,NNW,346,1.8,9.8,73,0.00,,---,0.00,VWS V14.01,2013-03-15 09:45:00,
2013-03-15 05:46:00,53.5,45.1,30.30,NNW,335,2.8,9.8,73,0.00,,---,0.00,VWS V14.01,2013-03-15 09:46:00,
2013-03-15 05:47:00,53.7,45.3,30.30,NE,46,2.7,9.8,73,0.00,,---,0.00,VWS V14.01,2013-03-15 09:47:00,
2013-03-15 05:48:00,53.5,45.1,30.30,NNE,28,2.5,9.8,73,0.00,,---,0.00,VWS V14.01,2013-03-15 09:48:00,
2013-03-15 05:49:00,53.7,45.3,30.30,NNE,31,1.3,9.8,73,0.00,,---,0.00,VWS V14.01,2013-03-15 09:49:00,
2013-03-15 05:50:00,53.6,45.3,30.30,NNW,345,4.5,9.8,73,0.00,,---,0.00,VWS V14.01,2013-03-15 09:50:00,
2013-03-15 05:51:00,53.6,45.2,30.30,NNW,336,0.0,9.8,73,0.00,,---,0.00,VWS V14.01,2013-03-15 09:51:00,
2013-03-15 05:52:00,53.6,45.2,30.30,NNW,333,2.8,9.8,73,0.00,,---,0.00,VWS V14.01,2013-03-15 09:52:00,
2013-03-15 05:53:00,53.6,45.2,30.30,NW,308,1.3,9.8,73,0.00,,---,0.00,VWS V14.01,2013-03-15 09:53:00,
2013-03-15 05:54:00,53.7,45.3,30.30,NNW,342,3.7,9.8,73,0.00,,---,0.00,VWS V14.01,2013-03-15 09:54:00,
2013-03-15 05:55:00,53.5,45.2,30.30,North,349,0.9,9.8,73,0.00,,---,0.00,VWS V14.01,2013-03-15 09:55:00,
2013-03-15 05:56:00,53.5,45.2,30.30,North,6,2.3,9.8,73,0.00,,---,0.00,VWS V14.01,2013-03-15 09:56:00,
2013-03-15 05:57:00,53.5,45.2,30.30,North,352,1.8,9.8,73,0.00,,---,0.00,VWS V14.01,2013-03-15 09:57:00,
2013-03-15 05:58:00,53.6,45.3,30.30,NNW,339,4.8,9.8,74,0.00,,---,0.00,VWS V14.01,2013-03-15 09:58:00,
2013-03-15 05:59:00,53.6,45.3,30.30,NE,34,3.2,9.8,74,0.00,,---,0.00,VWS V14.01,2013-03-15 09:59:00,
2013-03-15 06:00:00,53.5,45.2,30.30,North,354,0.9,9.8,74,0.00,,---,0.00,VWS V14.01,2013-03-15 10:00:00,
2013-03-15 06:01:00,53.4,45.2,30.30,NW,305,2.2,9.8,74,0.00,,---,0.00,VWS V14.01,2013-03-15 10:01:00,
2013-03-15 06:02:00,53.5,45.3,30.30,NW,321,1.5,9.8,74,0.00,,---,0.00,VWS V14.01,2013-03-15 10:02:00,
2013-03-15 06:03:00,53.5,45.3,30.30,NNW,339,1.3,9.8,74,0.00,,---,0.00,VWS V14.01,2013-03-15 10:03:00,
2013-03-15 06:04:00,53.5,45.3,30.30,NW,322,1.2,9.8,74,0.00,,---,0.00,VWS V14.01,2013-03-15 10:04:00,
2013-03-15 06:05:00,53.4,45.2,30.31,NE,34,1.0,9.8,74,0.00,,---,0.00,VWS V14.01,2013-03-15 10:05:00,
2013-03-15 06:06:00,53.4,45.2,30.30,West,269,0.7,9.8,74,0.00,,---,0.00,VWS V14.01,2013-03-15 10:06:00,
2013-03-15 06:07:00,53.3,45.1,30.30,NW,325,3.4,9.8,74,0.00,,---,0.00,VWS V14.01,2013-03-15 10:07:00,
2013-03-15 06:08:00,53.4,45.3,30.31,North,352,3.8,9.8,74,0.00,,---,0.00,VWS V14.01,2013-03-15 10:08:00,
2013-03-15 06:09:00,53.3,45.2,30.31,NNW,335,3.4,9.8,74,0.00,,---,0.00,VWS V14.01,2013-03-15 10:09:00,
2013-03-15 06:10:00,53.4,45.3,30.30,NNW,345,1.7,9.8,74,0.00,,---,0.00,VWS V14.01,2013-03-15 10:10:00,
2013-03-15 06:11:00,53.3,45.2,30.31,NNE,30,0.7,9.8,74,0.00,,---,0.00,VWS V14.01,2013-03-15 10:11:00,
2013-03-15 06:12:00,53.3,45.2,30.30,WSW,245,0.9,9.8,74,0.00,,---,0.00,VWS V14.01,2013-03-15 10:12:00,
2013-03-15 06:13:00,53.3,45.2,30.30,NW,315,3.8,9.8,74,0.00,,---,0.00,VWS V14.01,2013-03-15 10:13:00,
2013-03-15 06:14:00,53.4,45.3,30.31,North,352,1.7,9.8,74,0.00,,---,0.00,VWS V14.01,2013-03-15 10:14:00,
2013-03-15 06:15:00,53.3,45.2,30.31,NNE,18,0.2,9.8,74,0.00,,---,0.00,VWS V14.01,2013-03-15 10:15:00,
2013-03-15 06:16:00,53.4,45.3,30.31,NNE,18,0.0,9.8,74,0.00,,---,0.00,VWS V14.01,2013-03-15 10:16:00,
2013-03-15 06:17:00,53.3,45.2,30.30,NNE,18,0.0,9.8,74,0.00,,---,0.00,VWS V14.01,2013-03-15 10:17:00,
2013-03-15 06:18:00,53.2,45.2,30.31,NNE,20,0.7,9.8,74,0.00,,---,0.00,VWS V14.01,2013-03-15 10:18:00,
2013-03-15 06:19:00,53.4,45.4,30.31,NW,321,3.0,9.8,74,0.00,,---,0.00,VWS V14.01,2013-03-15 10:19:00,
2013-03-15 06:20:00,53.3,45.3,30.31,NW,312,2.1,9.8,74,0.00,,---,0.00,VWS V14.01,2013-03-15 10:20:00,
2013-03-15 06:21:00,53.3,45.3,30.31,NW,326,3.6,9.8,74,0.00,,---,0.00,VWS V14.01,2013-03-15 10:21:00,
2013-03-15 06:22:00,53.2,45.2,30.31,NW,311,1.4,9.8,74,0.00,,---,0.00,VWS V14.01,2013-03-15 10:22:00,
2013-03-15 06:23:00,53.2,45.2,30.31,WNW,300,0.0,9.8,74,0.00,,---,0.00,VWS V14.01,2013-03-15 10:23:00,
2013-03-15 06:24:00,53.3,45.3,30.31,NNW,328,1.1,9.8,74,0.00,,---,0.00,VWS V14.01,2013-03-15 10:24:00,
2013-03-15 06:25:00,53.3,45.3,30.31,NNW,340,0.0,9.8,74,0.00,,---,0.00,VWS V14.01,2013-03-15 10:25:00,
2013-03-15 06:26:00,53.2,45.2,30.31,NNE,13,1.1,9.8,74,0.00,,---,0.00,VWS V14.01,2013-03-15 10:26:00,
2013-03-15 06:27:00,53.2,45.2,30.31,North,352,1.7,9.8,74,0.00,,---,0.00,VWS V14.01,2013-03-15 10:27:00,
2013-03-15 06:28:00,53.1,45.2,30.31,North,357,0.3,9.8,74,0.00,,---,0.00,VWS V14.01,2013-03-15 10:28:00,
2013-03-15 06:29:00,53.2,45.2,30.31,North,1,3.5,9.8,74,0.00,,---,0.00,VWS V14.01,2013-03-15 10:29:00,
2013-03-15 06:30:00,53.0,45.1,30.31,NW,323,1.4,9.8,74,0.00,,---,0.00,VWS V14.01,2013-03-15 10:30:00,
2013-03-15 06:31:00,53.1,45.2,30.31,NNW,338,2.9,9.8,74,0.00,,---,0.00,VWS V14.01,2013-03-15 10:31:00,
2013-03-15 06:32:00,53.0,45.1,30.31,NNW,335,3.4,9.8,74,0.00,,---,0.00,VWS V14.01,2013-03-15 10:32:00,
2013-03-15 06:33:00,53.1,45.2,30.31,NNW,347,0.0,9.8,74,0.00,,---,0.00,VWS V14.01,2013-03-15 10:33:00,
2013-03-15 06:34:00,53.0,45.2,30.31,NE,42,0.5,9.8,75,0.00,,---,0.00,VWS V14.01,2013-03-15 10:34:00,
2013-03-15 06:35:00,53.0,45.1,30.31,North,357,1.7,9.8,74,0.00,,---,0.00,VWS V14.01,2013-03-15 10:35:00,
2013-03-15 06:36:00,53.0,45.2,30.31,NNW,329,0.5,9.8,75,0.00,,---,0.00,VWS V14.01,2013-03-15 10:36:00,
2013-03-15 06:37:00,52.9,45.0,30.31,NNW,335,0.0,9.8,74,0.00,,---,0.00,VWS V14.01,2013-03-15 10:37:00,
2013-03-15 06:38:00,52.9,45.1,30.31,NW,326,1.1,9.8,75,0.00,,---,0.00,VWS V14.01,2013-03-15 10:38:00,
2013-03-15 06:39:00,52.9,45.1,30.31,NNW,330,0.0,9.8,75,0.00,,---,0.00,VWS V14.01,2013-03-15 10:39:00,
2013-03-15 06:40:00,53.0,45.2,30.31,NW,319,1.6,9.8,75,0.00,,---,0.00,VWS V14.01,2013-03-15 10:40:00,
2013-03-15 06:41:00,52.9,45.1,30.31,North,0,1.9,9.8,75,0.00,,---,0.00,VWS V14.01,2013-03-15 10:41:00,
2013-03-15 06:42:00,53.0,45.2,30.31,NW,326,1.7,9.8,75,0.00,,---,0.00,VWS V14.01,2013-03-15 10:42:00,
2013-03-15 06:43:00,53.0,45.2,30.31,North,357,0.6,9.8,75,0.00,,---,0.00,VWS V14.01,2013-03-15 10:43:00,
2013-03-15 06:44:00,52.8,45.0,30.31,North,1,0.5,9.8,75,0.00,,---,0.00,VWS V14.01,2013-03-15 10:44:00,
2013-03-15 06:45:00,53.0,45.2,30.31,NW,305,1.8,9.8,75,0.00,,---,0.00,VWS V14.01,2013-03-15 10:45:00,
2013-03-15 06:46:00,52.9,45.1,30.31,NNW,340,0.0,9.8,75,0.00,,---,0.00,VWS V14.01,2013-03-15 10:46:00,
2013-03-15 06:47:00,52.9,45.1,30.31,NW,319,2.2,9.8,75,0.00,,---,0.00,VWS V14.01,2013-03-15 10:47:00,
2013-03-15 06:48:00,52.8,45.0,30.31,NNW,347,1.5,9.8,75,0.00,,---,0.00,VWS V14.01,2013-03-15 10:48:00,
2013-03-15 06:49:00,52.8,45.0,30.31,North,349,2.4,9.8,75,0.00,,---,0.00,VWS V14.01,2013-03-15 10:49:00,
2013-03-15 06:50:00,52.8,45.0,30.31,NW,304,0.0,9.8,75,0.00,,---,0.00,VWS V14.01,2013-03-15 10:50:00,
2013-03-15 06:51:00,52.8,45.0,30.31,NW,316,3.2,9.8,75,0.00,,---,0.00,VWS V14.01,2013-03-15 10:51:00,
2013-03-15 06:52:00,52.8,45.0,30.31,North,0,1.2,9.8,75,0.00,,---,0.00,VWS V14.01,2013-03-15 10:52:00,
2013-03-15 06:53:00,52.8,45.0,30.31,NW,305,3.4,9.8,75,0.00,,---,0.00,VWS V14.01,2013-03-15 10:53:00,
2013-03-15 06:54:00,52.8,45.0,30.31,North,359,3.4,9.8,75,0.00,,---,0.00,VWS V14.01,2013-03-15 10:54:00,
2013-03-15 06:55:00,52.8,45.0,30.31,NNW,339,0.7,9.8,75,0.00,,---,0.00,VWS V14.01,2013-03-15 10:55:00,
2013-03-15 06:56:00,52.9,45.1,30.31,North,353,1.6,9.8,75,0.00,,---,0.00,VWS V14.01,2013-03-15 10:56:00,
2013-03-15 06:57:00,52.9,45.1,30.31,North,359,0.9,9.8,75,0.00,,---,0.00,VWS V14.01,2013-03-15 10:57:00,
2013-03-15 06:58:00,52.8,45.0,30.31,NNW,339,1.6,9.8,75,0.00,,---,0.00,VWS V14.01,2013-03-15 10:58:00,
2013-03-15 06:59:00,52.8,45.0,30.31,NNW,332,2.3,9.8,75,0.00,,---,0.00,VWS V14.01,2013-03-15 10:59:00,
2013-03-15 07:00:00,53.0,45.2,30.31,NW,321,0.6,9.8,75,0.00,,---,0.00,VWS V14.01,2013-03-15 11:00:00,
2013-03-15 07:01:00,52.8,45.0,30.31,NNW,345,3.9,9.8,75,0.00,,---,0.00,VWS V14.01,2013-03-15 11:01:00,
2013-03-15 07:02:00,52.8,45.0,30.31,NNW,338,2.3,9.8,75,0.00,,---,0.00,VWS V14.01,2013-03-15 11:02:00,
2013-03-15 07:03:00,52.9,45.1,30.31,NNE,28,1.1,9.8,75,0.00,,---,0.00,VWS V14.01,2013-03-15 11:03:00,
2013-03-15 07:04:00,52.8,45.0,30.31,North,3,1.9,9.8,75,0.00,,---,0.00,VWS V14.01,2013-03-15 11:04:00,
2013-03-15 07:05:00,53.0,45.2,30.31,NNW,345,3.2,9.8,75,0.00,,---,0.00,VWS V14.01,2013-03-15 11:05:00,
2013-03-15 07:06:00,52.9,45.1,30.31,North,3,3.7,9.8,75,0.00,,---,0.00,VWS V14.01,2013-03-15 11:06:00,
2013-03-15 07:07:00,52.9,45.1,30.31,NNW,338,3.8,9.8,75,0.00,,---,0.00,VWS V14.01,2013-03-15 11:07:00,
2013-03-15 07:08:00,53.0,45.2,30.31,North,349,1.5,9.8,75,0.00,,---,0.00,VWS V14.01,2013-03-15 11:08:00,
2013-03-15 07:09:00,53.0,45.2,30.31,NW,319,2.2,9.8,75,0.00,,---,0.00,VWS V14.01,2013-03-15 11:09:00,
2013-03-15 07:10:00,53.0,45.2,30.31,North,359,3.0,9.8,75,0.00,,---,0.00,VWS V14.01,2013-03-15 11:10:00,
2013-03-15 07:11:00,52.9,45.1,30.31,North,3,4.3,9.8,75,0.00,,---,0.00,VWS V14.01,2013-03-15 11:11:00,
2013-03-15 07:12:00,53.0,45.2,30.31,WNW,283,2.7,9.8,75,0.00,,---,0.00,VWS V14.01,2013-03-15 11:12:00,
2013-03-15 07:13:00,52.8,45.1,30.31,NW,326,4.8,9.8,75,0.00,,---,0.00,VWS V14.01,2013-03-15 11:13:00,
2013-03-15 07:14:00,52.9,45.1,30.31,NNE,22,2.2,9.8,75,0.00,,---,0.00,VWS V14.01,2013-03-15 11:14:00,
2013-03-15 07:15:00,53.0,45.2,30.31,NNW,336,3.0,9.8,75,0.00,,---,0.00,VWS V14.01,2013-03-15 11:15:00,
2013-03-15 07:16:00,53.0,45.2,30.31,North,350,2.6,9.8,75,0.00,,---,0.00,VWS V14.01,2013-03-15 11:16:00,
2013-03-15 07:17:00,52.9,45.1,30.31,NW,305,3.7,9.8,75,0.00,,---,0.00,VWS V14.01,2013-03-15 11:17:00,
2013-03-15 07:18:00,53.1,45.3,30.31,NNW,336,3.5,9.8,75,0.00,,---,0.00,VWS V14.01,2013-03-15 11:18:00,
2013-03-15 07:19:00,53.0,45.2,30.31,West,281,3.3,9.8,75,0.00,,---,0.00,VWS V14.01,2013-03-15 11:19:00,
2013-03-15 07:20:00,53.0,45.1,30.31,NNW,330,3.7,9.8,74,0.00,,---,0.00,VWS V14.01,2013-03-15 11:20:00,
2013-03-15 07:21:00,53.0,45.2,30.31,NNW,342,7.0,9.8,75,0.00,,---,0.00,VWS V14.01,2013-03-15 11:21:00,
2013-03-15 07:22:00,52.9,45.0,30.31,North,353,2.9,9.8,74,0.00,,---,0.00,VWS V14.01,2013-03-15 11:22:00,
2013-03-15 07:23:00,52.9,45.0,30.31,NNW,329,3.2,9.8,74,0.00,,---,0.00,VWS V14.01,2013-03-15 11:23:00,
2013-03-15 07:24:00,53.1,45.3,30.31,North,359,3.8,9.8,75,0.00,,---,0.00,VWS V14.01,2013-03-15 11:24:00,
2013-03-15 07:25:00,53.0,45.1,30.31,North,359,3.7,9.8,74,0.00,,---,0.00,VWS V14.01,2013-03-15 11:25:00,
2013-03-15 07:26:00,53.0,45.1,30.31,NNW,347,2.4,9.8,74,0.00,,---,0.00,VWS V14.01,2013-03-15 11:26:00,
2013-03-15 07:27:00,53.1,45.2,30.32,North,349,3.5,9.8,74,0.00,,---,0.00,VWS V14.01,2013-03-15 11:27:00,
2013-03-15 07:28:00,53.0,45.1,30.32,WNW,301,2.5,9.8,74,0.00,,---,0.00,VWS V14.01,2013-03-15 11:28:00,
2013-03-15 07:29:00,53.1,45.2,30.31,North,0,2.1,9.8,74,0.00,,---,0.00,VWS V14.01,2013-03-15 11:29:00,
2013-03-15 07:30:00,53.1,45.2,30.31,North,8,0.9,9.8,74,0.00,,---,0.00,VWS V14.01,2013-03-15 11:30:00,
2013-03-15 07:31:00,53.1,45.2,30.32,North,359,3.0,9.8,74,0.00,,---,0.00,VWS V14.01,2013-03-15 11:31:00,
2013-03-15 07:32:00,53.1,45.1,30.32,NW,322,3.6,9.8,74,0.00,,---,0.00,VWS V14.01,2013-03-15 11:32:00,
2013-03-15 07:33:00,53.1,45.1,30.32,NW,315,5.5,9.8,74,0.00,,---,0.00,VWS V14.01,2013-03-15 11:33:00,
2013-03-15 07:34:00,53.1,45.1,30.32,NW,323,4.2,9.8,74,0.00,,---,0.00,VWS V14.01,2013-03-15 11:34:00,
2013-03-15 07:35:00,53.2,45.2,30.32,North,359,4.3,9.8,74,0.00,,---,0.00,VWS V14.01,2013-03-15 11:35:00,
2013-03-15 07:36:00,53.2,45.1,30.32,NNE,18,3.5,9.8,74,0.00,,---,0.00,VWS V14.01,2013-03-15 11:36:00,
2013-03-15 07:37:00,53.2,45.1,30.32,NNW,338,0.8,9.8,74,0.00,,---,0.00,VWS V14.01,2013-03-15 11:37:00,
2013-03-15 07:38:00,53.3,45.2,30.32,North,356,3.6,9.8,74,0.00,,---,0.00,VWS V14.01,2013-03-15 11:38:00,
2013-03-15 07:39:00,53.4,45.2,30.32,West,281,3.3,9.8,74,0.00,,---,0.00,VWS V14.01,2013-03-15 11:39:00,
2013-03-15 07:40:00,53.3,45.1,30.32,NW,326,1.2,9.8,74,0.00,,---,0.00,VWS V14.01,2013-03-15 11:40:00,
2013-03-15 07:41:00,53.4,45.3,30.32,NNW,343,3.9,9.8,74,0.00,,---,0.00,VWS V14.01,2013-03-15 11:41:00,
2013-03-15 07:42:00,53.3,45.1,30.32,NW,326,1.6,9.8,74,0.00,,---,0.00,VWS V14.01,2013-03-15 11:42:00,
2013-03-15 07:43:00,53.4,45.2,30.32,NW,316,5.9,9.8,74,0.00,,---,0.00,VWS V14.01,2013-03-15 11:43:00,
2013-03-15 07:44:00,53.4,44.9,30.32,NNW,346,2.2,9.8,73,0.00,,---,0.00,VWS V14.01,2013-03-15 11:44:00,
2013-03-15 07:45:00,53.3,44.8,30.32,North,356,3.5,9.8,73,0.00,,---,0.00,VWS V14.01,2013-03-15 11:45:00,
2013-03-15 07:46:00,53.5,44.9,30.32,NW,323,3.7,9.8,73,0.00,,---,0.00,VWS V14.01,2013-03-15 11:46:00,
2013-03-15 07:47:00,53.5,45.0,30.32,NNW,336,2.3,9.8,73,0.00,,---,0.00,VWS V14.01,2013-03-15 11:47:00,
2013-03-15 07:48:00,53.6,45.1,30.32,WNW,302,4.3,9.8,73,0.00,,---,0.00,VWS V14.01,2013-03-15 11:48:00,
2013-03-15 07:49:00,53.6,45.0,30.32,NNE,14,0.9,9.8,72,0.00,,---,0.00,VWS V14.01,2013-03-15 11:49:00,
2013-03-15 07:50:00,53.7,45.1,30.32,ENE,60,1.6,9.8,72,0.00,,---,0.00,VWS V14.01,2013-03-15 11:50:00,
2013-03-15 07:51:00,53.8,45.1,30.32,North,7,2.2,9.8,72,0.00,,---,0.00,VWS V14.01,2013-03-15 11:51:00,
2013-03-15 07:52:00,53.7,44.9,30.32,North,353,4.2,9.8,72,0.00,,---,0.00,VWS V14.01,2013-03-15 11:52:00,
2013-03-15 07:53:00,53.9,45.0,30.32,North,354,1.4,9.8,72,0.00,,---,0.00,VWS V14.01,2013-03-15 11:53:00,
2013-03-15 07:54:00,53.9,45.0,30.32,NW,308,2.8,9.8,72,0.00,,---,0.00,VWS V14.01,2013-03-15 11:54:00,
2013-03-15 07:55:00,54.1,45.2,30.32,WNW,287,1.1,9.8,72,0.00,,---,0.00,VWS V14.01,2013-03-15 11:55:00,
2013-03-15 07:56:00,54.1,45.0,30.32,NNW,329,3.8,9.8,71,0.00,,---,0.00,VWS V14.01,2013-03-15 11:56:00,
2013-03-15 07:57:00,54.2,44.9,30.32,NNW,346,2.4,9.8,71,0.00,,---,0.00,VWS V14.01,2013-03-15 11:57:00,
2013-03-15 07:58:00,54.1,44.9,30.32,NW,322,5.1,9.8,71,0.00,,---,0.00,VWS V14.01,2013-03-15 11:58:00,
2013-03-15 07:59:00,54.2,44.8,30.32,NW,322,6.5,9.8,70,0.00,,---,0.00,VWS V14.01,2013-03-15 11:59:00,
2013-03-15 08:00:00,54.4,45.0,30.32,North,359,4.5,9.8,70,0.00,,---,0.00,VWS V14.01,2013-03-15 12:00:00,
2013-03-15 08:01:00,54.3,44.6,30.32,NNW,335,4.2,9.8,70,0.00,,---,0.00,VWS V14.01,2013-03-15 12:01:00,
2013-03-15 08:02:00,54.3,44.8,30.32,NE,45,0.9,9.8,70,0.00,,---,0.00,VWS V14.01,2013-03-15 12:02:00,
2013-03-15 08:03:00,54.4,45.0,30.32,NNW,339,0.0,9.8,70,0.00,,---,0.00,VWS V14.01,2013-03-15 12:03:00,
2013-03-15 08:04:00,54.4,45.0,30.32,North,359,5.5,9.8,70,0.00,,---,0.00,VWS V14.01,2013-03-15 12:04:00,
2013-03-15 08:05:00,54.5,44.9,30.32,North,359,3.6,9.8,70,0.00,,---,0.00,VWS V14.01,2013-03-15 12:05:00,
2013-03-15 08:06:00,54.6,45.0,30.32,NW,325,0.5,9.8,70,0.00,,---,0.00,VWS V14.01,2013-03-15 12:06:00,
2013-03-15 08:07:00,54.8,45.2,30.32,NE,55,2.6,9.8,70,0.00,,---,0.00,VWS V14.01,2013-03-15 12:07:00,
2013-03-15 08:08:00,54.7,45.2,30.32,NNE,24,1.7,9.8,70,0.00,,---,0.00,VWS V14.01,2013-03-15 12:08:00,
2013-03-15 08:09:00,54.8,45.1,30.32,NNW,336,4.9,9.8,70,0.00,,---,0.00,VWS V14.01,2013-03-15 12:09:00,
2013-03-15 08:10:00,54.9,45.1,30.32,North,4,4.2,9.8,69,0.00,,---,0.00,VWS V14.01,2013-03-15 12:10:00,
2013-03-15 08:11:00,55.1,45.3,30.32,NNW,347,3.7,9.8,70,0.00,,---,0.00,VWS V14.01,2013-03-15 12:11:00,
2013-03-15 08:12:00,55.1,45.3,30.32,NE,52,1.7,9.8,69,0.00,,---,0.00,VWS V14.01,2013-03-15 12:12:00,
2013-03-15 08:13:00,55.1,45.0,30.32,NNE,13,3.8,9.8,69,0.00,,---,0.00,VWS V14.01,2013-03-15 12:13:00,
2013-03-15 08:14:00,55.1,45.0,30.32,NW,314,4.4,9.8,69,0.00,,---,0.00,VWS V14.01,2013-03-15 12:14:00,
2013-03-15 08:15:00,55.1,45.1,30.32,North,354,2.2,9.8,69,0.00,,---,0.00,VWS V14.01,2013-03-15 12:15:00,
2013-03-15 08:16:00,55.4,45.5,30.32,North,7,2.9,9.8,69,0.00,,---,0.00,VWS V14.01,2013-03-15 12:16:00,
2013-03-15 08:17:00,55.6,45.6,30.32,NNW,338,2.2,9.8,69,0.00,,---,0.00,VWS V14.01,2013-03-15 12:17:00,
2013-03-15 08:18:00,55.5,45.6,30.32,NNE,25,1.9,9.8,69,0.00,,---,0.00,VWS V14.01,2013-03-15 12:18:00,
2013-03-15 08:19:00,55.7,45.8,30.32,NNW,339,0.6,9.8,69,0.00,,---,0.00,VWS V14.01,2013-03-15 12:19:00,
2013-03-15 08:20:00,55.8,45.8,30.32,North,349,3.4,9.8,69,0.00,,---,0.00,VWS V14.01,2013-03-15 12:20:00,
2013-03-15 08:21:00,55.9,45.8,30.32,East,90,1.3,9.8,69,0.00,,---,0.00,VWS V14.01,2013-03-15 12:21:00,
2013-03-15 08:22:00,55.9,45.8,30.32,NNW,347,4.0,9.8,69,0.00,,---,0.00,VWS V14.01,2013-03-15 12:22:00,
2013-03-15 08:23:00,56.0,45.6,30.32,North,352,0.6,9.8,68,0.00,,---,0.00,VWS V14.01,2013-03-15 12:23:00,
2013-03-15 08:24:00,56.1,45.8,30.32,North,359,4.5,9.8,68,0.00,,---,0.00,VWS V14.01,2013-03-15 12:24:00,
2013-03-15 08:25:00,56.1,45.7,30.32,NNE,24,2.5,9.8,68,0.00,,---,0.00,VWS V14.01,2013-03-15 12:25:00,
2013-03-15 08:26:00,56.3,46.0,30.32,WNW,298,1.9,9.8,68,0.00,,---,0.00,VWS V14.01,2013-03-15 12:26:00,
2013-03-15 08:27:00,56.4,46.0,30.33,NW,309,3.0,9.8,68,0.00,,---,0.00,VWS V14.01,2013-03-15 12:27:00,
2013-03-15 08:28:00,56.4,45.8,30.32,NNW,329,3.9,9.8,68,0.00,,---,0.00,VWS V14.01,2013-03-15 12:28:00,
2013-03-15 08:29:00,56.6,45.8,30.32,NNW,339,5.0,9.8,67,0.00,,---,0.00,VWS V14.01,2013-03-15 12:29:00,
2013-03-15 08:30:00,56.7,46.0,30.33,NNW,346,6.3,9.8,67,0.00,,---,0.00,VWS V14.01,2013-03-15 12:30:00,
2013-03-15 08:31:00,56.8,46.0,30.33,North,6,1.1,9.8,67,0.00,,---,0.00,VWS V14.01,2013-03-15 12:31:00,
2013-03-15 08:32:00,56.9,46.3,30.33,NNW,347,0.4,9.8,68,0.00,,---,0.00,VWS V14.01,2013-03-15 12:32:00,
2013-03-15 08:33:00,56.9,46.2,30.33,NNE,27,3.0,9.8,67,0.00,,---,0.00,VWS V14.01,2013-03-15 12:33:00,
2013-03-15 08:34:00,57.0,46.2,30.33,NW,319,6.3,9.8,67,0.00,,---,0.00,VWS V14.01,2013-03-15 12:34:00,
2013-03-15 08:35:00,57.2,46.4,30.33,NNW,328,3.7,9.8,67,0.00,,---,0.00,VWS V14.01,2013-03-15 12:35:00,
2013-03-15 08:36:00,57.2,46.4,30.33,NNW,340,5.3,9.8,67,0.00,,---,0.00,VWS V14.01,2013-03-15 12:36:00,
2013-03-15 08:37:00,57.2,46.3,30.33,NNE,14,2.5,9.8,67,0.00,,---,0.00,VWS V14.01,2013-03-15 12:37:00,
2013-03-15 08:38:00,57.3,46.4,30.33,NNW,333,2.1,9.8,67,0.00,,---,0.00,VWS V14.01,2013-03-15 12:38:00,
2013-03-15 08:39:00,57.5,46.6,30.33,NW,322,1.5,9.8,67,0.00,,---,0.00,VWS V14.01,2013-03-15 12:39:00,
2013-03-15 08:40:00,57.6,46.6,30.33,NW,319,4.7,9.8,67,0.00,,---,0.00,VWS V14.01,2013-03-15 12:40:00,
2013-03-15 08:41:00,57.8,46.7,30.33,North,3,2.8,9.8,66,0.00,,---,0.00,VWS V14.01,2013-03-15 12:41:00,
2013-03-15 08:42:00,57.9,46.9,30.33,NNE,14,1.1,9.8,67,0.00,,---,0.00,VWS V14.01,2013-03-15 12:42:00,
2013-03-15 08:43:00,58.0,47.0,30.33,NW,321,6.2,10.1,67,0.00,,---,0.00,VWS V14.01,2013-03-15 12:43:00,
2013-03-15 08:44:00,58.1,46.7,30.33,NNW,333,5.2,10.1,66,0.00,,---,0.00,VWS V14.01,2013-03-15 12:44:00,
2013-03-15 08:45:00,58.2,46.7,30.33,NW,307,6.5,10.1,66,0.00,,---,0.00,VWS V14.01,2013-03-15 12:45:00,
2013-03-15 08:46:00,58.3,46.7,30.33,NNW,329,2.7,10.1,65,0.00,,---,0.00,VWS V14.01,2013-03-15 12:46:00,
2013-03-15 08:47:00,58.4,46.8,30.33,NNW,346,4.6,10.1,65,0.00,,---,0.00,VWS V14.01,2013-03-15 12:47:00,
2013-03-15 08:48:00,58.6,46.9,30.33,NNW,338,3.4,10.1,65,0.00,,---,0.00,VWS V14.01,2013-03-15 12:48:00,
2013-03-15 08:49:00,58.6,46.8,30.33,North,359,7.9,10.1,65,0.00,,---,0.00,VWS V14.01,2013-03-15 12:49:00,
2013-03-15 08:50:00,58.6,46.6,30.33,NNW,333,2.9,10.1,64,0.00,,---,0.00,VWS V14.01,2013-03-15 12:50:00,
2013-03-15 08:51:00,58.8,47.0,30.33,North,349,4.5,10.1,65,0.00,,---,0.00,VWS V14.01,2013-03-15 12:51:00,
2013-03-15 08:52:00,58.8,47.0,30.33,North,356,5.5,10.1,65,0.00,,---,0.00,VWS V14.01,2013-03-15 12:52:00,
2013-03-15 08:53:00,58.8,46.9,30.33,NNW,343,4.8,10.1,64,0.00,,---,0.00,VWS V14.01,2013-03-15 12:53:00,
2013-03-15 08:54:00,58.9,46.8,30.33,North,352,6.3,10.1,64,0.00,,---,0.00,VWS V14.01,2013-03-15 12:54:00,
2013-03-15 08:55:00,58.9,46.8,30.33,NNW,345,2.4,10.1,64,0.00,,---,0.00,VWS V14.01,2013-03-15 12:55:00,
2013-03-15 08:56:00,59.1,47.1,30.33,North,350,2.0,10.1,64,0.00,,---,0.00,VWS V14.01,2013-03-15 12:56:00,
2013-03-15 08:57:00,59.0,47.1,30.33,North,350,0.0,10.1,65,0.00,,---,0.00,VWS V14.01,2013-03-15 12:57:00,
2013-03-15 08:58:00,59.1,47.0,30.33,NNE,15,1.1,10.1,64,0.00,,---,0.00,VWS V14.01,2013-03-15 12:58:00,
2013-03-15 08:59:00,59.1,46.8,30.33,WNW,301,5.8,10.1,64,0.00,,---,0.00,VWS V14.01,2013-03-15 12:59:00,
2013-03-15 09:00:00,59.2,47.0,30.33,NNW,343,3.7,10.1,64,0.00,,---,0.00,VWS V14.01,2013-03-15 13:00:00,
2013-03-15 09:01:00,59.4,47.2,30.33,North,356,0.9,10.1,64,0.00,,---,0.00,VWS V14.01,2013-03-15 13:01:00,
2013-03-15 09:02:00,59.4,47.2,30.33,NW,325,0.0,10.1,64,0.00,,---,0.00,VWS V14.01,2013-03-15 13:02:00,
2013-03-15 09:03:00,59.4,47.1,30.33,North,4,1.2,10.1,64,0.00,,---,0.00,VWS V14.01,2013-03-15 13:03:00,
2013-03-15 09:04:00,59.5,47.2,30.33,North,359,3.0,10.1,64,0.00,,---,0.00,VWS V14.01,2013-03-15 13:04:00,
2013-03-15 09:05:00,59.6,47.3,30.33,NW,319,3.2,10.1,64,0.00,,---,0.00,VWS V14.01,2013-03-15 13:05:00,
2013-03-15 09:06:00,59.8,47.4,30.33,North,357,0.0,10.1,63,0.00,,---,0.00,VWS V14.01,2013-03-15 13:06:00,
2013-03-15 09:07:00,60.0,47.5,30.33,NNW,330,3.8,10.1,63,0.00,,---,0.00,VWS V14.01,2013-03-15 13:07:00,
2013-03-15 09:08:00,59.9,47.3,30.33,North,352,1.6,10.1,63,0.00,,---,0.00,VWS V14.01,2013-03-15 13:08:00,
2013-03-15 09:09:00,60.1,47.3,30.33,NNE,22,0.7,10.1,63,0.00,,---,0.00,VWS V14.01,2013-03-15 13:09:00,
2013-03-15 09:10:00,60.0,47.3,30.33,NNW,330,2.5,10.1,63,0.00,,---,0.00,VWS V14.01,2013-03-15 13:10:00,
2013-03-15 09:11:00,60.1,47.4,30.33,WNW,300,0.7,10.1,63,0.00,,---,0.00,VWS V14.01,2013-03-15 13:11:00,
2013-03-15 09:12:00,60.1,47.2,30.33,North,359,3.5,10.1,62,0.00,,---,0.00,VWS V14.01,2013-03-15 13:12:00,
2013-03-15 09:13:00,60.3,47.5,30.33,NNW,346,0.0,10.1,63,0.00,,---,0.00,VWS V14.01,2013-03-15 13:13:00,
2013-03-15 09:14:00,60.3,47.7,30.33,NNW,338,0.0,10.1,63,0.00,,---,0.00,VWS V14.01,2013-03-15 13:14:00,
2013-03-15 09:15:00,60.5,47.7,30.33,NE,44,3.5,10.1,63,0.00,,---,0.00,VWS V14.01,2013-03-15 13:15:00,
2013-03-15 09:16:00,60.4,47.2,30.33,NNW,340,3.8,10.1,62,0.00,,---,0.00,VWS V14.01,2013-03-15 13:16:00,
2013-03-15 09:17:00,60.5,47.6,30.33,ENE,76,0.0,10.1,62,0.00,,---,0.00,VWS V14.01,2013-03-15 13:17:00,
2013-03-15 09:18:00,60.6,47.7,30.33,NNE,14,2.4,10.1,62,0.00,,---,0.00,VWS V14.01,2013-03-15 13:18:00,
2013-03-15 09:19:00,60.6,47.5,30.33,NW,319,5.0,10.1,62,0.00,,---,0.00,VWS V14.01,2013-03-15 13:19:00,
2013-03-15 09:20:00,60.8,47.7,30.33,NNW,328,8.6,10.1,62,0.00,,---,0.00,VWS V14.01,2013-03-15 13:20:00,
2013-03-15 09:21:00,60.7,47.5,30.33,NW,314,0.0,10.1,62,0.00,,---,0.00,VWS V14.01,2013-03-15 13:21:00,
2013-03-15 09:22:00,60.8,47.6,30.33,NW,314,0.0,10.1,62,0.00,,---,0.00,VWS V14.01,2013-03-15 13:22:00,
2013-03-15 09:23:00,61.2,48.2,30.33,NNW,338,3.2,10.1,62,0.00,,---,0.00,VWS V14.01,2013-03-15 13:23:00,
2013-03-15 09:24:00,61.0,47.9,30.33,NNW,345,1.6,10.1,62,0.00,,---,0.00,VWS V14.01,2013-03-15 13:24:00,
2013-03-15 09:25:00,61.2,48.0,30.33,NNE,18,0.0,10.1,62,0.00,,---,0.00,VWS V14.01,2013-03-15 13:25:00,
2013-03-15 09:26:00,61.2,48.0,30.33,NW,315,2.1,10.1,62,0.00,,---,0.00,VWS V14.01,2013-03-15 13:26:00,
2013-03-15 09:27:00,61.3,47.8,30.33,NNW,345,6.7,10.1,61,0.00,,---,0.00,VWS V14.01,2013-03-15 13:27:00,
2013-03-15 09:28:00,61.3,47.8,30.33,WNW,291,1.7,10.1,61,0.00,,---,0.00,VWS V14.01,2013-03-15 13:28:00,
2013-03-15 09:29:00,61.4,48.1,30.33,NW,309,5.8,10.1,62,0.00,,---,0.00,VWS V14.01,2013-03-15 13:29:00,
2013-03-15 09:30:00,61.4,48.1,30.33,North,359,1.1,10.1,62,0.00,,---,0.00,VWS V14.01,2013-03-15 13:30:00,
2013-03-15 09:31:00,61.4,47.9,30.33,NE,52,5.1,10.1,61,0.00,,---,0.00,VWS V14.01,2013-03-15 13:31:00,
2013-03-15 09:32:00,61.5,48.0,30.33,North,359,2.9,10.1,61,0.00,,---,0.00,VWS V14.01,2013-03-15 13:32:00,
2013-03-15 09:33:00,61.5,48.2,30.33,NNE,14,2.8,10.1,62,0.00,,---,0.00,VWS V14.01,2013-03-15 13:33:00,
2013-03-15 09:34:00,61.6,48.2,30.33,North,359,2.7,10.1,61,0.00,,---,0.00,VWS V14.01,2013-03-15 13:34:00,
2013-03-15 09:35:00,61.6,47.9,30.33,NW,322,3.4,10.1,61,0.00,,---,0.00,VWS V14.01,2013-03-15 13:35:00,
2013-03-15 09:36:00,61.8,48.4,30.33,NNW,347,0.0,10.1,61,0.00,,---,0.00,VWS V14.01,2013-03-15 13:36:00,
2013-03-15 09:37:00,61.9,48.5,30.33,NNW,336,0.0,10.1,61,0.00,,---,0.00,VWS V14.01,2013-03-15 13:37:00,
2013-03-15 09:38:00,62.1,48.7,30.33,NW,305,0.0,10.1,61,0.00,,---,0.00,VWS V14.01,2013-03-15 13:38:00,
2013-03-15 09:39:00,62.1,48.7,30.33,NW,305,0.0,10.1,62,0.00,,---,0.00,VWS V14.01,2013-03-15 13:39:00,
2013-03-15 09:40:00,62.4,49.0,30.33,NNE,25,3.7,10.1,62,0.00,,---,0.00,VWS V14.01,2013-03-15 13:40:00,
2013-03-15 09:41:00,62.6,49.0,30.33,West,280,0.5,10.1,61,0.00,,---,0.00,VWS V14.01,2013-03-15 13:41:00,
2013-03-15 09:42:00,62.6,48.9,30.33,NW,321,3.4,10.1,61,0.00,,---,0.00,VWS V14.01,2013-03-15 13:42:00,
2013-03-15 09:43:00,62.8,49.0,30.33,NW,325,5.7,10.1,61,0.00,,---,0.00,VWS V14.01,2013-03-15 13:43:00,
2013-03-15 09:44:00,62.7,48.6,30.33,NW,311,4.7,10.1,60,0.00,,---,0.00,VWS V14.01,2013-03-15 13:44:00,
2013-03-15 09:45:00,63.0,48.8,30.33,North,359,5.7,10.1,60,0.00,,---,0.00,VWS V14.01,2013-03-15 13:45:00,
2013-03-15 09:46:00,63.2,48.8,30.33,NNW,338,1.4,10.1,59,0.00,,---,0.00,VWS V14.01,2013-03-15 13:46:00,
2013-03-15 09:47:00,63.1,48.9,30.33,NNE,13,0.2,10.1,60,0.00,,---,0.00,VWS V14.01,2013-03-15 13:47:00,
2013-03-15 09:48:00,63.1,48.6,30.33,WNW,301,4.2,10.1,59,0.00,,---,0.00,VWS V14.01,2013-03-15 13:48:00,
2013-03-15 09:49:00,63.2,48.8,30.33,NNW,332,1.1,10.1,59,0.00,,---,0.00,VWS V14.01,2013-03-15 13:49:00,
2013-03-15 09:50:00,63.2,48.8,30.33,NNW,339,0.0,10.1,59,0.00,,---,0.00,VWS V14.01,2013-03-15 13:50:00,
2013-03-15 09:51:00,63.3,48.9,30.33,NNE,20,3.8,10.1,59,0.00,,---,0.00,VWS V14.01,2013-03-15 13:51:00,
2013-03-15 09:52:00,63.4,49.0,30.33,NNE,17,3.6,10.1,59,0.00,,---,0.00,VWS V14.01,2013-03-15 13:52:00,
2013-03-15 09:53:00,63.5,49.2,30.33,NE,56,3.5,10.1,60,0.00,,---,0.00,VWS V14.01,2013-03-15 13:53:00,
2013-03-15 09:54:00,63.6,49.3,30.33,NE,46,2.0,10.1,60,0.00,,---,0.00,VWS V14.01,2013-03-15 13:54:00,
2013-03-15 09:55:00,63.5,48.9,30.33,NNE,14,1.1,10.1,59,0.00,,---,0.00,VWS V14.01,2013-03-15 13:55:00,
2013-03-15 09:56:00,63.7,49.2,30.33,NNW,336,0.0,10.1,59,0.00,,---,0.00,VWS V14.01,2013-03-15 13:56:00,
2013-03-15 09:57:00,63.7,49.2,30.33,North,11,1.8,10.1,59,0.00,,---,0.00,VWS V14.01,2013-03-15 13:57:00,
2013-03-15 09:58:00,63.7,49.3,30.33,NE,51,0.0,10.1,59,0.00,,---,0.00,VWS V14.01,2013-03-15 13:58:00,
2013-03-15 09:59:00,63.9,49.5,30.33,NE,51,2.9,10.1,60,0.00,,---,0.00,VWS V14.01,2013-03-15 13:59:00,
2013-03-15 10:00:00,64.1,49.6,30.33,West,263,0.0,10.1,59,0.00,,---,0.00,VWS V14.01,2013-03-15 14:00:00,
2013-03-15 10:01:00,64.2,49.5,30.33,NW,326,1.3,10.1,59,0.00,,---,0.00,VWS V14.01,2013-03-15 14:01:00,
2013-03-15 10:02:00,64.3,49.5,30.33,North,4,4.7,10.1,59,0.00,,---,0.00,VWS V14.01,2013-03-15 14:02:00,
2013-03-15 10:03:00,64.3,49.2,30.33,North,356,1.1,10.1,58,0.00,,---,0.00,VWS V14.01,2013-03-15 14:03:00,
2013-03-15 10:04:00,64.2,49.2,30.33,North,11,2.5,10.1,58,0.00,,---,0.00,VWS V14.01,2013-03-15 14:04:00,
2013-03-15 10:05:00,64.6,49.6,30.33,North,359,5.2,10.1,58,0.00,,---,0.00,VWS V14.01,2013-03-15 14:05:00,
2013-03-15 10:06:00,64.7,49.5,30.33,WNW,302,2.7,10.1,58,0.00,,---,0.00,VWS V14.01,2013-03-15 14:06:00,
2013-03-15 10:07:00,64.5,49.3,30.33,NNW,346,1.5,10.1,58,0.00,,---,0.00,VWS V14.01,2013-03-15 14:07:00,
2013-03-15 10:08:00,64.6,49.2,30.33,East,82,5.6,10.1,57,0.00,,---,0.00,VWS V14.01,2013-03-15 14:08:00,
2013-03-15 10:09:00,64.8,49.6,30.33,North,4,2.9,10.1,58,0.00,,---,0.00,VWS V14.01,2013-03-15 14:09:00,
2013-03-15 10:10:00,64.8,49.4,30.33,NNE,31,0.8,10.1,57,0.00,,---,0.00,VWS V14.01,2013-03-15 14:10:00,
2013-03-15 10:11:00,64.8,49.7,30.33,ENE,69,2.3,10.1,58,0.00,,---,0.00,VWS V14.01,2013-03-15 14:11:00,
2013-03-15 10:12:00,64.8,49.6,30.33,East,93,4.6,10.1,58,0.00,,---,0.00,VWS V14.01,2013-03-15 14:12:00,
2013-03-15 10:13:00,64.9,49.5,30.33,NNE,27,4.1,10.1,58,0.00,,---,0.00,VWS V14.01,2013-03-15 14:13:00,
2013-03-15 10:14:00,65.1,50.0,30.33,ENE,66,4.2,10.1,58,0.00,,---,0.00,VWS V14.01,2013-03-15 14:14:00,
2013-03-15 10:15:00,65.2,50.0,30.33,NE,49,2.3,10.1,58,0.00,,---,0.00,VWS V14.01,2013-03-15 14:15:00,
2013-03-15 10:16:00,65.3,50.1,30.33,ENE,59,0.0,10.1,58,0.00,,---,0.00,VWS V14.01,2013-03-15 14:16:00,
2013-03-15 10:17:00,65.4,50.1,30.33,NW,326,4.0,10.1,58,0.00,,---,0.00,VWS V14.01,2013-03-15 14:17:00,
2013-03-15 10:18:00,65.5,50.1,30.33,ENE,77,3.5,10.1,58,0.00,,---,0.00,VWS V14.01,2013-03-15 14:18:00,
2013-03-15 10:19:00,65.7,50.3,30.33,NNE,22,0.8,10.1,58,0.00,,---,0.00,VWS V14.01,2013-03-15 14:19:00,
2013-03-15 10:20:00,65.9,50.5,30.33,North,0,0.0,10.1,58,0.00,,---,0.00,VWS V14.01,2013-03-15 14:20:00,
2013-03-15 10:21:00,66.1,50.6,30.33,North,0,0.8,10.1,57,0.00,,---,0.00,VWS V14.01,2013-03-15 14:21:00,
2013-03-15 10:22:00,66.0,50.2,30.33,North,4,3.5,10.1,57,0.00,,---,0.00,VWS V14.01,2013-03-15 14:22:00,
2013-03-15 10:23:00,66.1,50.0,30.33,East,98,4.5,10.1,56,0.00,,---,0.00,VWS V14.01,2013-03-15 14:23:00,
2013-03-15 10:24:00,66.4,50.7,30.33,ENE,66,0.7,10.1,57,0.00,,---,0.00,VWS V14.01,2013-03-15 14:24:00,
2013-03-15 10:25:00,66.2,50.2,30.33,ENE,59,3.4,10.1,56,0.00,,---,0.00,VWS V14.01,2013-03-15 14:25:00,
2013-03-15 10:26:00,66.3,49.9,30.33,SE,143,1.3,3.2,56,0.00,,---,0.00,VWS V14.01,2013-03-15 14:26:00,
2013-03-15 10:27:00,66.5,50.3,30.33,NE,49,2.8,7.1,56,0.00,,---,0.00,VWS V14.01,2013-03-15 14:27:00,
2013-03-15 10:28:00,66.4,50.1,30.33,NNW,347,0.0,9.8,56,0.00,,---,0.00,VWS V14.01,2013-03-15 14:28:00,
2013-03-15 10:29:00,66.4,50.0,30.33,North,359,0.4,9.8,55,0.00,,---,0.00,VWS V14.01,2013-03-15 14:29:00,
2013-03-15 10:30:00,66.6,50.3,30.33,NE,38,0.0,9.8,56,0.00,,---,0.00,VWS V14.01,2013-03-15 14:30:00,
2013-03-15 10:31:00,66.5,50.3,30.33,North,356,1.7,9.8,56,0.00,,---,0.00,VWS V14.01,2013-03-15 14:31:00,
2013-03-15 10:32:00,66.4,49.7,30.33,NE,51,1.9,9.8,55,0.00,,---,0.00,VWS V14.01,2013-03-15 14:32:00,
2013-03-15 10:33:00,66.4,50.0,30.33,ESE,105,4.7,9.8,56,0.00,,---,0.00,VWS V14.01,2013-03-15 14:33:00,
2013-03-15 10:34:00,66.5,49.9,30.33,East,90,6.7,12.1,55,0.00,,---,0.00,VWS V14.01,2013-03-15 14:34:00,
2013-03-15 10:35:00,66.4,49.9,30.33,ENE,75,0.0,12.1,55,0.00,,---,0.00,VWS V14.01,2013-03-15 14:35:00,
2013-03-15 10:36:00,66.5,50.2,30.33,North,359,4.0,12.1,56,0.00,,---,0.00,VWS V14.01,2013-03-15 14:36:00,
2013-03-15 10:37:00,66.7,50.0,30.33,SSE,156,2.3,12.1,55,0.00,,---,0.00,VWS V14.01,2013-03-15 14:37:00,
2013-03-15 10:38:00,66.7,50.2,30.33,North,350,2.9,12.1,55,0.00,,---,0.00,VWS V14.01,2013-03-15 14:38:00,
2013-03-15 10:39:00,66.8,50.4,30.33,North,6,2.2,12.1,56,0.00,,---,0.00,VWS V14.01,2013-03-15 14:39:00,
2013-03-15 10:40:00,66.7,50.1,30.33,NNW,347,3.2,12.1,55,0.00,,---,0.00,VWS V14.01,2013-03-15 14:40:00,
2013-03-15 10:41:00,66.6,49.7,30.33,NNW,347,7.4,12.1,54,0.00,,---,0.00,VWS V14.01,2013-03-15 14:41:00,
2013-03-15 10:42:00,66.7,49.9,30.33,ESE,122,0.0,12.1,55,0.00,,---,0.00,VWS V14.01,2013-03-15 14:42:00,
2013-03-15 10:43:00,66.7,50.2,30.33,NNE,18,3.8,12.1,55,0.00,,---,0.00,VWS V14.01,2013-03-15 14:43:00,
2013-03-15 10:44:00,66.8,50.7,30.33,NW,323,2.5,12.1,56,0.00,,---,0.00,VWS V14.01,2013-03-15 14:44:00,
2013-03-15 10:45:00,67.0,50.6,30.33,SSW,212,0.3,12.1,56,0.00,,---,0.00,VWS V14.01,2013-03-15 14:45:00,
2013-03-15 10:46:00,66.9,50.6,30.33,SE,128,1.2,12.1,56,0.00,,---,0.00,VWS V14.01,2013-03-15 14:46:00,
2013-03-15 10:47:00,67.2,50.9,30.33,NNE,28,0.6,12.1,56,0.00,,---,0.00,VWS V14.01,2013-03-15 14:47:00,
2013-03-15 10:48:00,67.1,50.6,30.33,ESE,110,5.7,12.1,55,0.00,,---,0.00,VWS V14.01,2013-03-15 14:48:00,
2013-03-15 10:49:00,67.4,50.5,30.33,West,276,3.2,12.1,55,0.00,,---,0.00,VWS V14.01,2013-03-15 14:49:00,
2013-03-15 10:50:00,67.4,50.4,30.33,ENE,59,4.1,12.1,54,0.00,,---,0.00,VWS V14.01,2013-03-15 14:50:00,
2013-03-15 10:51:00,67.8,51.0,30.33,NE,37,1.4,12.1,55,0.00,,---,0.00,VWS V14.01,2013-03-15 14:51:00,
2013-03-15 10:52:00,67.9,51.0,30.33,NE,44,0.9,12.1,55,0.00,,---,0.00,VWS V14.01,2013-03-15 14:52:00,
2013-03-15 10:53:00,68.1,50.9,30.33,North,3,0.0,12.1,54,0.00,,---,0.00,VWS V14.01,2013-03-15 14:53:00,
2013-03-15 10:54:00,67.9,50.3,30.33,North,359,5.4,12.1,53,0.00,,---,0.00,VWS V14.01,2013-03-15 14:54:00,
2013-03-15 10:55:00,67.9,50.0,30.33,NNW,338,0.7,12.1,53,0.00,,---,0.00,VWS V14.01,2013-03-15 14:55:00,
2013-03-15 10:56:00,67.8,49.8,30.33,NNW,340,1.0,12.1,52,0.00,,---,0.00,VWS V14.01,2013-03-15 14:56:00,
2013-03-15 10:57:00,67.9,50.2,30.33,NNW,340,1.2,12.1,53,0.00,,---,0.00,VWS V14.01,2013-03-15 14:57:00,
2013-03-15 10:58:00,67.9,50.4,30.33,North,353,4.2,12.1,54,0.00,,---,0.00,VWS V14.01,2013-03-15 14:58:00,
2013-03-15 10:59:00,67.9,50.5,30.33,North,350,5.7,12.1,54,0.00,,---,0.00,VWS V14.01,2013-03-15 14:59:00,
2013-03-15 11:00:00,68.0,50.7,30.33,ENE,75,4.2,12.1,54,0.00,,---,0.00,VWS V14.01,2013-03-15 15:00:00,
2013-03-15 11:01:00,68.0,50.7,30.33,NNW,333,3.4,12.1,54,0.00,,---,0.00,VWS V14.01,2013-03-15 15:01:00,
2013-03-15 11:02:00,67.9,50.8,30.33,South,172,1.0,12.1,54,0.00,,---,0.00,VWS V14.01,2013-03-15 15:02:00,
2013-03-15 11:03:00,68.2,50.9,30.33,NNE,22,0.0,12.1,54,0.00,,---,0.00,VWS V14.01,2013-03-15 15:03:00,
2013-03-15 11:04:00,68.2,50.7,30.33,ESE,103,0.8,12.1,54,0.00,,---,0.00,VWS V14.01,2013-03-15 15:04:00,
2013-03-15 11:05:00,68.1,50.2,30.33,North,359,4.5,12.1,53,0.00,,---,0.00,VWS V14.01,2013-03-15 15:05:00,
2013-03-15 11:06:00,68.3,49.9,30.33,NE,53,5.5,12.1,52,0.00,,---,0.00,VWS V14.01,2013-03-15 15:06:00,
2013-03-15 11:07:00,68.3,50.4,30.33,WSW,240,1.4,12.1,53,0.00,,---,0.00,VWS V14.01,2013-03-15 15:07:00,
2013-03-15 11:08:00,68.4,50.8,30.33,ENE,69,3.5,12.1,53,0.00,,---,0.00,VWS V14.01,2013-03-15 15:08:00,
2013-03-15 11:09:00,68.5,50.7,30.33,NNE,21,3.3,12.1,53,0.00,,---,0.00,VWS V14.01,2013-03-15 15:09:00,
2013-03-15 11:10:00,68.4,49.8,30.33,NE,39,7.9,12.1,51,0.00,,---,0.00,VWS V14.01,2013-03-15 15:10:00,
2013-03-15 11:11:00,68.3,49.9,30.33,East,82,5.9,12.1,52,0.00,,---,0.00,VWS V14.01,2013-03-15 15:11:00,
2013-03-15 11:12:00,68.2,49.9,30.33,ESE,118,6.0,12.1,52,0.00,,---,0.00,VWS V14.01,2013-03-15 15:12:00,
2013-03-15 11:13:00,68.2,50.6,30.33,SE,132,10.7,12.1,53,0.00,,---,0.00,VWS V14.01,2013-03-15 15:13:00,
2013-03-15 11:14:00,68.2,50.8,30.33,NW,307,4.7,12.1,54,0.00,,---,0.00,VWS V14.01,2013-03-15 15:14:00,
2013-03-15 11:15:00,68.3,50.5,30.33,North,3,4.0,12.1,53,0.00,,---,0.00,VWS V14.01,2013-03-15 15:15:00,
2013-03-15 11:16:00,68.1,50.3,30.33,North,359,5.0,12.1,53,0.00,,---,0.00,VWS V14.01,2013-03-15 15:16:00,
2013-03-15 11:17:00,68.2,50.5,30.33,NE,44,4.6,12.1,53,0.00,,---,0.00,VWS V14.01,2013-03-15 15:17:00,
2013-03-15 11:18:00,67.9,50.0,30.33,SE,124,9.8,12.1,53,0.00,,---,0.00,VWS V14.01,2013-03-15 15:18:00,
2013-03-15 11:19:00,68.1,50.5,30.33,SW,226,3.8,12.1,53,0.00,,---,0.00,VWS V14.01,2013-03-15 15:19:00,
2013-03-15 11:20:00,68.1,50.6,30.33,East,86,4.7,12.1,54,0.00,,---,0.00,VWS V14.01,2013-03-15 15:20:00,
2013-03-15 11:21:00,68.2,50.5,30.33,NE,41,0.0,12.1,53,0.00,,---,0.00,VWS V14.01,2013-03-15 15:21:00,
2013-03-15 11:22:00,68.2,50.6,30.33,NW,305,1.9,12.1,53,0.00,,---,0.00,VWS V14.01,2013-03-15 15:22:00,
2013-03-15 11:23:00,68.2,50.1,30.33,NE,46,1.7,12.1,52,0.00,,---,0.00,VWS V14.01,2013-03-15 15:23:00,
2013-03-15 11:24:00,68.1,50.6,30.33,NE,41,7.9,13.5,54,0.00,,---,0.00,VWS V14.01,2013-03-15 15:24:00,
2013-03-15 11:25:00,67.8,50.0,30.33,ESE,120,7.3,13.5,53,0.00,,---,0.00,VWS V14.01,2013-03-15 15:25:00,
2013-03-15 11:26:00,67.9,50.9,30.33,North,10,1.2,13.5,54,0.00,,---,0.00,VWS V14.01,2013-03-15 15:26:00,
2013-03-15 11:27:00,67.9,50.6,30.33,NNW,346,2.2,13.5,54,0.00,,---,0.00,VWS V14.01,2013-03-15 15:27:00,
2013-03-15 11:28:00,67.8,50.4,30.33,NNW,336,11.3,13.5,54,0.00,,---,0.00,VWS V14.01,2013-03-15 15:28:00,
2013-03-15 11:29:00,67.8,50.5,30.33,East,101,5.5,13.5,54,0.00,,---,0.00,VWS V14.01,2013-03-15 15:29:00,
2013-03-15 11:30:00,67.9,50.9,30.33,ESE,118,2.7,13.5,54,0.00,,---,0.00,VWS V14.01,2013-03-15 15:30:00,
2013-03-15 11:31:00,67.9,51.0,30.33,NNE,24,2.1,13.5,55,0.00,,---,0.00,VWS V14.01,2013-03-15 15:31:00,
2013-03-15 11:32:00,68.1,50.8,30.33,NE,37,0.9,13.5,54,0.00,,---,0.00,VWS V14.01,2013-03-15 15:32:00,
2013-03-15 11:33:00,68.2,50.9,30.33,ENE,70,4.9,13.5,54,0.00,,---,0.00,VWS V14.01,2013-03-15 15:33:00,
2013-03-15 11:34:00,68.3,51.0,30.33,NNW,329,1.6,13.5,54,0.00,,---,0.00,VWS V14.01,2013-03-15 15:34:00,
2013-03-15 11:35:00,68.3,51.0,30.33,SE,138,2.9,13.5,54,0.00,,---,0.00,VWS V14.01,2013-03-15 15:35:00,
2013-03-15 11:36:00,68.4,50.7,30.33,ENE,62,4.7,13.5,53,0.00,,---,0.00,VWS V14.01,2013-03-15 15:36:00,
2013-03-15 11:37:00,68.5,50.7,30.33,NNW,332,2.1,13.5,53,0.00,,---,0.00,VWS V14.01,2013-03-15 15:37:00,
2013-03-15 11:38:00,68.3,50.2,30.33,North,4,2.9,13.5,52,0.00,,---,0.00,VWS V14.01,2013-03-15 15:38:00,
2013-03-15 11:39:00,68.4,50.7,30.33,NNW,347,0.5,13.5,53,0.00,,---,0.00,VWS V14.01,2013-03-15 15:39:00,
2013-03-15 11:40:00,68.3,50.4,30.33,South,177,3.2,13.5,53,0.00,,---,0.00,VWS V14.01,2013-03-15 15:40:00,
2013-03-15 11:41:00,68.2,51.0,30.33,ENE,75,8.8,13.7,54,0.00,,---,0.00,VWS V14.01,2013-03-15 15:41:00,
2013-03-15 11:42:00,68.1,50.4,30.33,ENE,66,6.8,13.7,53,0.00,,---,0.00,VWS V14.01,2013-03-15 15:42:00,
2013-03-15 11:43:00,68.0,50.6,30.33,East,93,6.9,13.7,54,0.00,,---,0.00,VWS V14.01,2013-03-15 15:43:00,
2013-03-15 11:44:00,67.8,50.5,30.33,East,87,6.5,13.7,54,0.00,,---,0.00,VWS V14.01,2013-03-15 15:44:00,
2013-03-15 11:45:00,67.8,50.6,30.33,ENE,72,7.7,13.7,54,0.00,,---,0.00,VWS V14.01,2013-03-15 15:45:00,
2013-03-15 11:46:00,67.5,50.3,30.33,North,7,2.2,13.7,54,0.00,,---,0.00,VWS V14.01,2013-03-15 15:46:00,
2013-03-15 11:47:00,67.7,50.9,30.33,East,96,2.8,13.7,55,0.00,,---,0.00,VWS V14.01,2013-03-15 15:47:00,
2013-03-15 11:48:00,68.0,51.2,30.33,NW,315,10.3,13.7,55,0.00,,---,0.00,VWS V14.01,2013-03-15 15:48:00,
2013-03-15 11:49:00,68.0,50.5,30.33,East,96,5.8,13.7,54,0.00,,---,0.00,VWS V14.01,2013-03-15 15:49:00,
2013-03-15 11:50:00,68.1,51.0,30.33,ENE,69,5.9,13.7,54,0.00,,---,0.00,VWS V14.01,2013-03-15 15:50:00,
2013-03-15 11:51:00,68.1,50.5,30.33,North,11,2.1,13.7,53,0.00,,---,0.00,VWS V14.01,2013-03-15 15:51:00,
2013-03-15 11:52:00,68.2,50.5,30.33,East,79,6.5,13.7,53,0.00,,---,0.00,VWS V14.01,2013-03-15 15:52:00,
2013-03-15 11:53:00,68.1,50.5,30.33,WSW,250,2.2,13.7,53,0.00,,---,0.00,VWS V14.01,2013-03-15 15:53:00,
2013-03-15 11:54:00,68.3,50.6,30.32,North,356,2.9,13.7,53,0.00,,---,0.00,VWS V14.01,2013-03-15 15:54:00,
2013-03-15 11:55:00,68.4,51.0,30.33,North,4,2.5,13.7,54,0.00,,---,0.00,VWS V14.01,2013-03-15 15:55:00,
2013-03-15 11:56:00,68.5,51.0,30.33,NNE,20,2.5,13.7,54,0.00,,---,0.00,VWS V14.01,2013-03-15 15:56:00,
2013-03-15 11:57:00,68.7,51.0,30.33,ENE,69,4.3,13.7,53,0.00,,---,0.00,VWS V14.01,2013-03-15 15:57:00,
2013-03-15 11:58:00,68.7,50.7,30.33,NE,49,0.9,13.7,53,0.00,,---,0.00,VWS V14.01,2013-03-15 15:58:00,
2013-03-15 11:59:00,68.8,50.4,30.32,North,11,3.5,13.7,52,0.00,,---,0.00,VWS V14.01,2013-03-15 15:59:00,
2013-03-15 12:00:00,68.9,50.7,30.33,SE,134,5.2,13.7,52,0.00,,---,0.00,VWS V14.01,2013-03-15 16:00:00,
2013-03-15 12:01:00,69.0,50.7,30.32,North,6,1.7,13.7,52,0.00,,---,0.00,VWS V14.01,2013-03-15 16:01:00,
2013-03-15 12:02:00,69.0,51.0,30.32,East,79,3.8,13.7,53,0.00,,---,0.00,VWS V14.01,2013-03-15 16:02:00,
2013-03-15 12:03:00,69.3,51.1,30.33,SSE,159,3.9,13.7,52,0.00,,---,0.00,VWS V14.01,2013-03-15 16:03:00,
2013-03-15 12:04:00,69.2,50.3,30.33,East,79,10.3,13.7,51,0.00,,---,0.00,VWS V14.01,2013-03-15 16:04:00,
2013-03-15 12:05:00,69.3,50.7,30.33,SSE,166,6.8,13.7,52,0.00,,---,0.00,VWS V14.01,2013-03-15 16:05:00,
2013-03-15 12:06:00,69.2,50.2,30.32,East,90,6.3,13.7,51,0.00,,---,0.00,VWS V14.01,2013-03-15 16:06:00,
2013-03-15 12:07:00,69.3,50.6,30.32,ENE,58,1.9,13.7,51,0.00,,---,0.00,VWS V14.01,2013-03-15 16:07:00,
2013-03-15 12:08:00,69.5,50.9,30.32,ENE,76,2.4,13.7,52,0.00,,---,0.00,VWS V14.01,2013-03-15 16:08:00,
2013-03-15 12:09:00,69.4,50.8,30.32,WNW,288,1.7,13.7,52,0.00,,---,0.00,VWS V14.01,2013-03-15 16:09:00,
2013-03-15 12:10:00,69.5,50.3,30.33,North,3,3.8,13.7,50,0.00,,---,0.00,VWS V14.01,2013-03-15 16:10:00,
2013-03-15 12:11:00,69.2,50.1,30.32,East,97,3.4,13.7,51,0.00,,---,0.00,VWS V14.01,2013-03-15 16:11:00,
2013-03-15 12:12:00,69.3,50.6,30.32,NNW,345,4.9,13.7,51,0.00,,---,0.00,VWS V14.01,2013-03-15 16:12:00,
2013-03-15 12:13:00,69.1,51.0,30.32,North,7,1.3,13.7,52,0.00,,---,0.00,VWS V14.01,2013-03-15 16:13:00,
2013-03-15 12:14:00,69.2,50.4,30.32,ESE,107,7.5,13.7,51,0.00,,---,0.00,VWS V14.01,2013-03-15 16:14:00,
2013-03-15 12:15:00,69.2,51.0,30.32,NNW,332,2.5,13.7,52,0.00,,---,0.00,VWS V14.01,2013-03-15 16:15:00,
2013-03-15 12:16:00,69.4,51.2,30.32,ESE,120,0.8,13.7,52,0.00,,---,0.00,VWS V14.01,2013-03-15 16:16:00,
2013-03-15 12:17:00,69.5,51.1,30.32,East,98,6.3,13.7,52,0.00,,---,0.00,VWS V14.01,2013-03-15 16:17:00,
2013-03-15 12:18:00,69.4,50.3,30.32,NE,56,0.7,13.7,51,0.00,,---,0.00,VWS V14.01,2013-03-15 16:18:00,
2013-03-15 12:19:00,69.5,50.5,30.32,SE,125,3.9,13.7,51,0.00,,---,0.00,VWS V14.01,2013-03-15 16:19:00,
2013-03-15 12:20:00,69.5,51.1,30.32,ESE,112,6.0,13.7,52,0.00,,---,0.00,VWS V14.01,2013-03-15 16:20:00,
2013-03-15 12:21:00,69.5,50.9,30.32,ENE,77,4.3,13.7,52,0.00,,---,0.00,VWS V14.01,2013-03-15 16:21:00,
2013-03-15 12:22:00,69.4,50.0,30.32,East,91,7.6,13.7,50,0.00,,---,0.00,VWS V14.01,2013-03-15 16:22:00,
2013-03-15 12:23:00,69.4,50.8,30.32,ESE,120,7.4,13.7,52,0.00,,---,0.00,VWS V14.01,2013-03-15 16:23:00,
2013-03-15 12:24:00,69.3,50.5,30.32,East,84,6.7,13.7,51,0.00,,---,0.00,VWS V14.01,2013-03-15 16:24:00,
2013-03-15 12:25:00,69.1,50.5,30.32,SE,128,2.7,13.7,52,0.00,,---,0.00,VWS V14.01,2013-03-15 16:25:00,
2013-03-15 12:26:00,69.1,50.7,30.32,ESE,105,5.5,13.7,52,0.00,,---,0.00,VWS V14.01,2013-03-15 16:26:00,
2013-03-15 12:27:00,69.2,50.6,30.32,ESE,121,2.8,13.7,52,0.00,,---,0.00,VWS V14.01,2013-03-15 16:27:00,
2013-03-15 12:28:00,69.2,50.2,30.32,East,86,5.5,13.7,51,0.00,,---,0.00,VWS V14.01,2013-03-15 16:28:00,
2013-03-15 12:29:00,69.2,50.6,30.32,NE,44,1.9,13.7,52,0.00,,---,0.00,VWS V14.01,2013-03-15 16:29:00,
2013-03-15 12:30:00,69.2,50.5,30.32,NNE,28,3.0,13.7,51,0.00,,---,0.00,VWS V14.01,2013-03-15 16:30:00,
2013-03-15 12:31:00,69.4,50.7,30.32,NE,48,2.3,13.7,51,0.00,,---,0.00,VWS V14.01,2013-03-15 16:31:00,
2013-03-15 12:32:00,69.4,50.0,30.32,ENE,76,5.0,13.7,50,0.00,,---,0.00,VWS V14.01,2013-03-15 16:32:00,
2013-03-15 12:33:00,69.4,50.7,30.31,ESE,121,2.4,13.7,51,0.00,,---,0.00,VWS V14.01,2013-03-15 16:33:00,
2013-03-15 12:34:00,69.4,50.6,30.31,ESE,120,6.4,13.7,51,0.00,,---,0.00,VWS V14.01,2013-03-15 16:34:00,
2013-03-15 12:35:00,69.5,50.6,30.31,ESE,103,10.4,13.7,51,0.00,,---,0.00,VWS V14.01,2013-03-15 16:35:00,
2013-03-15 12:36:00,69.2,50.2,30.31,SE,136,6.6,13.7,51,0.00,,---,0.00,VWS V14.01,2013-03-15 16:36:00,
2013-03-15 12:37:00,69.3,50.2,30.31,East,98,5.0,13.7,50,0.00,,---,0.00,VWS V14.01,2013-03-15 16:37:00,
2013-03-15 12:38:00,69.2,50.5,30.31,SE,124,5.7,13.7,51,0.00,,---,0.00,VWS V14.01,2013-03-15 16:38:00,
2013-03-15 12:39:00,69.1,50.8,30.31,East,82,4.2,13.7,52,0.00,,---,0.00,VWS V14.01,2013-03-15 16:39:00,
2013-03-15 12:40:00,69.3,50.7,30.31,NE,35,5.8,13.7,52,0.00,,---,0.00,VWS V14.01,2013-03-15 16:40:00,
2013-03-15 12:41:00,69.4,50.9,30.31,SE,129,6.1,13.7,52,0.00,,---,0.00,VWS V14.01,2013-03-15 16:41:00,
2013-03-15 12:42:00,69.4,51.1,30.31,WSW,257,1.7,13.7,52,0.00,,---,0.00,VWS V14.01,2013-03-15 16:42:00,
2013-03-15 12:43:00,69.5,50.4,30.31,NE,34,6.2,13.7,51,0.00,,---,0.00,VWS V14.01,2013-03-15 16:43:00,
2013-03-15 12:44:00,69.6,50.7,30.31,SW,218,1.2,13.7,51,0.00,,---,0.00,VWS V14.01,2013-03-15 16:44:00,
2013-03-15 12:45:00,69.8,50.7,30.31,ENE,60,3.9,13.7,51,0.00,,---,0.00,VWS V14.01,2013-03-15 16:45:00,
2013-03-15 12:46:00,69.7,49.8,30.31,NE,35,6.0,13.7,49,0.00,,---,0.00,VWS V14.01,2013-03-15 16:46:00,
2013-03-15 12:47:00,69.7,50.0,30.31,North,359,6.3,13.7,50,0.00,,---,0.00,VWS V14.01,2013-03-15 16:47:00,
2013-03-15 12:48:00,69.8,50.2,30.31,SE,142,3.2,13.7,50,0.00,,---,0.00,VWS V14.01,2013-03-15 16:48:00,
2013-03-15 12:49:00,69.9,49.7,30.31,NE,55,9.2,13.7,49,0.00,,---,0.00,VWS V14.01,2013-03-15 16:49:00,
2013-03-15 12:50:00,69.9,50.2,30.31,NE,42,6.5,13.7,50,0.00,,---,0.00,VWS V14.01,2013-03-15 16:50:00,
2013-03-15 12:51:00,69.9,49.6,30.31,East,90,6.4,13.7,48,0.00,,---,0.00,VWS V14.01,2013-03-15 16:51:00,
2013-03-15 12:52:00,69.9,50.3,30.31,ESE,111,5.8,13.7,50,0.00,,---,0.00,VWS V14.01,2013-03-15 16:52:00,
2013-03-15 12:53:00,69.6,50.4,30.31,North,350,2.6,13.7,50,0.00,,---,0.00,VWS V14.01,2013-03-15 16:53:00,
2013-03-15 12:54:00,69.5,50.8,30.31,East,80,6.9,13.7,51,0.00,,---,0.00,VWS V14.01,2013-03-15 16:54:00,
2013-03-15 12:55:00,69.4,51.0,30.31,NNW,345,1.9,13.7,52,0.00,,---,0.00,VWS V14.01,2013-03-15 16:55:00,
2013-03-15 12:56:00,69.5,50.9,30.31,ESE,117,4.5,13.7,52,0.00,,---,0.00,VWS V14.01,2013-03-15 16:56:00,
2013-03-15 12:57:00,69.5,51.1,30.31,ENE,73,5.0,13.7,52,0.00,,---,0.00,VWS V14.01,2013-03-15 16:57:00,
2013-03-15 12:58:00,69.1,50.1,30.31,NE,38,8.0,13.7,51,0.00,,---,0.00,VWS V14.01,2013-03-15 16:58:00,
2013-03-15 12:59:00,69.3,50.6,30.31,SE,136,8.9,13.7,51,0.00,,---,0.00,VWS V14.01,2013-03-15 16:59:00,
2013-03-15 13:00:00,69.1,50.1,30.30,SSE,163,5.8,13.7,51,0.00,,---,0.00,VWS V14.01,2013-03-15 17:00:00,
2013-03-15 13:01:00,69.2,51.2,30.31,NE,52,0.6,13.7,53,0.00,,---,0.00,VWS V14.01,2013-03-15 17:01:00,
2013-03-15 13:02:00,69.4,51.4,30.30,ENE,66,2.5,13.7,53,0.00,,---,0.00,VWS V14.01,2013-03-15 17:02:00,
2013-03-15 13:03:00,69.3,50.9,30.31,East,91,7.2,13.7,52,0.00,,---,0.00,VWS V14.01,2013-03-15 17:03:00,
2013-03-15 13:04:00,69.5,51.0,30.30,ENE,75,3.4,13.7,52,0.00,,---,0.00,VWS V14.01,2013-03-15 17:04:00,
2013-03-15 13:05:00,69.4,50.9,30.30,ENE,66,3.5,13.7,52,0.00,,---,0.00,VWS V14.01,2013-03-15 17:05:00,
2013-03-15 13:06:00,69.7,51.1,30.30,SSE,165,3.7,13.7,52,0.00,,---,0.00,VWS V14.01,2013-03-15 17:06:00,
2013-03-15 13:07:00,70.0,51.3,30.30,ENE,65,2.9,13.7,52,0.00,,---,0.00,VWS V14.01,2013-03-15 17:07:00,
2013-03-15 13:08:00,70.1,50.7,30.30,ENE,60,2.5,13.7,50,0.00,,---,0.00,VWS V14.01,2013-03-15 17:08:00,
2013-03-15 13:09:00,69.8,49.8,30.30,ENE,62,8.9,13.7,49,0.00,,---,0.00,VWS V14.01,2013-03-15 17:09:00,
2013-03-15 13:10:00,69.9,51.1,30.30,North,359,2.5,13.7,51,0.00,,---,0.00,VWS V14.01,2013-03-15 17:10:00,
2013-03-15 13:11:00,69.8,51.1,30.29,East,87,9.2,13.7,51,0.00,,---,0.00,VWS V14.01,2013-03-15 17:11:00,
2013-03-15 13:12:00,69.9,50.4,30.30,ENE,63,4.3,13.7,50,0.00,,---,0.00,VWS V14.01,2013-03-15 17:12:00,
2013-03-15 13:13:00,70.2,50.9,30.30,NNE,31,5.3,13.7,50,0.00,,---,0.00,VWS V14.01,2013-03-15 17:13:00,
2013-03-15 13:14:00,70.0,51.1,30.30,SE,145,2.1,13.7,51,0.00,,---,0.00,VWS V14.01,2013-03-15 17:14:00,
2013-03-15 13:15:00,70.3,51.8,30.29,SE,127,3.9,13.7,52,0.00,,---,0.00,VWS V14.01,2013-03-15 17:15:00,
2013-03-15 13:16:00,70.5,51.1,30.29,East,87,5.7,13.7,50,0.00,,---,0.00,VWS V14.01,2013-03-15 17:16:00,
2013-03-15 13:17:00,70.4,50.8,30.29,SSE,159,7.2,13.7,50,0.00,,---,0.00,VWS V14.01,2013-03-15 17:17:00,
2013-03-15 13:18:00,70.1,50.5,30.29,SE,124,3.4,13.7,50,0.00,,---,0.00,VWS V14.01,2013-03-15 17:18:00,
2013-03-15 13:19:00,70.3,51.0,30.29,SE,139,9.2,14.4,50,0.00,,---,0.00,VWS V14.01,2013-03-15 17:19:00,
2013-03-15 13:20:00,70.1,50.9,30.29,SE,139,7.5,14.4,51,0.00,,---,0.00,VWS V14.01,2013-03-15 17:20:00,
2013-03-15 13:21:00,70.2,50.9,30.29,East,98,5.2,14.4,50,0.00,,---,0.00,VWS V14.01,2013-03-15 17:21:00,
2013-03-15 13:22:00,70.1,49.8,30.29,East,97,7.5,14.4,48,0.00,,---,0.00,VWS V14.01,2013-03-15 17:22:00,
2013-03-15 13:23:00,69.8,50.3,30.29,East,97,7.1,14.4,50,0.00,,---,0.00,VWS V14.01,2013-03-15 17:23:00,
2013-03-15 13:24:00,69.9,50.8,30.29,West,259,0.9,14.4,51,0.00,,---,0.00,VWS V14.01,2013-03-15 17:24:00,
2013-03-15 13:25:00,70.2,51.1,30.29,NNE,31,2.6,14.4,51,0.00,,---,0.00,VWS V14.01,2013-03-15 17:25:00,
2013-03-15 13:26:00,70.0,50.6,30.29,NW,321,5.0,14.4,50,0.00,,---,0.00,VWS V14.01,2013-03-15 17:26:00,
2013-03-15 13:27:00,69.9,50.9,30.28,East,80,4.7,14.4,51,0.00,,---,0.00,VWS V14.01,2013-03-15 17:27:00,
2013-03-15 13:28:00,70.3,51.3,30.28,North,352,1.7,14.4,51,0.00,,---,0.00,VWS V14.01,2013-03-15 17:28:00,
2013-03-15 13:29:00,70.3,50.9,30.28,NE,49,5.7,14.4,50,0.00,,---,0.00,VWS V14.01,2013-03-15 17:29:00,
2013-03-15 13:30:00,70.1,49.7,30.29,SE,124,7.1,14.4,48,0.00,,---,0.00,VWS V14.01,2013-03-15 17:30:00,
2013-03-15 13:31:00,69.7,50.9,30.28,SE,136,4.8,14.4,51,0.00,,---,0.00,VWS V14.01,2013-03-15 17:31:00,
2013-03-15 13:32:00,69.6,50.6,30.28,ENE,63,3.3,14.4,51,0.00,,---,0.00,VWS V14.01,2013-03-15 17:32:00,
2013-03-15 13:33:00,69.9,51.1,30.28,WNW,298,2.8,14.4,51,0.00,,---,0.00,VWS V14.01,2013-03-15 17:33:00,
2013-03-15 13:34:00,69.7,50.8,30.28,NE,45,2.9,14.4,51,0.00,,---,0.00,VWS V14.01,2013-03-15 17:34:00,
2013-03-15 13:35:00,69.8,50.5,30.28,East,93,7.3,14.4,50,0.00,,---,0.00,VWS V14.01,2013-03-15 17:35:00,
2013-03-15 13:36:00,69.5,50.0,30.28,ESE,122,5.8,14.4,50,0.00,,---,0.00,VWS V14.01,2013-03-15 17:36:00,
2013-03-15 13:37:00,69.4,50.3,30.28,ENE,70,5.1,14.4,51,0.00,,---,0.00,VWS V14.01,2013-03-15 17:37:00,
2013-03-15 13:38:00,69.6,50.5,30.28,SSE,149,7.5,14.4,51,0.00,,---,0.00,VWS V14.01,2013-03-15 17:38:00,
2013-03-15 13:39:00,69.4,49.9,30.28,ESE,104,4.7,14.4,50,0.00,,---,0.00,VWS V14.01,2013-03-15 17:39:00,
2013-03-15 13:40:00,69.4,50.7,30.28,East,80,2.2,14.4,51,0.00,,---,0.00,VWS V14.01,2013-03-15 17:40:00,
2013-03-15 13:41:00,69.4,50.6,30.28,North,359,7.0,14.4,51,0.00,,---,0.00,VWS V14.01,2013-03-15 17:41:00,
2013-03-15 13:42:00,69.3,50.8,30.28,East,83,9.9,14.4,52,0.00,,---,0.00,VWS V14.01,2013-03-15 17:42:00,
2013-03-15 13:43:00,69.1,50.5,30.28,NE,51,3.5,14.4,52,0.00,,---,0.00,VWS V14.01,2013-03-15 17:43:00,
2013-03-15 13:44:00,69.2,50.8,30.28,ENE,68,3.9,14.4,52,0.00,,---,0.00,VWS V14.01,2013-03-15 17:44:00,
2013-03-15 13:45:00,69.4,50.7,30.28,SE,146,3.2,14.4,51,0.00,,---,0.00,VWS V14.01,2013-03-15 17:45:00,
2013-03-15 13:46:00,69.5,50.7,30.28,NE,56,0.4,14.4,51,0.00,,---,0.00,VWS V14.01,2013-03-15 17:46:00,
2013-03-15 13:47:00,69.5,50.8,30.28,East,94,2.7,14.4,51,0.00,,---,0.00,VWS V14.01,2013-03-15 17:47:00,
2013-03-15 13:48:00,69.8,51.2,30.28,NNW,345,0.0,14.4,52,0.00,,---,0.00,VWS V14.01,2013-03-15 17:48:00,
2013-03-15 13:49:00,70.0,50.5,30.28,East,80,8.6,14.4,50,0.00,,---,0.00,VWS V14.01,2013-03-15 17:49:00,
2013-03-15 13:50:00,69.9,50.7,30.28,ENE,77,8.4,14.4,50,0.00,,---,0.00,VWS V14.01,2013-03-15 17:50:00,
2013-03-15 13:51:00,70.1,51.1,30.28,North,3,0.7,14.4,51,0.00,,---,0.00,VWS V14.01,2013-03-15 17:51:00,
2013-03-15 13:52:00,70.4,51.6,30.28,East,87,1.9,14.4,51,0.00,,---,0.00,VWS V14.01,2013-03-15 17:52:00,
2013-03-15 13:53:00,70.5,51.1,30.28,NNE,14,1.9,14.4,50,0.00,,---,0.00,VWS V14.01,2013-03-15 17:53:00,
2013-03-15 13:54:00,70.5,50.8,30.28,ENE,75,1.7,14.4,50,0.00,,---,0.00,VWS V14.01,2013-03-15 17:54:00,
2013-03-15 13:55:00,70.5,50.9,30.28,ENE,62,0.0,14.4,50,0.00,,---,0.00,VWS V14.01,2013-03-15 17:55:00,
2013-03-15 13:56:00,70.4,50.0,30.28,SSE,150,8.9,14.4,48,0.00,,---,0.00,VWS V14.01,2013-03-15 17:56:00,
2013-03-15 13:57:00,70.5,50.5,30.28,ESE,115,6.7,14.4,49,0.00,,---,0.00,VWS V14.01,2013-03-15 17:57:00,
2013-03-15 13:58:00,70.3,50.0,30.28,South,173,3.5,14.4,49,0.00,,---,0.00,VWS V14.01,2013-03-15 17:58:00,
2013-03-15 13:59:00,70.2,50.1,30.28,ESE,105,2.2,14.4,49,0.00,,---,0.00,VWS V14.01,2013-03-15 17:59:00,
2013-03-15 14:00:00,70.3,50.9,30.28,North,350,3.0,14.4,50,0.00,,---,0.00,VWS V14.01,2013-03-15 18:00:00,
2013-03-15 14:01:00,70.2,50.9,30.28,NNW,347,2.7,14.4,50,0.00,,---,0.00,VWS V14.01,2013-03-15 18:01:00,
2013-03-15 14:02:00,70.4,50.9,30.28,ESE,111,5.8,14.4,50,0.00,,---,0.00,VWS V14.01,2013-03-15 18:02:00,
2013-03-15 14:03:00,70.2,50.5,30.27,ENE,75,3.1,14.4,50,0.00,,---,0.00,VWS V14.01,2013-03-15 18:03:00,
2013-03-15 14:04:00,70.2,50.5,30.27,East,91,3.2,14.4,50,0.00,,---,0.00,VWS V14.01,2013-03-15 18:04:00,
2013-03-15 14:05:00,70.2,49.8,30.27,SSE,156,3.5,14.4,48,0.00,,---,0.00,VWS V14.01,2013-03-15 18:05:00,
2013-03-15 14:06:00,70.1,50.3,30.27,South,170,5.8,14.4,50,0.00,,---,0.00,VWS V14.01,2013-03-15 18:06:00,
2013-03-15 14:07:00,70.4,51.2,30.27,WSW,252,1.9,14.4,50,0.00,,---,0.00,VWS V14.01,2013-03-15 18:07:00,
2013-03-15 14:08:00,70.3,50.6,30.27,NE,51,4.5,14.4,50,0.00,,---,0.00,VWS V14.01,2013-03-15 18:08:00,
2013-03-15 14:09:00,70.3,50.6,30.27,ENE,73,1.0,14.4,50,0.00,,---,0.00,VWS V14.01,2013-03-15 18:09:00,
2013-03-15 14:10:00,70.3,50.8,30.27,SSE,163,2.9,14.4,50,0.00,,---,0.00,VWS V14.01,2013-03-15 18:10:00,
2013-03-15 14:11:00,70.4,51.1,30.27,NE,39,5.8,14.4,50,0.00,,---,0.00,VWS V14.01,2013-03-15 18:11:00,
2013-03-15 14:12:00,70.4,50.4,30.27,SE,125,6.0,14.4,49,0.00,,---,0.00,VWS V14.01,2013-03-15 18:12:00,
2013-03-15 14:13:00,70.2,50.2,30.27,East,86,7.1,14.4,49,0.00,,---,0.00,VWS V14.01,2013-03-15 18:13:00,
2013-03-15 14:14:00,70.3,50.4,30.27,SSE,152,11.7,14.4,49,0.00,,---,0.00,VWS V14.01,2013-03-15 18:14:00,
2013-03-15 14:15:00,69.9,49.9,30.27,SE,136,7.9,14.4,49,0.00,,---,0.00,VWS V14.01,2013-03-15 18:15:00,
2013-03-15 14:16:00,70.2,50.5,30.27,SE,143,6.0,14.4,50,0.00,,---,0.00,VWS V14.01,2013-03-15 18:16:00,
2013-03-15 14:17:00,70.0,50.6,30.27,East,96,11.9,14.4,50,0.00,,---,0.00,VWS V14.01,2013-03-15 18:17:00,
2013-03-15 14:18:00,69.6,50.4,30.27,SSE,159,6.3,14.4,50,0.00,,---,0.00,VWS V14.01,2013-03-15 18:18:00,
2013-03-15 14:19:00,69.8,50.4,30.27,ESE,114,7.3,14.4,50,0.00,,---,0.00,VWS V14.01,2013-03-15 18:19:00,
2013-03-15 14:20:00,69.9,50.7,30.27,East,84,2.6,14.4,50,0.00,,---,0.00,VWS V14.01,2013-03-15 18:20:00,
2013-03-15 14:21:00,70.0,50.3,30.27,ESE,114,3.8,14.4,50,0.00,,---,0.00,VWS V14.01,2013-03-15 18:21:00,
2013-03-15 14:22:00,69.8,50.1,30.27,ESE,121,4.0,14.4,50,0.00,,---,0.00,VWS V14.01,2013-03-15 18:22:00,
2013-03-15 14:23:00,69.9,50.4,30.27,ESE,122,3.3,14.4,50,0.00,,---,0.00,VWS V14.01,2013-03-15 18:23:00,
2013-03-15 14:24:00,69.9,50.8,30.27,ESE,115,5.5,14.4,51,0.00,,---,0.00,VWS V14.01,2013-03-15 18:24:00,
2013-03-15 14:25:00,70.0,51.0,30.27,ENE,68,3.2,14.4,51,0.00,,---,0.00,VWS V14.01,2013-03-15 18:25:00,
2013-03-15 14:26:00,70.3,51.1,30.27,SE,131,3.5,14.4,51,0.00,,---,0.00,VWS V14.01,2013-03-15 18:26:00,
2013-03-15 14:27:00,70.3,50.7,30.27,SSE,155,7.3,14.4,50,0.00,,---,0.00,VWS V14.01,2013-03-15 18:27:00,
2013-03-15 14:28:00,70.3,50.8,30.27,SE,135,4.2,14.4,50,0.00,,---,0.00,VWS V14.01,2013-03-15 18:28:00,
2013-03-15 14:29:00,70.5,50.9,30.27,NNE,30,3.5,14.4,50,0.00,,---,0.00,VWS V14.01,2013-03-15 18:29:00,
2013-03-15 14:30:00,70.6,50.7,30.27,East,93,10.3,14.4,49,0.00,,---,0.00,VWS V14.01,2013-03-15 18:30:00,
2013-03-15 14:31:00,70.2,50.2,30.27,ENE,69,7.0,14.4,49,0.00,,---,0.00,VWS V14.01,2013-03-15 18:31:00,
2013-03-15 14:32:00,70.2,50.8,30.27,ESE,110,3.7,14.4,50,0.00,,---,0.00,VWS V14.01,2013-03-15 18:32:00,
2013-03-15 14:33:00,70.2,50.9,30.27,SE,136,6.5,14.4,50,0.00,,---,0.00,VWS V14.01,2013-03-15 18:33:00,
2013-03-15 14:34:00,70.0,50.8,30.27,SE,138,4.9,14.4,50,0.00,,---,0.00,VWS V14.01,2013-03-15 18:34:00,
2013-03-15 14:35:00,69.8,50.7,30.27,ENE,66,4.2,14.4,51,0.00,,---,0.00,VWS V14.01,2013-03-15 18:35:00,
2013-03-15 14:36:00,69.4,50.5,30.27,East,96,4.2,14.4,51,0.00,,---,0.00,VWS V14.01,2013-03-15 18:36:00,
2013-03-15 14:37:00,69.5,51.1,30.27,East,98,4.7,14.4,52,0.00,,---,0.00,VWS V14.01,2013-03-15 18:37:00,
2013-03-15 14:38:00,69.4,51.0,30.27,ENE,70,3.4,14.4,52,0.00,,---,0.00,VWS V14.01,2013-03-15 18:38:00,
2013-03-15 14:39:00,69.5,51.1,30.27,NE,37,1.5,14.4,52,0.00,,---,0.00,VWS V14.01,2013-03-15 18:39:00,
2013-03-15 14:40:00,69.5,51.2,30.26,NE,39,0.0,14.4,52,0.00,,---,0.00,VWS V14.01,2013-03-15 18:40:00,
2013-03-15 14:41:00,69.5,51.3,30.26,ENE,66,3.2,14.4,52,0.00,,---,0.00,VWS V14.01,2013-03-15 18:41:00,
2013-03-15 14:42:00,69.7,50.8,30.26,North,359,0.0,14.4,51,0.00,,---,0.00,VWS V14.01,2013-03-15 18:42:00,
2013-03-15 14:43:00,69.6,50.7,30.26,SSE,153,7.1,14.4,51,0.00,,---,0.00,VWS V14.01,2013-03-15 18:43:00,
2013-03-15 14:44:00,69.7,50.6,30.27,East,94,5.1,14.4,51,0.00,,---,0.00,VWS V14.01,2013-03-15 18:44:00,
2013-03-15 14:45:00,69.5,50.7,30.27,SSE,150,3.7,14.4,51,0.00,,---,0.00,VWS V14.01,2013-03-15 18:45:00,
2013-03-15 14:46:00,69.6,50.6,30.26,NE,34,2.4,14.4,51,0.00,,---,0.00,VWS V14.01,2013-03-15 18:46:00,
2013-03-15 14:47:00,69.7,50.9,30.26,East,79,7.1,14.4,51,0.00,,---,0.00,VWS V14.01,2013-03-15 18:47:00,
2013-03-15 14:48:00,69.5,50.7,30.26,NE,51,1.6,14.4,51,0.00,,---,0.00,VWS V14.01,2013-03-15 18:48:00,
2013-03-15 14:49:00,69.8,51.1,30.26,NNW,347,4.4,14.4,52,0.00,,---,0.00,VWS V14.01,2013-03-15 18:49:00,
2013-03-15 14:50:00,69.7,51.2,30.26,SSE,158,4.6,14.4,52,0.00,,---,0.00,VWS V14.01,2013-03-15 18:50:00,
2013-03-15 14:51:00,70.0,51.4,30.26,ENE,75,7.0,14.4,52,0.00,,---,0.00,VWS V14.01,2013-03-15 18:51:00,
2013-03-15 14:52:00,70.0,51.2,30.26,ESE,105,4.5,14.4,51,0.00,,---,0.00,VWS V14.01,2013-03-15 18:52:00,
2013-03-15 14:53:00,70.2,50.7,30.26,ESE,121,5.2,14.4,50,0.00,,---,0.00,VWS V14.01,2013-03-15 18:53:00,
2013-03-15 14:54:00,70.0,50.8,30.26,East,82,6.6,14.4,51,0.00,,---,0.00,VWS V14.01,2013-03-15 18:54:00,
2013-03-15 14:55:00,69.6,50.6,30.26,ENE,76,13.2,14.4,51,0.00,,---,0.00,VWS V14.01,2013-03-15 18:55:00,
2013-03-15 14:56:00,69.6,50.7,30.26,SSE,159,4.3,14.4,51,0.00,,---,0.00,VWS V14.01,2013-03-15 18:56:00,
2013-03-15 14:57:00,69.7,51.0,30.26,East,98,5.5,14.4,51,0.00,,---,0.00,VWS V14.01,2013-03-15 18:57:00,
2013-03-15 14:58:00,69.4,50.7,30.26,North,350,0.9,14.4,51,0.00,,---,0.00,VWS V14.01,2013-03-15 18:58:00,
2013-03-15 14:59:00,69.4,50.6,30.26,North,359,4.3,14.4,51,0.00,,---,0.00,VWS V14.01,2013-03-15 18:59:00,
2013-03-15 15:00:00,69.5,51.2,30.26,NNE,15,3.4,14.4,52,0.00,,---,0.00,VWS V14.01,2013-03-15 19:00:00,
2013-03-15 15:01:00,69.7,51.4,30.26,ESE,117,3.7,14.4,52,0.00,,---,0.00,VWS V14.01,2013-03-15 19:01:00,
2013-03-15 15:02:00,69.7,51.3,30.26,NE,39,4.1,14.4,52,0.00,,---,0.00,VWS V14.01,2013-03-15 19:02:00,
2013-03-15 15:03:00,69.9,51.4,30.26,North,350,0.9,14.4,52,0.00,,---,0.00,VWS V14.01,2013-03-15 19:03:00,
2013-03-15 15:04:00,69.9,51.6,30.26,East,90,2.2,14.4,52,0.00,,---,0.00,VWS V14.01,2013-03-15 19:04:00,
2013-03-15 15:05:00,70.1,51.3,30.26,WNW,288,5.2,14.4,51,0.00,,---,0.00,VWS V14.01,2013-03-15 19:05:00,
2013-03-15 15:06:00,70.5,51.6,30.26,NNE,31,2.4,14.4,51,0.00,,---,0.00,VWS V14.01,2013-03-15 19:06:00,
2013-03-15 15:07:00,70.5,51.4,30.26,North,359,3.0,14.4,51,0.00,,---,0.00,VWS V14.01,2013-03-15 19:07:00,
2013-03-15 15:08:00,70.6,51.5,30.26,NNE,28,2.9,14.4,51,0.00,,---,0.00,VWS V14.01,2013-03-15 19:08:00,
2013-03-15 15:09:00,70.7,51.5,30.26,NE,53,0.0,14.4,51,0.00,,---,0.00,VWS V14.01,2013-03-15 19:09:00,
2013-03-15 15:10:00,70.7,51.3,30.26,North,3,4.2,14.4,50,0.00,,---,0.00,VWS V14.01,2013-03-15 19:10:00,
2013-03-15 15:11:00,70.8,51.0,30.26,SE,127,4.6,14.4,50,0.00,,---,0.00,VWS V14.01,2013-03-15 19:11:00,
2013-03-15 15:12:00,70.8,51.5,30.26,North,359,2.9,14.4,50,0.00,,---,0.00,VWS V14.01,2013-03-15 19:12:00,
2013-03-15 15:13:00,70.5,51.4,30.26,North,354,2.9,14.4,51,0.00,,---,0.00,VWS V14.01,2013-03-15 19:13:00,
2013-03-15 15:14:00,70.8,51.5,30.26,East,83,7.9,14.4,50,0.00,,---,0.00,VWS V14.01,2013-03-15 19:14:00,
2013-03-15 15:15:00,70.5,51.1,30.26,NE,38,3.8,14.4,50,0.00,,---,0.00,VWS V14.01,2013-03-15 19:15:00,
2013-03-15 15:16:00,70.5,51.4,30.26,North,352,0.7,14.4,51,0.00,,---,0.00,VWS V14.01,2013-03-15 19:16:00,
2013-03-15 15:17:00,70.5,51.4,30.25,NW,308,2.7,14.4,51,0.00,,---,0.00,VWS V14.01,2013-03-15 19:17:00,
2013-03-15 15:18:00,70.4,51.0,30.26,NE,41,1.1,14.4,50,0.00,,---,0.00,VWS V14.01,2013-03-15 19:18:00,
2013-03-15 15:19:00,70.3,50.9,30.25,NNE,30,6.5,14.4,50,0.00,,---,0.00,VWS V14.01,2013-03-15 19:19:00,
2013-03-15 15:20:00,70.3,51.1,30.25,NE,37,0.9,14.4,50,0.00,,---,0.00,VWS V14.01,2013-03-15 19:20:00,
2013-03-15 15:21:00,70.3,50.9,30.25,NNE,15,2.9,14.4,50,0.00,,---,0.00,VWS V14.01,2013-03-15 19:21:00,
2013-03-15 15:22:00,70.5,51.6,30.25,East,94,4.1,14.4,51,0.00,,---,0.00,VWS V14.01,2013-03-15 19:22:00,
2013-03-15 15:23:00,70.3,51.3,30.25,NNE,30,2.4,14.4,51,0.00,,---,0.00,VWS V14.01,2013-03-15 19:23:00,
2013-03-15 15:24:00,70.1,51.2,30.25,SE,127,4.7,14.4,51,0.00,,---,0.00,VWS V14.01,2013-03-15 19:24:00,
2013-03-15 15:25:00,70.1,51.4,30.25,ENE,73,4.2,14.4,51,0.00,,---,0.00,VWS V14.01,2013-03-15 19:25:00,
2013-03-15 15:26:00,70.2,51.2,30.25,East,84,4.9,14.4,51,0.00,,---,0.00,VWS V14.01,2013-03-15 19:26:00,
2013-03-15 15:27:00,70.0,51.1,30.25,ENE,75,4.2,14.4,51,0.00,,---,0.00,VWS V14.01,2013-03-15 19:27:00,
2013-03-15 15:28:00,69.9,51.4,30.25,SSE,152,8.6,14.4,52,0.00,,---,0.00,VWS V14.01,2013-03-15 19:28:00,
2013-03-15 15:29:00,69.9,51.4,30.25,ENE,62,6.1,14.4,52,0.00,,---,0.00,VWS V14.01,2013-03-15 19:29:00,
2013-03-15 15:30:00,69.7,50.9,30.25,East,80,3.2,14.4,51,0.00,,---,0.00,VWS V14.01,2013-03-15 19:30:00,
2013-03-15 15:31:00,69.7,51.1,30.25,SSE,153,7.9,14.4,52,0.00,,---,0.00,VWS V14.01,2013-03-15 19:31:00,
2013-03-15 15:32:00,69.5,51.1,30.25,ESE,105,6.0,14.4,52,0.00,,---,0.00,VWS V14.01,2013-03-15 19:32:00,
2013-03-15 15:33:00,69.4,50.9,30.25,ENE,62,4.3,14.4,52,0.00,,---,0.00,VWS V14.01,2013-03-15 19:33:00,
2013-03-15 15:34:00,69.2,51.0,30.25,ENE,73,5.5,14.4,52,0.00,,---,0.00,VWS V14.01,2013-03-15 19:34:00,
2013-03-15 15:35:00,69.1,51.4,30.25,NE,46,10.8,14.4,53,0.00,,---,0.00,VWS V14.01,2013-03-15 19:35:00,
2013-03-15 15:36:00,69.1,51.6,30.25,NE,52,8.5,14.4,54,0.00,,---,0.00,VWS V14.01,2013-03-15 19:36:00,
2013-03-15 15:37:00,69.0,51.3,30.25,ESE,108,7.0,14.4,53,0.00,,---,0.00,VWS V14.01,2013-03-15 19:37:00,
2013-03-15 15:38:00,68.9,51.1,30.25,NNE,15,1.7,14.4,53,0.00,,---,0.00,VWS V14.01,2013-03-15 19:38:00,
2013-03-15 15:39:00,69.2,51.4,30.25,ESE,115,3.3,14.4,53,0.00,,---,0.00,VWS V14.01,2013-03-15 19:39:00,
2013-03-15 15:40:00,69.3,51.5,30.25,SSE,152,6.7,14.4,53,0.00,,---,0.00,VWS V14.01,2013-03-15 19:40:00,
2013-03-15 15:41:00,69.5,51.6,30.25,NE,48,5.7,14.4,53,0.00,,---,0.00,VWS V14.01,2013-03-15 19:41:00,
2013-03-15 15:42:00,69.5,50.9,30.25,East,101,5.5,14.4,52,0.00,,---,0.00,VWS V14.01,2013-03-15 19:42:00,
2013-03-15 15:43:00,69.4,51.0,30.25,ENE,73,5.8,14.4,52,0.00,,---,0.00,VWS V14.01,2013-03-15 19:43:00,
2013-03-15 15:44:00,69.5,50.8,30.25,SSE,158,3.4,14.4,51,0.00,,---,0.00,VWS V14.01,2013-03-15 19:44:00,
2013-03-15 15:45:00,69.4,51.2,30.25,North,10,1.2,14.4,52,0.00,,---,0.00,VWS V14.01,2013-03-15 19:45:00,
2013-03-15 15:46:00,69.4,51.3,30.25,NE,38,5.1,14.4,53,0.00,,---,0.00,VWS V14.01,2013-03-15 19:46:00,
2013-03-15 15:47:00,69.7,51.3,30.25,South,176,6.0,14.4,52,0.00,,---,0.00,VWS V14.01,2013-03-15 19:47:00,
2013-03-15 15:48:00,69.5,50.8,30.25,East,93,3.4,14.4,51,0.00,,---,0.00,VWS V14.01,2013-03-15 19:48:00,
2013-03-15 15:49:00,69.6,51.4,30.25,East,87,4.5,14.4,52,0.00,,---,0.00,VWS V14.01,2013-03-15 19:49:00,
2013-03-15 15:50:00,69.5,51.0,30.25,East,84,2.9,14.4,52,0.00,,---,0.00,VWS V14.01,2013-03-15 19:50:00,
2013-03-15 15:51:00,69.4,51.3,30.25,NE,48,2.7,14.4,52,0.00,,---,0.00,VWS V14.01,2013-03-15 19:51:00,
2013-03-15 15:52:00,69.5,51.6,30.25,SE,132,6.8,14.4,53,0.00,,---,0.00,VWS V14.01,2013-03-15 19:52:00,
2013-03-15 15:53:00,69.4,51.3,30.25,NNE,18,0.0,14.4,53,0.00,,---,0.00,VWS V14.01,2013-03-15 19:53:00,
2013-03-15 15:54:00,69.7,51.6,30.25,NE,45,4.3,14.4,53,0.00,,---,0.00,VWS V14.01,2013-03-15 19:54:00,
2013-03-15 15:55:00,69.7,51.5,30.25,NW,325,2.7,14.4,52,0.00,,---,0.00,VWS V14.01,2013-03-15 19:55:00,
2013-03-15 15:56:00,69.9,51.1,30.25,NE,46,3.9,14.4,51,0.00,,---,0.00,VWS V14.01,2013-03-15 19:56:00,
2013-03-15 15:57:00,69.9,51.5,30.25,SE,129,3.2,14.4,52,0.00,,---,0.00,VWS V14.01,2013-03-15 19:57:00,
2013-03-15 15:58:00,69.9,51.7,30.25,SSE,153,6.9,14.4,52,0.00,,---,0.00,VWS V14.01,2013-03-15 19:58:00,
2013-03-15 15:59:00,70.0,51.8,30.25,SE,134,7.2,14.4,52,0.00,,---,0.00,VWS V14.01,2013-03-15 19:59:00,
2013-03-15 16:00:00,69.9,51.9,30.24,NE,41,1.3,14.4,53,0.00,,---,0.00,VWS V14.01,2013-03-15 20:00:00,
2013-03-15 16:01:00,70.0,52.0,30.25,NE,41,0.0,14.4,53,0.00,,---,0.00,VWS V14.01,2013-03-15 20:01:00,
2013-03-15 16:02:00,70.1,51.8,30.25,East,80,5.9,14.4,52,0.00,,---,0.00,VWS V14.01,2013-03-15 20:02:00,
2013-03-15 16:03:00,70.2,51.8,30.25,SE,127,4.7,14.4,52,0.00,,---,0.00,VWS V14.01,2013-03-15 20:03:00,
2013-03-15 16:04:00,70.4,52.3,30.25,SE,131,0.7,14.4,53,0.00,,---,0.00,VWS V14.01,2013-03-15 20:04:00,
2013-03-15 16:05:00,70.3,52.3,30.25,NW,322,2.8,14.4,53,0.00,,---,0.00,VWS V14.01,2013-03-15 20:05:00,
2013-03-15 16:06:00,70.3,51.9,30.25,NW,311,2.5,14.4,52,0.00,,---,0.00,VWS V14.01,2013-03-15 20:06:00,
2013-03-15 16:07:00,70.3,52.1,30.25,ESE,108,4.7,14.4,52,0.00,,---,0.00,VWS V14.01,2013-03-15 20:07:00,
2013-03-15 16:08:00,70.4,52.1,30.25,ESE,105,4.3,14.4,52,0.00,,---,0.00,VWS V14.01,2013-03-15 20:08:00,
2013-03-15 16:09:00,70.2,52.2,30.25,East,91,5.2,14.4,53,0.00,,---,0.00,VWS V14.01,2013-03-15 20:09:00,
2013-03-15 16:10:00,70.3,52.4,30.25,West,259,0.7,14.4,53,0.00,,---,0.00,VWS V14.01,2013-03-15 20:10:00,
2013-03-15 16:11:00,70.3,52.5,30.25,NNE,20,2.2,14.4,53,0.00,,---,0.00,VWS V14.01,2013-03-15 20:11:00,
2013-03-15 16:12:00,70.4,52.4,30.25,ESE,115,2.2,14.4,53,0.00,,---,0.00,VWS V14.01,2013-03-15 20:12:00,
2013-03-15 16:13:00,70.4,52.2,30.25,NNE,18,6.3,14.4,52,0.00,,---,0.00,VWS V14.01,2013-03-15 20:13:00,
2013-03-15 16:14:00,70.5,52.3,30.24,NE,34,2.9,14.4,52,0.00,,---,0.00,VWS V14.01,2013-03-15 20:14:00,
2013-03-15 16:15:00,70.3,52.4,30.24,NNE,13,5.9,14.4,53,0.00,,---,0.00,VWS V14.01,2013-03-15 20:15:00,
2013-03-15 16:16:00,70.3,52.3,30.24,North,3,2.7,14.4,53,0.00,,---,0.00,VWS V14.01,2013-03-15 20:16:00,
2013-03-15 16:17:00,70.3,52.3,30.25,NNE,18,3.1,14.4,53,0.00,,---,0.00,VWS V14.01,2013-03-15 20:17:00,
2013-03-15 16:18:00,70.3,52.5,30.25,NW,323,4.0,14.4,53,0.00,,---,0.00,VWS V14.01,2013-03-15 20:18:00,
2013-03-15 16:19:00,70.4,52.5,30.25,SW,217,1.7,14.4,53,0.00,,---,0.00,VWS V14.01,2013-03-15 20:19:00,
2013-03-15 16:20:00,70.2,51.7,30.25,ESE,104,6.6,14.4,52,0.00,,---,0.00,VWS V14.01,2013-03-15 20:20:00,
2013-03-15 16:21:00,70.2,52.2,30.25,NE,49,3.5,14.4,53,0.00,,---,0.00,VWS V14.01,2013-03-15 20:21:00,
2013-03-15 16:22:00,70.1,52.3,30.25,North,350,4.3,14.4,53,0.00,,---,0.00,VWS V14.01,2013-03-15 20:22:00,
2013-03-15 16:23:00,70.2,52.2,30.25,ESE,114,2.2,14.4,53,0.00,,---,0.00,VWS V14.01,2013-03-15 20:23:00,
2013-03-15 16:24:00,70.3,52.4,30.25,NNE,22,3.0,14.4,53,0.00,,---,0.00,VWS V14.01,2013-03-15 20:24:00,
2013-03-15 16:25:00,70.3,52.1,30.24,SE,127,5.0,14.4,52,0.00,,---,0.00,VWS V14.01,2013-03-15 20:25:00,
2013-03-15 16:26:00,69.9,52.4,30.24,East,83,5.8,14.4,54,0.00,,---,0.00,VWS V14.01,2013-03-15 20:26:00,
2013-03-15 16:27:00,69.9,52.5,30.25,East,91,7.0,14.4,54,0.00,,---,0.00,VWS V14.01,2013-03-15 20:27:00,
2013-03-15 16:28:00,69.7,51.7,30.25,SSE,165,5.5,14.4,53,0.00,,---,0.00,VWS V14.01,2013-03-15 20:28:00,
2013-03-15 16:29:00,69.7,51.3,30.25,SSE,153,7.3,14.4,52,0.00,,---,0.00,VWS V14.01,2013-03-15 20:29:00,
2013-03-15 16:30:00,69.6,51.6,30.24,SE,131,2.9,14.4,53,0.00,,---,0.00,VWS V14.01,2013-03-15 20:30:00,
2013-03-15 16:31:00,69.5,51.9,30.24,ESE,110,4.3,14.4,54,0.00,,---,0.00,VWS V14.01,2013-03-15 20:31:00,
2013-03-15 16:32:00,69.4,52.2,30.25,East,82,5.5,14.4,54,0.00,,---,0.00,VWS V14.01,2013-03-15 20:32:00,
2013-03-15 16:33:00,69.1,52.4,30.25,ENE,63,3.9,14.4,55,0.00,,---,0.00,VWS V14.01,2013-03-15 20:33:00,
2013-03-15 16:34:00,69.1,52.5,30.25,East,87,3.9,14.4,55,0.00,,---,0.00,VWS V14.01,2013-03-15 20:34:00,
2013-03-15 16:35:00,69.1,52.3,30.25,ESE,107,1.5,14.4,55,0.00,,---,0.00,VWS V14.01,2013-03-15 20:35:00,
2013-03-15 16:36:00,69.2,52.1,30.25,NE,37,5.3,14.4,54,0.00,,---,0.00,VWS V14.01,2013-03-15 20:36:00,
2013-03-15 16:37:00,69.0,51.9,30.25,ESE,115,3.2,14.4,54,0.00,,---,0.00,VWS V14.01,2013-03-15 20:37:00,
2013-03-15 16:38:00,69.1,52.1,30.25,ENE,77,4.0,14.4,55,0.00,,---,0.00,VWS V14.01,2013-03-15 20:38:00,
2013-03-15 16:39:00,69.0,52.1,30.25,East,89,8.9,14.4,55,0.00,,---,0.00,VWS V14.01,2013-03-15 20:39:00,
2013-03-15 16:40:00,69.1,52.0,30.24,NW,321,3.5,14.4,54,0.00,,---,0.00,VWS V14.01,2013-03-15 20:40:00,
2013-03-15 16:41:00,69.2,52.3,30.25,NNW,339,0.0,14.4,55,0.00,,---,0.00,VWS V14.01,2013-03-15 20:41:00,
2013-03-15 16:42:00,69.0,52.0,30.25,NNW,339,0.0,14.4,55,0.00,,---,0.00,VWS V14.01,2013-03-15 20:42:00,
2013-03-15 16:43:00,69.2,52.1,30.24,NNE,24,1.6,14.4,54,0.00,,---,0.00,VWS V14.01,2013-03-15 20:43:00,
2013-03-15 16:44:00,69.2,52.0,30.24,ENE,73,4.5,14.4,54,0.00,,---,0.00,VWS V14.01,2013-03-15 20:44:00,
2013-03-15 16:45:00,69.1,51.9,30.24,NE,56,3.6,14.4,54,0.00,,---,0.00,VWS V14.01,2013-03-15 20:45:00,
2013-03-15 16:46:00,69.4,52.4,30.24,SE,135,4.1,14.4,55,0.00,,---,0.00,VWS V14.01,2013-03-15 20:46:00,
2013-03-15 16:47:00,69.4,52.2,30.24,East,90,3.3,14.4,54,0.00,,---,0.00,VWS V14.01,2013-03-15 20:47:00,
2013-03-15 16:48:00,69.4,52.3,30.24,North,359,4.7,14.4,55,0.00,,---,0.00,VWS V14.01,2013-03-15 20:48:00,
2013-03-15 16:49:00,69.4,51.8,30.24,ESE,107,3.3,14.4,54,0.00,,---,0.00,VWS V14.01,2013-03-15 20:49:00,
2013-03-15 16:50:00,69.5,52.0,30.24,ENE,73,5.7,14.4,54,0.00,,---,0.00,VWS V14.01,2013-03-15 20:50:00,
2013-03-15 16:51:00,69.2,51.1,30.24,SSW,210,2.4,14.4,52,0.00,,---,0.00,VWS V14.01,2013-03-15 20:51:00,
2013-03-15 16:52:00,69.1,51.7,30.24,SSE,165,4.1,14.4,54,0.00,,---,0.00,VWS V14.01,2013-03-15 20:52:00,
2013-03-15 16:53:00,69.1,51.8,30.24,ENE,73,4.5,14.4,54,0.00,,---,0.00,VWS V14.01,2013-03-15 20:53:00,
2013-03-15 16:54:00,69.3,51.9,30.24,SSE,166,4.4,14.4,54,0.00,,---,0.00,VWS V14.01,2013-03-15 20:54:00,
2013-03-15 16:55:00,69.0,51.5,30.24,East,87,1.7,14.4,54,0.00,,---,0.00,VWS V14.01,2013-03-15 20:55:00,
2013-03-15 16:56:00,69.1,51.9,30.24,ESE,104,2.2,14.4,54,0.00,,---,0.00,VWS V14.01,2013-03-15 20:56:00,
2013-03-15 16:57:00,69.0,52.0,30.24,ESE,117,6.5,14.4,55,0.00,,---,0.00,VWS V14.01,2013-03-15 20:57:00,
2013-03-15 16:58:00,68.9,52.2,30.24,NNE,20,0.9,14.4,55,0.00,,---,0.00,VWS V14.01,2013-03-15 20:58:00,
2013-03-15 16:59:00,68.9,52.3,30.24,East,82,0.0,14.4,56,0.00,,---,0.00,VWS V14.01,2013-03-15 20:59:00,
2013-03-15 17:00:00,68.7,52.4,30.24,ENE,77,1.4,14.4,56,0.00,,---,0.00,VWS V14.01,2013-03-15 21:00:00,
2013-03-15 17:01:00,68.7,51.8,30.24,ENE,58,5.6,14.4,55,0.00,,---,0.00,VWS V14.01,2013-03-15 21:01:00,
2013-03-15 17:02:00,68.7,51.7,30.25,ENE,65,2.1,14.4,55,0.00,,---,0.00,VWS V14.01,2013-03-15 21:02:00,
2013-03-15 17:03:00,68.6,51.7,30.25,SE,138,2.7,14.4,55,0.00,,---,0.00,VWS V14.01,2013-03-15 21:03:00,
2013-03-15 17:04:00,68.7,51.7,30.25,SE,145,4.0,14.4,55,0.00,,---,0.00,VWS V14.01,2013-03-15 21:04:00,
2013-03-15 17:05:00,68.7,52.0,30.25,ENE,63,3.2,14.4,55,0.00,,---,0.00,VWS V14.01,2013-03-15 21:05:00,
2013-03-15 17:06:00,68.9,52.1,30.25,SSE,159,7.0,14.4,55,0.00,,---,0.00,VWS V14.01,2013-03-15 21:06:00,
2013-03-15 17:07:00,68.8,51.8,30.24,SE,136,4.5,14.4,55,0.00,,---,0.00,VWS V14.01,2013-03-15 21:07:00,
2013-03-15 17:08:00,68.6,51.4,30.25,East,93,4.9,14.4,54,0.00,,---,0.00,VWS V14.01,2013-03-15 21:08:00,
2013-03-15 17:09:00,68.4,51.4,30.25,North,6,5.7,14.4,55,0.00,,---,0.00,VWS V14.01,2013-03-15 21:09:00,
2013-03-15 17:10:00,68.4,52.0,30.25,NE,38,3.8,14.4,56,0.00,,---,0.00,VWS V14.01,2013-03-15 21:10:00,
2013-03-15 17:11:00,68.5,52.3,30.25,ESE,103,2.7,14.4,56,0.00,,---,0.00,VWS V14.01,2013-03-15 21:11:00,
2013-03-15 17:12:00,68.4,52.3,30.25,ESE,117,2.4,14.4,56,0.00,,---,0.00,VWS V14.01,2013-03-15 21:12:00,
2013-03-15 17:13:00,68.4,52.2,30.25,East,97,5.3,14.4,56,0.00,,---,0.00,VWS V14.01,2013-03-15 21:13:00,
2013-03-15 17:14:00,68.4,52.3,30.25,North,357,1.6,14.4,56,0.00,,---,0.00,VWS V14.01,2013-03-15 21:14:00,
2013-03-15 17:15:00,68.6,52.4,30.25,NE,45,5.4,14.4,56,0.00,,---,0.00,VWS V14.01,2013-03-15 21:15:00,
2013-03-15 17:16:00,68.7,52.2,30.25,East,101,3.9,14.4,56,0.00,,---,0.00,VWS V14.01,2013-03-15 21:16:00,
2013-03-15 17:17:00,68.7,52.0,30.25,East,100,4.0,14.4,55,0.00,,---,0.00,VWS V14.01,2013-03-15 21:17:00,
2013-03-15 17:18:00,68.6,52.2,30.25,NNW,346,0.0,14.4,56,0.00,,---,0.00,VWS V14.01,2013-03-15 21:18:00,
2013-03-15 17:19:00,68.7,52.0,30.25,East,101,7.7,14.4,55,0.00,,---,0.00,VWS V14.01,2013-03-15 21:19:00,
2013-03-15 17:20:00,68.6,52.3,30.25,ENE,72,5.6,14.4,56,0.00,,---,0.00,VWS V14.01,2013-03-15 21:20:00,
2013-03-15 17:21:00,68.6,52.5,30.25,SE,132,3.2,14.4,56,0.00,,---,0.00,VWS V14.01,2013-03-15 21:21:00,
2013-03-15 17:22:00,68.5,52.6,30.25,ENE,65,5.1,14.4,57,0.00,,---,0.00,VWS V14.01,2013-03-15 21:22:00,
2013-03-15 17:23:00,68.5,52.6,30.25,ESE,121,3.5,14.4,57,0.00,,---,0.00,VWS V14.01,2013-03-15 21:23:00,
2013-03-15 17:24:00,68.4,51.6,30.25,SE,145,4.3,14.4,55,0.00,,---,0.00,VWS V14.01,2013-03-15 21:24:00,
2013-03-15 17:25:00,68.4,51.7,30.25,East,87,4.6,14.4,55,0.00,,---,0.00,VWS V14.01,2013-03-15 21:25:00,
2013-03-15 17:26:00,68.3,51.7,30.25,SSE,153,4.7,14.4,55,0.00,,---,0.00,VWS V14.01,2013-03-15 21:26:00,
2013-03-15 17:27:00,68.4,52.1,30.25,SE,128,5.7,14.4,56,0.00,,---,0.00,VWS V14.01,2013-03-15 21:27:00,
2013-03-15 17:28:00,68.4,51.8,30.25,SE,145,5.1,14.4,55,0.00,,---,0.00,VWS V14.01,2013-03-15 21:28:00,
2013-03-15 17:29:00,68.3,52.0,30.25,ESE,110,3.2,14.4,56,0.00,,---,0.00,VWS V14.01,2013-03-15 21:29:00,
2013-03-15 17:30:00,68.3,51.8,30.25,East,82,2.4,14.4,56,0.00,,---,0.00,VWS V14.01,2013-03-15 21:30:00,
2013-03-15 17:31:00,68.2,52.0,30.25,NE,35,2.3,14.4,56,0.00,,---,0.00,VWS V14.01,2013-03-15 21:31:00,
2013-03-15 17:32:00,68.3,52.0,30.25,ENE,59,6.4,14.4,56,0.00,,---,0.00,VWS V14.01,2013-03-15 21:32:00,
2013-03-15 17:33:00,68.1,52.1,30.25,East,100,5.2,14.4,56,0.00,,---,0.00,VWS V14.01,2013-03-15 21:33:00,
2013-03-15 17:34:00,68.2,52.2,30.25,NNW,340,2.9,14.4,57,0.00,,---,0.00,VWS V14.01,2013-03-15 21:34:00,
2013-03-15 17:35:00,68.2,52.4,30.25,ESE,103,1.3,14.4,57,0.00,,---,0.00,VWS V14.01,2013-03-15 21:35:00,
2013-03-15 17:36:00,68.3,52.6,30.25,NNE,20,0.9,14.4,57,0.00,,---,0.00,VWS V14.01,2013-03-15 21:36:00,
2013-03-15 17:37:00,68.2,52.3,30.25,ESE,104,4.8,14.4,57,0.00,,---,0.00,VWS V14.01,2013-03-15 21:37:00,
2013-03-15 17:38:00,68.0,52.1,30.25,North,1,2.8,14.4,57,0.00,,---,0.00,VWS V14.01,2013-03-15 21:38:00,
2013-03-15 17:39:00,68.0,52.2,30.25,East,79,4.5,14.4,57,0.00,,---,0.00,VWS V14.01,2013-03-15 21:39:00,
2013-03-15 17:40:00,68.0,52.6,30.25,ENE,73,1.5,14.4,58,0.00,,---,0.00,VWS V14.01,2013-03-15 21:40:00,
2013-03-15 17:41:00,68.0,52.4,30.25,NE,34,3.6,14.4,57,0.00,,---,0.00,VWS V14.01,2013-03-15 21:41:00,
2013-03-15 17:42:00,68.0,52.4,30.25,NNE,21,1.2,14.4,57,0.00,,---,0.00,VWS V14.01,2013-03-15 21:42:00,
2013-03-15 17:43:00,68.1,52.5,30.25,North,11,0.0,14.4,58,0.00,,---,0.00,VWS V14.01,2013-03-15 21:43:00,
2013-03-15 17:44:00,68.0,52.4,30.25,NE,45,3.0,14.4,57,0.00,,---,0.00,VWS V14.01,2013-03-15 21:44:00,
2013-03-15 17:45:00,68.0,52.3,30.25,NE,39,0.9,14.4,57,0.00,,---,0.00,VWS V14.01,2013-03-15 21:45:00,
2013-03-15 17:46:00,68.0,52.3,30.25,ENE,69,4.5,14.4,57,0.00,,---,0.00,VWS V14.01,2013-03-15 21:46:00,
2013-03-15 17:47:00,68.0,52.5,30.25,NE,38,3.0,14.4,58,0.00,,---,0.00,VWS V14.01,2013-03-15 21:47:00,
2013-03-15 17:48:00,67.9,52.5,30.25,ESE,120,1.4,14.4,58,0.00,,---,0.00,VWS V14.01,2013-03-15 21:48:00,
2013-03-15 17:49:00,68.0,52.6,30.25,ESE,122,2.5,14.4,58,0.00,,---,0.00,VWS V14.01,2013-03-15 21:49:00,
2013-03-15 17:50:00,68.0,52.6,30.25,ENE,75,6.1,14.4,58,0.00,,---,0.00,VWS V14.01,2013-03-15 21:50:00,
2013-03-15 17:51:00,67.9,52.2,30.25,ENE,58,4.7,14.4,57,0.00,,---,0.00,VWS V14.01,2013-03-15 21:51:00,
2013-03-15 17:52:00,67.8,52.4,30.25,ENE,77,3.1,14.4,58,0.00,,---,0.00,VWS V14.01,2013-03-15 21:52:00,
2013-03-15 17:53:00,67.8,52.6,30.25,ENE,69,5.2,14.4,58,0.00,,---,0.00,VWS V14.01,2013-03-15 21:53:00,
2013-03-15 17:54:00,67.7,52.5,30.25,ENE,77,1.0,14.4,58,0.00,,---,0.00,VWS V14.01,2013-03-15 21:54:00,
2013-03-15 17:55:00,67.8,52.6,30.25,East,93,5.0,14.4,58,0.00,,---,0.00,VWS V14.01,2013-03-15 21:55:00,
2013-03-15 17:56:00,67.8,52.6,30.25,NNE,28,1.1,14.4,58,0.00,,---,0.00,VWS V14.01,2013-03-15 21:56:00,
2013-03-15 17:57:00,67.7,52.6,30.25,ENE,77,5.6,14.4,58,0.00,,---,0.00,VWS V14.01,2013-03-15 21:57:00,
2013-03-15 17:58:00,67.5,52.5,30.25,East,79,3.4,14.4,59,0.00,,---,0.00,VWS V14.01,2013-03-15 21:58:00,
2013-03-15 17:59:00,67.4,52.5,30.25,ENE,77,5.7,14.4,59,0.00,,---,0.00,VWS V14.01,2013-03-15 21:59:00,
2013-03-15 18:00:00,67.4,52.2,30.25,East,80,3.5,14.4,58,0.00,,---,0.00,VWS V14.01,2013-03-15 22:00:00,
2013-03-15 18:01:00,67.4,52.5,30.25,East,82,2.5,14.4,59,0.00,,---,0.00,VWS V14.01,2013-03-15 22:01:00,
2013-03-15 18:02:00,67.1,52.5,30.25,NE,39,4.2,14.4,59,0.00,,---,0.00,VWS V14.01,2013-03-15 22:02:00,
2013-03-15 18:03:00,67.0,52.4,30.25,NE,35,2.3,14.4,59,0.00,,---,0.00,VWS V14.01,2013-03-15 22:03:00,
2013-03-15 18:04:00,67.2,52.6,30.26,ESE,115,0.7,14.4,59,0.00,,---,0.00,VWS V14.01,2013-03-15 22:04:00,
2013-03-15 18:05:00,67.2,52.5,30.25,North,3,0.0,14.4,59,0.00,,---,0.00,VWS V14.01,2013-03-15 22:05:00,
2013-03-15 18:06:00,67.2,52.7,30.25,ESE,105,2.3,14.4,60,0.00,,---,0.00,VWS V14.01,2013-03-15 22:06:00,
2013-03-15 18:07:00,67.3,52.7,30.25,South,179,1.6,14.4,60,0.00,,---,0.00,VWS V14.01,2013-03-15 22:07:00,
2013-03-15 18:08:00,67.2,52.7,30.25,North,8,0.9,14.4,60,0.00,,---,0.00,VWS V14.01,2013-03-15 22:08:00,
2013-03-15 18:09:00,67.1,52.6,30.25,ENE,77,0.7,14.4,60,0.00,,---,0.00,VWS V14.01,2013-03-15 22:09:00,
2013-03-15 18:10:00,67.2,52.7,30.25,ESE,117,1.7,14.4,60,0.00,,---,0.00,VWS V14.01,2013-03-15 22:10:00,
2013-03-15 18:11:00,67.2,52.6,30.25,ESE,111,1.6,14.4,60,0.00,,---,0.00,VWS V14.01,2013-03-15 22:11:00,
2013-03-15 18:12:00,67.3,52.7,30.25,ENE,72,1.4,14.4,59,0.00,,---,0.00,VWS V14.01,2013-03-15 22:12:00,
2013-03-15 18:13:00,67.2,52.6,30.25,SSE,158,4.4,14.4,60,0.00,,---,0.00,VWS V14.01,2013-03-15 22:13:00,
2013-03-15 18:14:00,67.1,52.6,30.25,NE,55,0.4,14.4,60,0.00,,---,0.00,VWS V14.01,2013-03-15 22:14:00,
2013-03-15 18:15:00,67.2,52.9,30.25,ENE,73,2.5,14.4,60,0.00,,---,0.00,VWS V14.01,2013-03-15 22:15:00,
2013-03-15 18:16:00,67.3,53.0,30.25,North,352,0.3,14.4,60,0.00,,---,0.00,VWS V14.01,2013-03-15 22:16:00,
2013-03-15 18:17:00,67.2,53.0,30.25,ENE,69,1.4,14.4,60,0.00,,---,0.00,VWS V14.01,2013-03-15 22:17:00,
2013-03-15 18:18:00,67.1,53.0,30.25,ENE,77,1.6,14.4,60,0.00,,---,0.00,VWS V14.01,2013-03-15 22:18:00,
2013-03-15 18:19:00,67.2,53.2,30.25,ESE,117,5.7,14.4,61,0.00,,---,0.00,VWS V14.01,2013-03-15 22:19:00,
2013-03-15 18:20:00,67.1,53.1,30.25,NNE,24,1.9,14.4,61,0.00,,---,0.00,VWS V14.01,2013-03-15 22:20:00,
2013-03-15 18:21:00,67.1,53.2,30.25,NE,39,2.9,14.4,61,0.00,,---,0.00,VWS V14.01,2013-03-15 22:21:00,
2013-03-15 18:22:00,67.2,53.2,30.25,NE,42,3.0,14.4,61,0.00,,---,0.00,VWS V14.01,2013-03-15 22:22:00,
2013-03-15 18:23:00,67.2,53.3,30.25,ENE,75,2.7,14.4,61,0.00,,---,0.00,VWS V14.01,2013-03-15 22:23:00,
2013-03-15 18:24:00,67.1,53.2,30.26,NNE,32,0.7,14.4,61,0.00,,---,0.00,VWS V14.01,2013-03-15 22:24:00,
2013-03-15 18:25:00,67.0,53.3,30.25,ENE,63,1.7,14.4,61,0.00,,---,0.00,VWS V14.01,2013-03-15 22:25:00,
2013-03-15 18:26:00,66.8,53.1,30.26,East,89,1.6,14.4,61,0.00,,---,0.00,VWS V14.01,2013-03-15 22:26:00,
2013-03-15 18:27:00,66.7,53.2,30.26,NE,48,4.2,14.4,62,0.00,,---,0.00,VWS V14.01,2013-03-15 22:27:00,
2013-03-15 18:28:00,66.7,53.2,30.26,ENE,73,0.0,14.4,62,0.00,,---,0.00,VWS V14.01,2013-03-15 22:28:00,
2013-03-15 18:29:00,66.7,53.2,30.26,NE,48,0.0,14.4,62,0.00,,---,0.00,VWS V14.01,2013-03-15 22:29:00,
2013-03-15 18:30:00,66.7,53.2,30.25,NE,48,0.0,14.4,62,0.00,,---,0.00,VWS V14.01,2013-03-15 22:30:00,
2013-03-15 18:31:00,66.7,53.3,30.25,NE,48,0.0,14.4,62,0.00,,---,0.00,VWS V14.01,2013-03-15 22:31:00,
2013-03-15 18:32:00,66.5,53.4,30.25,NE,48,0.0,14.4,63,0.00,,---,0.00,VWS V14.01,2013-03-15 22:32:00,
2013-03-15 18:33:00,66.7,53.5,30.25,SE,143,2.7,14.4,62,0.00,,---,0.00,VWS V14.01,2013-03-15 22:33:00,
2013-03-15 18:34:00,66.4,53.3,30.25,ENE,73,2.4,14.4,63,0.00,,---,0.00,VWS V14.01,2013-03-15 22:34:00,
2013-03-15 18:35:00,66.3,53.1,30.25,ENE,76,1.0,14.4,62,0.00,,---,0.00,VWS V14.01,2013-03-15 22:35:00,
2013-03-15 18:36:00,66.3,53.3,30.25,NNE,27,1.0,14.4,63,0.00,,---,0.00,VWS V14.01,2013-03-15 22:36:00,
2013-03-15 18:37:00,66.2,53.2,30.25,NNE,27,0.0,14.4,63,0.00,,---,0.00,VWS V14.01,2013-03-15 22:37:00,
2013-03-15 18:38:00,66.2,53.2,30.25,NNE,27,0.0,14.4,63,0.00,,---,0.00,VWS V14.01,2013-03-15 22:38:00,
2013-03-15 18:39:00,66.1,53.2,30.25,NNE,27,0.0,14.4,63,0.00,,---,0.00,VWS V14.01,2013-03-15 22:39:00,
2013-03-15 18:40:00,66.3,53.5,30.25,ESE,112,1.2,14.4,63,0.00,,---,0.00,VWS V14.01,2013-03-15 22:40:00,
2013-03-15 18:41:00,66.1,53.3,30.26,ENE,77,0.0,14.4,63,0.00,,---,0.00,VWS V14.01,2013-03-15 22:41:00,
2013-03-15 18:42:00,65.9,53.2,30.26,ENE,63,1.7,14.4,64,0.00,,---,0.00,VWS V14.01,2013-03-15 22:42:00,
2013-03-15 18:43:00,66.0,53.3,30.25,NNE,15,0.0,14.4,64,0.00,,---,0.00,VWS V14.01,2013-03-15 22:43:00,
2013-03-15 18:44:00,66.0,53.3,30.25,NNE,15,0.0,14.4,64,0.00,,---,0.00,VWS V14.01,2013-03-15 22:44:00,
2013-03-15 18:45:00,65.9,53.3,30.25,NNE,15,0.0,14.4,64,0.00,,---,0.00,VWS V14.01,2013-03-15 22:45:00,
2013-03-15 18:46:00,65.7,53.4,30.26,NNE,15,0.0,14.4,64,0.00,,---,0.00,VWS V14.01,2013-03-15 22:46:00,
2013-03-15 18:47:00,65.8,53.3,30.26,NNE,15,0.0,14.4,64,0.00,,---,0.00,VWS V14.01,2013-03-15 22:47:00,
2013-03-15 18:48:00,65.7,53.2,30.26,ENE,60,0.0,14.4,64,0.00,,---,0.00,VWS V14.01,2013-03-15 22:48:00,
2013-03-15 18:49:00,65.8,53.3,30.26,ENE,60,0.0,14.4,64,0.00,,---,0.00,VWS V14.01,2013-03-15 22:49:00,
2013-03-15 18:50:00,65.7,53.3,30.26,ENE,60,0.0,14.4,64,0.00,,---,0.00,VWS V14.01,2013-03-15 22:50:00,
2013-03-15 18:51:00,65.8,53.3,30.25,ENE,60,0.0,14.4,64,0.00,,---,0.00,VWS V14.01,2013-03-15 22:51:00,
2013-03-15 18:52:00,65.7,53.4,30.26,ESE,110,2.9,14.4,64,0.00,,---,0.00,VWS V14.01,2013-03-15 22:52:00,
2013-03-15 18:53:00,65.7,53.4,30.26,North,3,1.0,14.4,64,0.00,,---,0.00,VWS V14.01,2013-03-15 22:53:00,
2013-03-15 18:54:00,65.4,53.3,30.25,East,83,2.1,14.4,65,0.00,,---,0.00,VWS V14.01,2013-03-15 22:54:00,
2013-03-15 18:55:00,65.4,53.3,30.26,NE,44,1.6,14.4,65,0.00,,---,0.00,VWS V14.01,2013-03-15 22:55:00,
2013-03-15 18:56:00,65.3,53.2,30.26,NNE,17,1.4,14.4,65,0.00,,---,0.00,VWS V14.01,2013-03-15 22:56:00,
2013-03-15 18:57:00,65.3,53.1,30.26,ENE,76,1.3,14.4,65,0.00,,---,0.00,VWS V14.01,2013-03-15 22:57:00,
2013-03-15 18:58:00,65.4,53.2,30.26,ENE,59,1.3,14.4,65,0.00,,---,0.00,VWS V14.01,2013-03-15 22:58:00,
2013-03-15 18:59:00,65.2,53.2,30.26,NNE,13,0.3,14.4,65,0.00,,---,0.00,VWS V14.01,2013-03-15 22:59:00,
2013-03-15 19:00:00,65.2,53.3,30.26,East,82,1.3,14.4,65,0.00,,---,0.00,VWS V14.01,2013-03-15 23:00:00,
2013-03-15 19:01:00,65.3,53.3,30.26,NE,38,0.0,14.4,65,0.00,,---,0.00,VWS V14.01,2013-03-15 23:01:00,
2013-03-15 19:02:00,65.2,53.2,30.26,NE,38,0.0,14.4,65,0.00,,---,0.00,VWS V14.01,2013-03-15 23:02:00,
2013-03-15 19:03:00,65.2,53.2,30.26,NW,311,0.0,14.4,65,0.00,,---,0.00,VWS V14.01,2013-03-15 23:03:00,
2013-03-15 19:04:00,65.0,53.0,30.26,NW,325,1.3,14.4,65,0.00,,---,0.00,VWS V14.01,2013-03-15 23:04:00,
2013-03-15 19:05:00,65.1,53.1,30.26,North,11,0.0,14.4,65,0.00,,---,0.00,VWS V14.01,2013-03-15 23:05:00,
2013-03-15 19:06:00,65.1,53.2,30.26,North,4,0.6,14.4,65,0.00,,---,0.00,VWS V14.01,2013-03-15 23:06:00,
2013-03-15 19:07:00,65.0,53.1,30.26,NE,51,0.6,14.4,65,0.00,,---,0.00,VWS V14.01,2013-03-15 23:07:00,
2013-03-15 19:08:00,64.9,53.1,30.26,East,80,0.0,14.4,66,0.00,,---,0.00,VWS V14.01,2013-03-15 23:08:00,
2013-03-15 19:09:00,65.0,53.2,30.26,NE,46,1.7,14.4,66,0.00,,---,0.00,VWS V14.01,2013-03-15 23:09:00,
2013-03-15 19:10:00,64.8,53.2,30.26,NE,46,0.4,14.4,66,0.00,,---,0.00,VWS V14.01,2013-03-15 23:10:00,
2013-03-15 19:11:00,64.9,53.2,30.26,East,80,0.5,14.4,66,0.00,,---,0.00,VWS V14.01,2013-03-15 23:11:00,
2013-03-15 19:12:00,65.0,53.4,30.26,NNE,18,1.5,14.4,66,0.00,,---,0.00,VWS V14.01,2013-03-15 23:12:00,
2013-03-15 19:13:00,64.8,53.2,30.26,NNW,347,0.5,14.4,66,0.00,,---,0.00,VWS V14.01,2013-03-15 23:13:00,
2013-03-15 19:14:00,64.9,53.2,30.26,NNW,347,0.0,14.4,66,0.00,,---,0.00,VWS V14.01,2013-03-15 23:14:00,
2013-03-15 19:15:00,64.9,53.2,30.26,East,97,0.0,14.4,66,0.00,,---,0.00,VWS V14.01,2013-03-15 23:15:00,
2013-03-15 19:16:00,65.0,53.4,30.26,East,97,0.0,14.4,66,0.00,,---,0.00,VWS V14.01,2013-03-15 23:16:00,
2013-03-15 19:17:00,64.7,53.1,30.26,East,97,0.0,14.4,66,0.00,,---,0.00,VWS V14.01,2013-03-15 23:17:00,
2013-03-15 19:18:00,64.8,53.3,30.26,NNE,22,0.0,14.4,66,0.00,,---,0.00,VWS V14.01,2013-03-15 23:18:00,
2013-03-15 19:19:00,64.6,53.2,30.26,NNE,22,0.0,14.4,66,0.00,,---,0.00,VWS V14.01,2013-03-15 23:19:00,
2013-03-15 19:20:00,64.6,53.2,30.26,NNE,22,0.0,14.4,66,0.00,,---,0.00,VWS V14.01,2013-03-15 23:20:00,
2013-03-15 19:21:00,64.7,53.3,30.26,NNE,22,0.0,14.4,66,0.00,,---,0.00,VWS V14.01,2013-03-15 23:21:00,
2013-03-15 19:22:00,64.7,53.3,30.26,NNE,22,0.0,14.4,66,0.00,,---,0.00,VWS V14.01,2013-03-15 23:22:00,
2013-03-15 19:23:00,64.6,53.2,30.26,NNE,22,0.0,14.4,66,0.00,,---,0.00,VWS V14.01,2013-03-15 23:23:00,
2013-03-15 19:24:00,64.5,53.2,30.26,NNE,22,0.0,14.4,67,0.00,,---,0.00,VWS V14.01,2013-03-15 23:24:00,
2013-03-15 19:25:00,64.6,53.3,30.26,NE,34,1.0,14.4,67,0.00,,---,0.00,VWS V14.01,2013-03-15 23:25:00,
2013-03-15 19:26:00,64.7,53.4,30.26,NNW,335,0.0,14.4,67,0.00,,---,0.00,VWS V14.01,2013-03-15 23:26:00,
2013-03-15 19:27:00,64.4,53.2,30.26,NNW,335,0.0,14.4,67,0.00,,---,0.00,VWS V14.01,2013-03-15 23:27:00,
2013-03-15 19:28:00,64.5,53.3,30.26,NNE,20,0.0,14.4,67,0.00,,---,0.00,VWS V14.01,2013-03-15 23:28:00,
2013-03-15 19:29:00,64.5,53.3,30.26,NNW,336,0.0,14.4,67,0.00,,---,0.00,VWS V14.01,2013-03-15 23:29:00,
2013-03-15 19:30:00,64.4,53.2,30.26,NNW,336,0.0,14.4,67,0.00,,---,0.00,VWS V14.01,2013-03-15 23:30:00,
2013-03-15 19:31:00,64.4,53.2,30.26,NNW,347,0.7,14.4,67,0.00,,---,0.00,VWS V14.01,2013-03-15 23:31:00,
2013-03-15 19:32:00,64.3,53.2,30.26,NNW,336,3.4,14.4,67,0.00,,---,0.00,VWS V14.01,2013-03-15 23:32:00,
2013-03-15 19:33:00,64.4,53.3,30.26,North,359,2.2,14.4,67,0.00,,---,0.00,VWS V14.01,2013-03-15 23:33:00,
2013-03-15 19:34:00,64.2,53.1,30.26,North,0,0.8,14.4,67,0.00,,---,0.00,VWS V14.01,2013-03-15 23:34:00,
2013-03-15 19:35:00,64.3,53.2,30.26,NNE,18,1.9,14.4,67,0.00,,---,0.00,VWS V14.01,2013-03-15 23:35:00,
2013-03-15 19:36:00,64.4,53.3,30.26,ESE,103,0.0,14.4,67,0.00,,---,0.00,VWS V14.01,2013-03-15 23:36:00,
2013-03-15 19:37:00,64.3,53.3,30.26,NNE,14,1.2,14.4,67,0.00,,---,0.00,VWS V14.01,2013-03-15 23:37:00,
2013-03-15 19:38:00,64.3,53.3,30.26,NE,48,1.9,14.4,67,0.00,,---,0.00,VWS V14.01,2013-03-15 23:38:00,
2013-03-15 19:39:00,64.3,53.3,30.26,NNE,25,0.7,14.4,67,0.00,,---,0.00,VWS V14.01,2013-03-15 23:39:00,
2013-03-15 19:40:00,64.1,53.1,30.26,NNE,18,0.7,14.4,68,0.00,,---,0.00,VWS V14.01,2013-03-15 23:40:00,
2013-03-15 19:41:00,64.1,53.2,30.26,NNW,340,0.8,14.4,68,0.00,,---,0.00,VWS V14.01,2013-03-15 23:41:00,
2013-03-15 19:42:00,64.2,53.3,30.26,NNW,332,2.3,14.4,68,0.00,,---,0.00,VWS V14.01,2013-03-15 23:42:00,
2013-03-15 19:43:00,64.2,53.3,30.26,NW,326,0.0,14.4,68,0.00,,---,0.00,VWS V14.01,2013-03-15 23:43:00,
2013-03-15 19:44:00,64.2,53.3,30.26,NW,325,1.6,14.4,68,0.00,,---,0.00,VWS V14.01,2013-03-15 23:44:00,
2013-03-15 19:45:00,64.2,53.3,30.26,NNW,336,0.0,14.4,68,0.00,,---,0.00,VWS V14.01,2013-03-15 23:45:00,
2013-03-15 19:46:00,64.2,53.3,30.26,NNW,336,0.0,14.4,68,0.00,,---,0.00,VWS V14.01,2013-03-15 23:46:00,
2013-03-15 19:47:00,64.1,53.3,30.26,NNW,336,0.0,14.4,68,0.00,,---,0.00,VWS V14.01,2013-03-15 23:47:00,
2013-03-15 19:48:00,64.2,53.3,30.26,NNW,336,0.0,14.4,68,0.00,,---,0.00,VWS V14.01,2013-03-15 23:48:00,
2013-03-15 19:49:00,64.0,53.2,30.26,NNW,336,0.0,14.4,68,0.00,,---,0.00,VWS V14.01,2013-03-15 23:49:00,
2013-03-15 19:50:00,64.0,53.2,30.26,NNW,336,0.0,14.4,68,0.00,,---,0.00,VWS V14.01,2013-03-15 23:50:00,
2013-03-15 19:51:00,64.0,53.2,30.26,North,359,2.4,14.4,68,0.00,,---,0.00,VWS V14.01,2013-03-15 23:51:00,
2013-03-15 19:52:00,64.0,53.2,30.26,NNW,346,0.0,14.4,68,0.00,,---,0.00,VWS V14.01,2013-03-15 23:52:00,
2013-03-15 19:53:00,64.0,53.2,30.26,NNW,346,0.0,14.4,68,0.00,,---,0.00,VWS V14.01,2013-03-15 23:53:00,
2013-03-15 19:54:00,63.9,53.1,30.26,NNE,18,0.0,14.4,68,0.00,,---,0.00,VWS V14.01,2013-03-15 23:54:00,
2013-03-15 19:55:00,63.9,53.2,30.26,NNE,18,0.0,14.4,68,0.00,,---,0.00,VWS V14.01,2013-03-15 23:55:00,
2013-03-15 19:56:00,63.8,53.1,30.26,North,11,1.6,14.4,68,0.00,,---,0.00,VWS V14.01,2013-03-15 23:56:00,
2013-03-15 19:57:00,64.0,53.3,30.26,NNW,332,0.7,14.4,68,0.00,,---,0.00,VWS V14.01,2013-03-15 23:57:00,
2013-03-15 19:58:00,64.1,53.4,30.26,NNE,17,0.0,14.4,68,0.00,,---,0.00,VWS V14.01,2013-03-15 23:58:00,
2013-03-15 19:59:00,64.0,53.3,30.26,NNE,17,0.0,14.4,68,0.00,,---,0.00,VWS V14.01,2013-03-15 23:59:00,
2013-03-15 20:00:00,64.0,53.3,30.26,NNE,17,0.0,14.4,68,0.00,,---,0.00,VWS V14.01,2013-03-16 00:00:00,
2013-03-15 20:01:00,63.9,53.2,30.26,NNE,22,0.7,14.4,68,0.00,,---,0.00,VWS V14.01,2013-03-16 00:01:00,
2013-03-15 20:02:00,63.8,53.2,30.27,North,350,0.0,14.4,68,0.00,,---,0.00,VWS V14.01,2013-03-16 00:02:00,
2013-03-15 20:03:00,63.8,53.2,30.27,North,350,0.0,14.4,68,0.00,,---,0.00,VWS V14.01,2013-03-16 00:03:00,
2013-03-15 20:04:00,63.7,53.1,30.27,North,350,0.0,14.4,68,0.00,,---,0.00,VWS V14.01,2013-03-16 00:04:00,
2013-03-15 20:05:00,63.8,53.2,30.26,NW,325,0.0,14.4,68,0.00,,---,0.00,VWS V14.01,2013-03-16 00:05:00,
2013-03-15 20:06:00,63.6,53.1,30.26,NNE,32,0.0,14.4,68,0.00,,---,0.00,VWS V14.01,2013-03-16 00:06:00,
2013-03-15 20:07:00,63.7,53.2,30.26,NNE,32,0.0,14.4,68,0.00,,---,0.00,VWS V14.01,2013-03-16 00:07:00,
2013-03-15 20:08:00,63.7,53.2,30.26,NNE,32,0.0,14.4,68,0.00,,---,0.00,VWS V14.01,2013-03-16 00:08:00,
2013-03-15 20:09:00,63.8,53.3,30.26,NNE,32,0.0,14.4,69,0.00,,---,0.00,VWS V14.01,2013-03-16 00:09:00,
2013-03-15 20:10:00,63.4,52.9,30.26,NNE,32,0.0,14.4,69,0.00,,---,0.00,VWS V14.01,2013-03-16 00:10:00,
2013-03-15 20:11:00,63.5,53.0,30.26,NNE,32,0.0,14.4,69,0.00,,---,0.00,VWS V14.01,2013-03-16 00:11:00,
2013-03-15 20:12:00,63.6,53.2,30.26,NNE,32,0.0,14.4,69,0.00,,---,0.00,VWS V14.01,2013-03-16 00:12:00,
2013-03-15 20:13:00,63.4,53.0,30.26,NNE,20,1.0,14.4,69,0.00,,---,0.00,VWS V14.01,2013-03-16 00:13:00,
2013-03-15 20:14:00,63.4,53.0,30.26,ENE,73,2.0,14.4,69,0.00,,---,0.00,VWS V14.01,2013-03-16 00:14:00,
2013-03-15 20:15:00,63.5,53.2,30.26,NNE,14,0.9,14.4,69,0.00,,---,0.00,VWS V14.01,2013-03-16 00:15:00,
2013-03-15 20:16:00,63.3,53.0,30.26,WNW,300,1.5,14.4,69,0.00,,---,0.00,VWS V14.01,2013-03-16 00:16:00,
2013-03-15 20:17:00,63.5,53.2,30.26,North,356,0.0,14.4,69,0.00,,---,0.00,VWS V14.01,2013-03-16 00:17:00,
2013-03-15 20:18:00,63.5,53.2,30.26,WSW,249,0.6,14.4,69,0.00,,---,0.00,VWS V14.01,2013-03-16 00:18:00,
2013-03-15 20:19:00,63.4,53.1,30.26,North,349,2.1,14.4,69,0.00,,---,0.00,VWS V14.01,2013-03-16 00:19:00,
2013-03-15 20:20:00,63.3,53.0,30.27,East,90,0.2,14.4,69,0.00,,---,0.00,VWS V14.01,2013-03-16 00:20:00,
2013-03-15 20:21:00,63.3,53.0,30.27,East,90,0.0,14.4,69,0.00,,---,0.00,VWS V14.01,2013-03-16 00:21:00,
2013-03-15 20:22:00,63.5,53.2,30.27,East,90,0.0,14.4,69,0.00,,---,0.00,VWS V14.01,2013-03-16 00:22:00,
2013-03-15 20:23:00,63.3,53.0,30.27,North,349,1.4,14.4,69,0.00,,---,0.00,VWS V14.01,2013-03-16 00:23:00,
2013-03-15 20:24:00,63.3,53.0,30.27,NW,325,2.7,14.4,69,0.00,,---,0.00,VWS V14.01,2013-03-16 00:24:00,
2013-03-15 20:25:00,63.2,53.0,30.27,NNE,21,2.1,14.4,69,0.00,,---,0.00,VWS V14.01,2013-03-16 00:25:00,
2013-03-15 20:26:00,63.2,53.0,30.27,NW,311,0.0,14.4,69,0.00,,---,0.00,VWS V14.01,2013-03-16 00:26:00,
2013-03-15 20:27:00,63.3,53.1,30.27,NW,311,3.0,14.4,69,0.00,,---,0.00,VWS V14.01,2013-03-16 00:27:00,
2013-03-15 20:28:00,63.2,53.1,30.27,ENE,63,1.4,14.4,70,0.00,,---,0.00,VWS V14.01,2013-03-16 00:28:00,
2013-03-15 20:29:00,63.2,53.1,30.27,NNE,27,0.0,14.4,70,0.00,,---,0.00,VWS V14.01,2013-03-16 00:29:00,
2013-03-15 20:30:00,63.0,52.9,30.27,NW,304,0.0,14.4,70,0.00,,---,0.00,VWS V14.01,2013-03-16 00:30:00,
2013-03-15 20:31:00,63.1,53.0,30.27,NW,304,0.0,14.4,70,0.00,,---,0.00,VWS V14.01,2013-03-16 00:31:00,
2013-03-15 20:32:00,63.1,53.0,30.27,NE,37,0.0,14.4,70,0.00,,---,0.00,VWS V14.01,2013-03-16 00:32:00,
2013-03-15 20:33:00,63.1,53.0,30.27,NE,37,0.0,14.4,70,0.00,,---,0.00,VWS V14.01,2013-03-16 00:33:00,
2013-03-15 20:34:00,63.3,53.2,30.27,NE,37,0.0,14.4,70,0.00,,---,0.00,VWS V14.01,2013-03-16 00:34:00,
2013-03-15 20:35:00,63.2,53.1,30.27,NE,37,0.9,14.4,70,0.00,,---,0.00,VWS V14.01,2013-03-16 00:35:00,
2013-03-15 20:36:00,63.1,53.0,30.27,NNW,338,2.9,14.4,70,0.00,,---,0.00,VWS V14.01,2013-03-16 00:36:00,
2013-03-15 20:37:00,63.1,53.0,30.27,NNW,328,0.0,14.4,70,0.00,,---,0.00,VWS V14.01,2013-03-16 00:37:00,
2013-03-15 20:38:00,63.2,53.1,30.27,NNW,328,0.0,14.4,70,0.00,,---,0.00,VWS V14.01,2013-03-16 00:38:00,
2013-03-15 20:39:00,63.1,53.0,30.27,NNW,328,0.0,14.4,70,0.00,,---,0.00,VWS V14.01,2013-03-16 00:39:00,
2013-03-15 20:40:00,63.0,53.0,30.27,North,1,0.0,14.4,70,0.00,,---,0.00,VWS V14.01,2013-03-16 00:40:00,
2013-03-15 20:41:00,63.0,53.0,30.27,NW,319,0.0,14.4,70,0.00,,---,0.00,VWS V14.01,2013-03-16 00:41:00,
2013-03-15 20:42:00,63.0,53.0,30.27,NW,319,0.0,14.4,70,0.00,,---,0.00,VWS V14.01,2013-03-16 00:42:00,
2013-03-15 20:43:00,63.2,53.2,30.27,NW,319,0.0,14.4,70,0.00,,---,0.00,VWS V14.01,2013-03-16 00:43:00,
2013-03-15 20:44:00,63.0,53.0,30.27,WNW,302,1.1,14.4,70,0.00,,---,0.00,VWS V14.01,2013-03-16 00:44:00,
2013-03-15 20:45:00,63.0,53.0,30.27,WNW,292,0.0,14.4,70,0.00,,---,0.00,VWS V14.01,2013-03-16 00:45:00,
2013-03-15 20:46:00,62.9,52.9,30.27,West,281,0.0,14.4,70,0.00,,---,0.00,VWS V14.01,2013-03-16 00:46:00,
2013-03-15 20:47:00,62.7,52.7,30.27,NNW,330,0.5,14.4,70,0.00,,---,0.00,VWS V14.01,2013-03-16 00:47:00,
2013-03-15 20:48:00,63.0,53.0,30.27,NNW,330,0.0,14.4,70,0.00,,---,0.00,VWS V14.01,2013-03-16 00:48:00,
2013-03-15 20:49:00,62.9,52.9,30.27,NW,325,0.0,14.4,70,0.00,,---,0.00,VWS V14.01,2013-03-16 00:49:00,
2013-03-15 20:50:00,62.8,52.9,30.27,North,8,0.9,14.4,70,0.00,,---,0.00,VWS V14.01,2013-03-16 00:50:00,
2013-03-15 20:51:00,62.9,52.9,30.27,ENE,70,1.5,14.4,70,0.00,,---,0.00,VWS V14.01,2013-03-16 00:51:00,
2013-03-15 20:52:00,62.8,52.9,30.27,NNE,25,1.2,14.4,70,0.00,,---,0.00,VWS V14.01,2013-03-16 00:52:00,
2013-03-15 20:53:00,62.7,52.8,30.27,NNE,14,0.0,14.4,70,0.00,,---,0.00,VWS V14.01,2013-03-16 00:53:00,
2013-03-15 20:54:00,62.6,52.7,30.27,NNE,14,0.0,14.4,70,0.00,,---,0.00,VWS V14.01,2013-03-16 00:54:00,
2013-03-15 20:55:00,62.8,52.9,30.27,NNE,14,0.0,14.4,70,0.00,,---,0.00,VWS V14.01,2013-03-16 00:55:00,
2013-03-15 20:56:00,62.6,52.7,30.27,NNE,14,0.0,14.4,70,0.00,,---,0.00,VWS V14.01,2013-03-16 00:56:00,
2013-03-15 20:57:00,62.6,52.7,30.27,WNW,287,0.0,14.4,70,0.00,,---,0.00,VWS V14.01,2013-03-16 00:57:00,
2013-03-15 20:58:00,62.5,52.6,30.27,WNW,287,0.0,14.4,70,0.00,,---,0.00,VWS V14.01,2013-03-16 00:58:00,
2013-03-15 20:59:00,62.7,52.9,30.27,NW,326,2.5,14.4,70,0.00,,---,0.00,VWS V14.01,2013-03-16 00:59:00,
2013-03-15 21:00:00,62.5,52.6,30.28,NW,321,0.0,14.4,70,0.00,,---,0.00,VWS V14.01,2013-03-16 01:00:00,
2013-03-15 21:01:00,62.5,52.7,30.28,NW,321,0.0,14.4,70,0.00,,---,0.00,VWS V14.01,2013-03-16 01:01:00,
2013-03-15 21:02:00,62.5,52.7,30.28,NW,321,0.0,14.4,70,0.00,,---,0.00,VWS V14.01,2013-03-16 01:02:00,
2013-03-15 21:03:00,62.5,52.7,30.28,NW,321,0.0,14.4,70,0.00,,---,0.00,VWS V14.01,2013-03-16 01:03:00,
2013-03-15 21:04:00,62.5,52.7,30.28,NNW,333,0.7,14.4,70,0.00,,---,0.00,VWS V14.01,2013-03-16 01:04:00,
2013-03-15 21:05:00,62.5,52.7,30.28,NNW,332,2.7,14.4,70,0.00,,---,0.00,VWS V14.01,2013-03-16 01:05:00,
2013-03-15 21:06:00,62.4,52.7,30.28,NNW,342,1.0,14.4,70,0.00,,---,0.00,VWS V14.01,2013-03-16 01:06:00,
2013-03-15 21:07:00,62.4,52.7,30.28,NNE,20,0.0,14.4,70,0.00,,---,0.00,VWS V14.01,2013-03-16 01:07:00,
2013-03-15 21:08:00,62.5,52.8,30.28,NNE,20,0.0,14.4,70,0.00,,---,0.00,VWS V14.01,2013-03-16 01:08:00,
2013-03-15 21:09:00,62.4,52.7,30.28,NE,42,1.0,14.4,70,0.00,,---,0.00,VWS V14.01,2013-03-16 01:09:00,
2013-03-15 21:10:00,62.3,52.6,30.28,NE,39,0.5,14.4,71,0.00,,---,0.00,VWS V14.01,2013-03-16 01:10:00,
2013-03-15 21:11:00,62.4,52.7,30.28,East,86,0.9,14.4,71,0.00,,---,0.00,VWS V14.01,2013-03-16 01:11:00,
2013-03-15 21:12:00,62.2,52.5,30.28,North,1,0.9,14.4,71,0.00,,---,0.00,VWS V14.01,2013-03-16 01:12:00,
2013-03-15 21:13:00,62.3,52.7,30.28,NW,307,1.4,14.4,71,0.00,,---,0.00,VWS V14.01,2013-03-16 01:13:00,
2013-03-15 21:14:00,62.3,52.6,30.28,NNE,18,0.0,14.4,71,0.00,,---,0.00,VWS V14.01,2013-03-16 01:14:00,
2013-03-15 21:15:00,62.3,52.6,30.28,NW,321,1.8,14.4,71,0.00,,---,0.00,VWS V14.01,2013-03-16 01:15:00,
2013-03-15 21:16:00,62.3,52.7,30.28,NW,323,3.7,14.4,71,0.00,,---,0.00,VWS V14.01,2013-03-16 01:16:00,
2013-03-15 21:17:00,62.3,52.7,30.28,NNE,13,4.1,14.4,71,0.00,,---,0.00,VWS V14.01,2013-03-16 01:17:00,
2013-03-15 21:18:00,62.3,52.7,30.28,NNW,342,0.0,14.4,71,0.00,,---,0.00,VWS V14.01,2013-03-16 01:18:00,
2013-03-15 21:19:00,62.2,52.6,30.28,NNW,342,0.0,14.4,71,0.00,,---,0.00,VWS V14.01,2013-03-16 01:19:00,
2013-03-15 21:20:00,62.3,52.7,30.28,NNE,20,0.0,14.4,71,0.00,,---,0.00,VWS V14.01,2013-03-16 01:20:00,
2013-03-15 21:21:00,62.2,52.6,30.28,NNE,20,0.0,14.4,71,0.00,,---,0.00,VWS V14.01,2013-03-16 01:21:00,
2013-03-15 21:22:00,62.4,52.8,30.28,East,82,1.4,14.4,71,0.00,,---,0.00,VWS V14.01,2013-03-16 01:22:00,
2013-03-15 21:23:00,62.4,52.8,30.28,WNW,288,0.0,14.4,71,0.00,,---,0.00,VWS V14.01,2013-03-16 01:23:00,
2013-03-15 21:24:00,62.3,52.7,30.28,WNW,288,0.0,14.4,71,0.00,,---,0.00,VWS V14.01,2013-03-16 01:24:00,
2013-03-15 21:25:00,62.2,52.6,30.28,WNW,288,0.0,14.4,71,0.00,,---,0.00,VWS V14.01,2013-03-16 01:25:00,
2013-03-15 21:26:00,62.1,52.5,30.28,WNW,288,0.0,14.4,71,0.00,,---,0.00,VWS V14.01,2013-03-16 01:26:00,
2013-03-15 21:27:00,62.2,52.6,30.28,WNW,288,0.0,14.4,71,0.00,,---,0.00,VWS V14.01,2013-03-16 01:27:00,
2013-03-15 21:28:00,62.3,52.8,30.28,NW,326,1.3,14.4,71,0.00,,---,0.00,VWS V14.01,2013-03-16 01:28:00,
2013-03-15 21:29:00,62.1,52.6,30.28,NNW,339,0.4,14.4,71,0.00,,---,0.00,VWS V14.01,2013-03-16 01:29:00,
2013-03-15 21:30:00,62.0,52.5,30.28,North,4,0.0,14.4,71,0.00,,---,0.00,VWS V14.01,2013-03-16 01:30:00,
2013-03-15 21:31:00,62.3,52.8,30.28,North,4,0.0,14.4,71,0.00,,---,0.00,VWS V14.01,2013-03-16 01:31:00,
2013-03-15 21:32:00,62.0,52.5,30.28,NNW,328,1.0,14.4,71,0.00,,---,0.00,VWS V14.01,2013-03-16 01:32:00,
2013-03-15 21:33:00,62.1,52.6,30.28,NNE,14,0.0,14.4,71,0.00,,---,0.00,VWS V14.01,2013-03-16 01:33:00,
2013-03-15 21:34:00,62.0,52.6,30.28,North,359,3.0,14.4,71,0.00,,---,0.00,VWS V14.01,2013-03-16 01:34:00,
2013-03-15 21:35:00,62.0,52.6,30.28,NNE,24,0.0,14.4,71,0.00,,---,0.00,VWS V14.01,2013-03-16 01:35:00,
2013-03-15 21:36:00,62.0,52.6,30.28,NNE,24,0.0,14.4,71,0.00,,---,0.00,VWS V14.01,2013-03-16 01:36:00,
2013-03-15 21:37:00,61.9,52.5,30.28,NW,315,1.8,14.4,71,0.00,,---,0.00,VWS V14.01,2013-03-16 01:37:00,
2013-03-15 21:38:00,62.0,52.6,30.28,NW,323,0.0,14.4,71,0.00,,---,0.00,VWS V14.01,2013-03-16 01:38:00,
2013-03-15 21:39:00,61.8,52.5,30.28,North,10,0.4,14.4,71,0.00,,---,0.00,VWS V14.01,2013-03-16 01:39:00,
2013-03-15 21:40:00,61.8,52.5,30.28,NW,326,0.0,14.4,71,0.00,,---,0.00,VWS V14.01,2013-03-16 01:40:00,
2013-03-15 21:41:00,61.7,52.4,30.28,NW,326,0.0,14.4,71,0.00,,---,0.00,VWS V14.01,2013-03-16 01:41:00,
2013-03-15 21:42:00,61.8,52.5,30.28,NW,326,0.0,14.4,72,0.00,,---,0.00,VWS V14.01,2013-03-16 01:42:00,
2013-03-15 21:43:00,61.7,52.4,30.28,NW,326,0.0,14.4,72,0.00,,---,0.00,VWS V14.01,2013-03-16 01:43:00,
2013-03-15 21:44:00,61.6,52.3,30.28,NW,326,0.0,14.4,72,0.00,,---,0.00,VWS V14.01,2013-03-16 01:44:00,
2013-03-15 21:45:00,61.7,52.5,30.28,NW,326,0.0,14.4,72,0.00,,---,0.00,VWS V14.01,2013-03-16 01:45:00,
2013-03-15 21:46:00,61.6,52.4,30.28,NW,326,0.0,14.4,72,0.00,,---,0.00,VWS V14.01,2013-03-16 01:46:00,
2013-03-15 21:47:00,61.7,52.5,30.28,NW,326,0.0,14.4,72,0.00,,---,0.00,VWS V14.01,2013-03-16 01:47:00,
2013-03-15 21:48:00,61.7,52.5,30.28,NW,326,0.0,14.4,72,0.00,,---,0.00,VWS V14.01,2013-03-16 01:48:00,
2013-03-15 21:49:00,61.6,52.5,30.28,NW,326,0.0,14.4,72,0.00,,---,0.00,VWS V14.01,2013-03-16 01:49:00,
2013-03-15 21:50:00,61.6,52.5,30.28,NW,326,0.0,14.4,72,0.00,,---,0.00,VWS V14.01,2013-03-16 01:50:00,
2013-03-15 21:51:00,61.6,52.5,30.28,NW,326,0.0,14.4,72,0.00,,---,0.00,VWS V14.01,2013-03-16 01:51:00,
2013-03-15 21:52:00,61.6,52.5,30.28,NW,326,0.0,14.4,72,0.00,,---,0.00,VWS V14.01,2013-03-16 01:52:00,
2013-03-15 21:53:00,61.5,52.4,30.28,NW,326,0.0,14.4,72,0.00,,---,0.00,VWS V14.01,2013-03-16 01:53:00,
2013-03-15 21:54:00,61.5,52.4,30.28,NW,326,0.0,14.4,72,0.00,,---,0.00,VWS V14.01,2013-03-16 01:54:00,
2013-03-15 21:55:00,61.5,52.4,30.28,NW,326,0.0,14.4,72,0.00,,---,0.00,VWS V14.01,2013-03-16 01:55:00,
2013-03-15 21:56:00,61.5,52.4,30.28,NW,326,0.0,14.4,72,0.00,,---,0.00,VWS V14.01,2013-03-16 01:56:00,
2013-03-15 21:57:00,61.5,52.5,30.28,NW,325,1.0,14.4,72,0.00,,---,0.00,VWS V14.01,2013-03-16 01:57:00,
2013-03-15 21:58:00,61.5,52.5,30.28,NW,319,0.4,14.4,72,0.00,,---,0.00,VWS V14.01,2013-03-16 01:58:00,
2013-03-15 21:59:00,61.5,52.5,30.28,NNW,340,0.8,14.4,72,0.00,,---,0.00,VWS V14.01,2013-03-16 01:59:00,
2013-03-15 22:00:00,61.5,52.6,30.28,NNW,335,0.0,14.4,72,0.00,,---,0.00,VWS V14.01,2013-03-16 02:00:00,
2013-03-15 22:01:00,61.4,52.5,30.28,NNE,14,0.6,14.4,72,0.00,,---,0.00,VWS V14.01,2013-03-16 02:01:00,
2013-03-15 22:02:00,61.4,52.5,30.28,North,359,0.0,14.4,72,0.00,,---,0.00,VWS V14.01,2013-03-16 02:02:00,
2013-03-15 22:03:00,61.5,52.6,30.28,East,87,0.8,14.4,72,0.00,,---,0.00,VWS V14.01,2013-03-16 02:03:00,
2013-03-15 22:04:00,61.4,52.5,30.28,East,87,0.0,14.4,72,0.00,,---,0.00,VWS V14.01,2013-03-16 02:04:00,
2013-03-15 22:05:00,61.4,52.5,30.28,East,87,0.0,14.4,72,0.00,,---,0.00,VWS V14.01,2013-03-16 02:05:00,
2013-03-15 22:06:00,61.4,52.5,30.28,East,87,0.0,14.4,73,0.00,,---,0.00,VWS V14.01,2013-03-16 02:06:00,
2013-03-15 22:07:00,61.4,52.5,30.28,East,87,0.0,14.4,73,0.00,,---,0.00,VWS V14.01,2013-03-16 02:07:00,
2013-03-15 22:08:00,61.4,52.5,30.28,East,87,0.0,14.4,73,0.00,,---,0.00,VWS V14.01,2013-03-16 02:08:00,
2013-03-15 22:09:00,61.2,52.4,30.28,East,87,0.0,14.4,73,0.00,,---,0.00,VWS V14.01,2013-03-16 02:09:00,
2013-03-15 22:10:00,61.2,52.4,30.28,NNW,328,0.0,14.4,73,0.00,,---,0.00,VWS V14.01,2013-03-16 02:10:00,
2013-03-15 22:11:00,61.2,52.4,30.28,NNW,328,0.0,14.4,73,0.00,,---,0.00,VWS V14.01,2013-03-16 02:11:00,
2013-03-15 22:12:00,61.3,52.5,30.28,WNW,288,1.6,14.4,73,0.00,,---,0.00,VWS V14.01,2013-03-16 02:12:00,
2013-03-15 22:13:00,61.2,52.5,30.28,NNW,347,0.0,14.4,73,0.00,,---,0.00,VWS V14.01,2013-03-16 02:13:00,
2013-03-15 22:14:00,61.0,52.3,30.28,NNW,347,0.0,14.4,73,0.00,,---,0.00,VWS V14.01,2013-03-16 02:14:00,
2013-03-15 22:15:00,61.1,52.4,30.28,West,269,0.0,14.4,73,0.00,,---,0.00,VWS V14.01,2013-03-16 02:15:00,
2013-03-15 22:16:00,61.0,52.3,30.28,NNW,340,0.5,14.4,73,0.00,,---,0.00,VWS V14.01,2013-03-16 02:16:00,
2013-03-15 22:17:00,61.1,52.4,30.28,NNW,335,0.0,14.4,73,0.00,,---,0.00,VWS V14.01,2013-03-16 02:17:00,
2013-03-15 22:18:00,61.0,52.3,30.28,NNW,335,0.0,14.4,73,0.00,,---,0.00,VWS V14.01,2013-03-16 02:18:00,
2013-03-15 22:19:00,61.0,52.4,30.28,North,349,0.3,14.4,73,0.00,,---,0.00,VWS V14.01,2013-03-16 02:19:00,
2013-03-15 22:20:00,61.0,52.4,30.28,North,349,0.2,14.4,73,0.00,,---,0.00,VWS V14.01,2013-03-16 02:20:00,
2013-03-15 22:21:00,60.9,52.3,30.28,NW,305,0.0,14.4,73,0.00,,---,0.00,VWS V14.01,2013-03-16 02:21:00,
2013-03-15 22:22:00,61.0,52.4,30.28,NW,305,0.0,14.4,73,0.00,,---,0.00,VWS V14.01,2013-03-16 02:22:00,
2013-03-15 22:23:00,60.8,52.2,30.28,NNW,336,0.0,14.4,73,0.00,,---,0.00,VWS V14.01,2013-03-16 02:23:00,
2013-03-15 22:24:00,60.9,52.3,30.29,NNW,336,0.0,14.4,73,0.00,,---,0.00,VWS V14.01,2013-03-16 02:24:00,
2013-03-15 22:25:00,60.9,52.4,30.29,NNW,336,0.0,14.4,74,0.00,,---,0.00,VWS V14.01,2013-03-16 02:25:00,
2013-03-15 22:26:00,60.8,52.3,30.29,NNW,336,0.0,14.4,74,0.00,,---,0.00,VWS V14.01,2013-03-16 02:26:00,
2013-03-15 22:27:00,60.8,52.3,30.29,NNW,336,0.0,14.4,74,0.00,,---,0.00,VWS V14.01,2013-03-16 02:27:00,
2013-03-15 22:28:00,60.8,52.3,30.28,NW,316,1.7,14.4,74,0.00,,---,0.00,VWS V14.01,2013-03-16 02:28:00,
2013-03-15 22:29:00,60.7,52.3,30.28,NW,311,0.0,14.4,74,0.00,,---,0.00,VWS V14.01,2013-03-16 02:29:00,
2013-03-15 22:30:00,60.8,52.4,30.28,NW,311,0.0,14.4,74,0.00,,---,0.00,VWS V14.01,2013-03-16 02:30:00,
2013-03-15 22:31:00,60.6,52.2,30.28,North,352,0.7,14.4,74,0.00,,---,0.00,VWS V14.01,2013-03-16 02:31:00,
2013-03-15 22:32:00,60.6,52.3,30.28,North,352,0.0,14.4,74,0.00,,---,0.00,VWS V14.01,2013-03-16 02:32:00,
2013-03-15 22:33:00,60.7,52.4,30.28,North,352,0.0,14.4,74,0.00,,---,0.00,VWS V14.01,2013-03-16 02:33:00,
2013-03-15 22:34:00,60.6,52.3,30.28,North,352,0.0,14.4,74,0.00,,---,0.00,VWS V14.01,2013-03-16 02:34:00,
2013-03-15 22:35:00,60.6,52.3,30.28,North,352,0.0,14.4,74,0.00,,---,0.00,VWS V14.01,2013-03-16 02:35:00,
2013-03-15 22:36:00,60.5,52.2,30.28,North,352,0.0,14.4,74,0.00,,---,0.00,VWS V14.01,2013-03-16 02:36:00,
2013-03-15 22:37:00,60.4,52.1,30.28,North,352,0.0,14.4,74,0.00,,---,0.00,VWS V14.01,2013-03-16 02:37:00,
2013-03-15 22:38:00,60.5,52.2,30.28,North,352,0.0,14.4,74,0.00,,---,0.00,VWS V14.01,2013-03-16 02:38:00,
2013-03-15 22:39:00,60.5,52.3,30.28,North,352,0.0,14.4,74,0.00,,---,0.00,VWS V14.01,2013-03-16 02:39:00,
2013-03-15 22:40:00,60.4,52.2,30.28,North,352,0.0,14.4,74,0.00,,---,0.00,VWS V14.01,2013-03-16 02:40:00,
2013-03-15 22:41:00,60.4,52.2,30.28,North,352,0.0,14.4,74,0.00,,---,0.00,VWS V14.01,2013-03-16 02:41:00,
2013-03-15 22:42:00,60.3,52.1,30.28,North,352,0.0,14.4,74,0.00,,---,0.00,VWS V14.01,2013-03-16 02:42:00,
2013-03-15 22:43:00,60.4,52.2,30.28,North,352,0.0,14.4,74,0.00,,---,0.00,VWS V14.01,2013-03-16 02:43:00,
2013-03-15 22:44:00,60.3,52.1,30.28,North,352,0.0,14.4,74,0.00,,---,0.00,VWS V14.01,2013-03-16 02:44:00,
2013-03-15 22:45:00,60.4,52.3,30.28,North,352,0.0,14.4,74,0.00,,---,0.00,VWS V14.01,2013-03-16 02:45:00,
2013-03-15 22:46:00,60.4,52.3,30.29,North,352,0.0,14.4,74,0.00,,---,0.00,VWS V14.01,2013-03-16 02:46:00,
2013-03-15 22:47:00,60.3,52.2,30.28,North,352,0.0,14.4,74,0.00,,---,0.00,VWS V14.01,2013-03-16 02:47:00,
2013-03-15 22:48:00,60.2,52.1,30.28,North,352,0.0,14.4,75,0.00,,---,0.00,VWS V14.01,2013-03-16 02:48:00,
2013-03-15 22:49:00,60.3,52.2,30.28,North,352,0.0,14.4,75,0.00,,---,0.00,VWS V14.01,2013-03-16 02:49:00,
2013-03-15 22:50:00,60.1,52.0,30.28,North,352,0.0,14.4,75,0.00,,---,0.00,VWS V14.01,2013-03-16 02:50:00,
2013-03-15 22:51:00,60.1,52.0,30.28,North,352,0.0,14.4,75,0.00,,---,0.00,VWS V14.01,2013-03-16 02:51:00,
2013-03-15 22:52:00,60.1,52.0,30.28,North,352,0.0,14.4,75,0.00,,---,0.00,VWS V14.01,2013-03-16 02:52:00,
2013-03-15 22:53:00,60.1,52.0,30.28,North,352,0.0,14.4,75,0.00,,---,0.00,VWS V14.01,2013-03-16 02:53:00,
2013-03-15 22:54:00,60.0,52.0,30.28,North,352,0.0,14.4,75,0.00,,---,0.00,VWS V14.01,2013-03-16 02:54:00,
2013-03-15 22:55:00,59.9,51.9,30.28,North,352,0.0,14.4,75,0.00,,---,0.00,VWS V14.01,2013-03-16 02:55:00,
2013-03-15 22:56:00,60.0,52.0,30.28,North,352,0.0,14.4,75,0.00,,---,0.00,VWS V14.01,2013-03-16 02:56:00,
2013-03-15 22:57:00,59.9,52.0,30.28,North,352,0.0,14.4,75,0.00,,---,0.00,VWS V14.01,2013-03-16 02:57:00,
2013-03-15 22:58:00,59.8,51.9,30.28,North,352,0.0,14.4,75,0.00,,---,0.00,VWS V14.01,2013-03-16 02:58:00,
2013-03-15 22:59:00,59.8,51.9,30.28,North,352,0.0,14.4,75,0.00,,---,0.00,VWS V14.01,2013-03-16 02:59:00,
2013-03-15 23:00:00,59.8,51.9,30.28,North,352,0.0,14.4,75,0.00,,---,0.00,VWS V14.01,2013-03-16 03:00:00,
2013-03-15 23:01:00,59.8,51.9,30.28,NNW,347,0.0,14.4,75,0.00,,---,0.00,VWS V14.01,2013-03-16 03:01:00,
2013-03-15 23:02:00,59.6,51.8,30.28,NNW,347,0.0,14.4,75,0.00,,---,0.00,VWS V14.01,2013-03-16 03:02:00,
2013-03-15 23:03:00,59.6,51.8,30.28,NNW,347,0.0,14.4,75,0.00,,---,0.00,VWS V14.01,2013-03-16 03:03:00,
2013-03-15 23:04:00,59.6,51.8,30.28,NNW,347,0.0,14.4,75,0.00,,---,0.00,VWS V14.01,2013-03-16 03:04:00,
2013-03-15 23:05:00,59.6,51.8,30.28,NNW,347,0.0,14.4,75,0.00,,---,0.00,VWS V14.01,2013-03-16 03:05:00,
2013-03-15 23:06:00,59.6,51.8,30.28,NNW,347,0.0,14.4,75,0.00,,---,0.00,VWS V14.01,2013-03-16 03:06:00,
2013-03-15 23:07:00,59.6,51.9,30.28,NNW,347,0.0,14.4,76,0.00,,---,0.00,VWS V14.01,2013-03-16 03:07:00,
2013-03-15 23:08:00,59.6,51.8,30.28,NNW,347,0.0,14.4,75,0.00,,---,0.00,VWS V14.01,2013-03-16 03:08:00,
2013-03-15 23:09:00,59.5,51.7,30.28,NNW,347,0.0,14.4,75,0.00,,---,0.00,VWS V14.01,2013-03-16 03:09:00,
2013-03-15 23:10:00,59.6,51.9,30.28,NNW,347,0.0,14.4,76,0.00,,---,0.00,VWS V14.01,2013-03-16 03:10:00,
2013-03-15 23:11:00,59.4,51.7,30.28,NNW,347,0.0,14.4,76,0.00,,---,0.00,VWS V14.01,2013-03-16 03:11:00,
2013-03-15 23:12:00,59.5,51.8,30.28,NNW,347,0.0,14.4,76,0.00,,---,0.00,VWS V14.01,2013-03-16 03:12:00,
2013-03-15 23:13:00,59.4,51.7,30.28,NNW,347,0.0,14.4,76,0.00,,---,0.00,VWS V14.01,2013-03-16 03:13:00,
2013-03-15 23:14:00,59.4,51.7,30.28,NNW,347,0.0,14.4,76,0.00,,---,0.00,VWS V14.01,2013-03-16 03:14:00,